<?xml version='1.0' encoding='UTF-8'?>
<gpx version="1.1" creator="https://www.komoot.de" xmlns="http://www.topografix.com/GPX/1/1" xmlns:xsi="http://www.w3.org/2001/XMLSchema-instance" xsi:schemaLocation="http://www.topografix.com/GPX/1/1 http://www.topografix.com/GPX/1/1/gpx.xsd">
  <metadata>
    <name>53_600WehrHasel</name>
    <author>
      <link href="https://www.komoot.de">
        <text>komoot</text>
        <type>text/html</type>
      </link>
    </author>
  </metadata>
  <trk>
    <name>53_600WehrHasel</name>
    <trkseg>
      <trkpt lat="47.541687" lon="7.870855">
        <ele>341.927759</ele>
        <time>2021-11-13T14:14:00.487Z</time>
      </trkpt>
      <trkpt lat="47.541796" lon="7.871042">
        <ele>341.927759</ele>
        <time>2021-11-13T14:14:04.299Z</time>
      </trkpt>
      <trkpt lat="47.541953" lon="7.871286">
        <ele>341.927759</ele>
        <time>2021-11-13T14:14:09.259Z</time>
      </trkpt>
      <trkpt lat="47.541987" lon="7.871393">
        <ele>341.927759</ele>
        <time>2021-11-13T14:14:11.028Z</time>
      </trkpt>
      <trkpt lat="47.542039" lon="7.871556">
        <ele>341.927759</ele>
        <time>2021-11-13T14:14:13.999Z</time>
      </trkpt>
      <trkpt lat="47.542067" lon="7.871664">
        <ele>341.927759</ele>
        <time>2021-11-13T14:14:15.635Z</time>
      </trkpt>
      <trkpt lat="47.542091" lon="7.871721">
        <ele>341.927759</ele>
        <time>2021-11-13T14:14:16.257Z</time>
      </trkpt>
      <trkpt lat="47.542218" lon="7.871866">
        <ele>341.927759</ele>
        <time>2021-11-13T14:14:21.699Z</time>
      </trkpt>
      <trkpt lat="47.542394" lon="7.872341">
        <ele>343.514480</ele>
        <time>2021-11-13T14:14:32.158Z</time>
      </trkpt>
      <trkpt lat="47.542436" lon="7.872494">
        <ele>344.025626</ele>
        <time>2021-11-13T14:14:35.561Z</time>
      </trkpt>
      <trkpt lat="47.542537" lon="7.872430">
        <ele>344.529240</ele>
        <time>2021-11-13T14:14:37.645Z</time>
      </trkpt>
      <trkpt lat="47.542714" lon="7.872334">
        <ele>345.393368</ele>
        <time>2021-11-13T14:14:44.759Z</time>
      </trkpt>
      <trkpt lat="47.542814" lon="7.872280">
        <ele>345.881323</ele>
        <time>2021-11-13T14:14:47.634Z</time>
      </trkpt>
      <trkpt lat="47.542919" lon="7.872226">
        <ele>346.390876</ele>
        <time>2021-11-13T14:14:51.481Z</time>
      </trkpt>
      <trkpt lat="47.543013" lon="7.872182">
        <ele>346.842817</ele>
        <time>2021-11-13T14:14:55.112Z</time>
      </trkpt>
      <trkpt lat="47.543233" lon="7.872082">
        <ele>347.897811</ele>
        <time>2021-11-13T14:15:02.202Z</time>
      </trkpt>
      <trkpt lat="47.543251" lon="7.872152">
        <ele>348.129623</ele>
        <time>2021-11-13T14:15:05.616Z</time>
      </trkpt>
      <trkpt lat="47.543332" lon="7.872237">
        <ele>348.584693</ele>
        <time>2021-11-13T14:15:09.027Z</time>
      </trkpt>
      <trkpt lat="47.544390" lon="7.872423">
        <ele>354.992630</ele>
        <time>2021-11-13T14:15:50.658Z</time>
      </trkpt>
      <trkpt lat="47.544883" lon="7.872555">
        <ele>358.351196</ele>
        <time>2021-11-13T14:16:13.001Z</time>
      </trkpt>
      <trkpt lat="47.545131" lon="7.872664">
        <ele>360.085388</ele>
        <time>2021-11-13T14:16:24.005Z</time>
      </trkpt>
      <trkpt lat="47.545375" lon="7.872836">
        <ele>361.896873</ele>
        <time>2021-11-13T14:16:34.946Z</time>
      </trkpt>
      <trkpt lat="47.545478" lon="7.872968">
        <ele>362.762855</ele>
        <time>2021-11-13T14:16:41.753Z</time>
      </trkpt>
      <trkpt lat="47.545515" lon="7.873015">
        <ele>363.063028</ele>
        <time>2021-11-13T14:16:43.710Z</time>
      </trkpt>
      <trkpt lat="47.545746" lon="7.873302">
        <ele>364.919789</ele>
        <time>2021-11-13T14:16:56.909Z</time>
      </trkpt>
      <trkpt lat="47.545934" lon="7.873549">
        <ele>366.467367</ele>
        <time>2021-11-13T14:17:07.010Z</time>
      </trkpt>
      <trkpt lat="47.546077" lon="7.873763">
        <ele>367.719206</ele>
        <time>2021-11-13T14:17:16.206Z</time>
      </trkpt>
      <trkpt lat="47.546135" lon="7.873859">
        <ele>368.254809</ele>
        <time>2021-11-13T14:17:19.445Z</time>
      </trkpt>
      <trkpt lat="47.546309" lon="7.874154">
        <ele>369.883415</ele>
        <time>2021-11-13T14:17:30.560Z</time>
      </trkpt>
      <trkpt lat="47.547126" lon="7.875801">
        <ele>375.698902</ele>
        <time>2021-11-13T14:18:16.321Z</time>
      </trkpt>
      <trkpt lat="47.547574" lon="7.876801">
        <ele>378.050219</ele>
        <time>2021-11-13T14:18:35.316Z</time>
      </trkpt>
      <trkpt lat="47.547992" lon="7.877974">
        <ele>377.161893</ele>
        <time>2021-11-13T14:18:48.117Z</time>
      </trkpt>
      <trkpt lat="47.548234" lon="7.878638">
        <ele>376.208030</ele>
        <time>2021-11-13T14:18:53.429Z</time>
      </trkpt>
      <trkpt lat="47.548422" lon="7.878959">
        <ele>375.670822</ele>
        <time>2021-11-13T14:18:56.272Z</time>
      </trkpt>
      <trkpt lat="47.548718" lon="7.879258">
        <ele>374.794962</ele>
        <time>2021-11-13T14:18:59.810Z</time>
      </trkpt>
      <trkpt lat="47.549140" lon="7.879391">
        <ele>372.959138</ele>
        <time>2021-11-13T14:19:03.997Z</time>
      </trkpt>
      <trkpt lat="47.549318" lon="7.879398">
        <ele>372.201467</ele>
        <time>2021-11-13T14:19:05.624Z</time>
      </trkpt>
      <trkpt lat="47.549327" lon="7.879547">
        <ele>371.771830</ele>
        <time>2021-11-13T14:19:06.610Z</time>
      </trkpt>
      <trkpt lat="47.549726" lon="7.880786">
        <ele>367.829175</ele>
        <time>2021-11-13T14:19:15.545Z</time>
      </trkpt>
      <trkpt lat="47.549927" lon="7.881490">
        <ele>365.963901</ele>
        <time>2021-11-13T14:19:20.577Z</time>
      </trkpt>
      <trkpt lat="47.550234" lon="7.883221">
        <ele>361.729157</ele>
        <time>2021-11-13T14:19:32.978Z</time>
      </trkpt>
      <trkpt lat="47.550332" lon="7.884727">
        <ele>357.158588</ele>
        <time>2021-11-13T14:19:42.822Z</time>
      </trkpt>
      <trkpt lat="47.550391" lon="7.885109">
        <ele>355.930496</ele>
        <time>2021-11-13T14:19:45.354Z</time>
      </trkpt>
      <trkpt lat="47.550548" lon="7.885799">
        <ele>353.648542</ele>
        <time>2021-11-13T14:19:49.959Z</time>
      </trkpt>
      <trkpt lat="47.550677" lon="7.886476">
        <ele>351.071417</ele>
        <time>2021-11-13T14:19:54.389Z</time>
      </trkpt>
      <trkpt lat="47.550758" lon="7.887295">
        <ele>347.790421</ele>
        <time>2021-11-13T14:19:59.531Z</time>
      </trkpt>
      <trkpt lat="47.550789" lon="7.887816">
        <ele>345.717289</ele>
        <time>2021-11-13T14:20:02.763Z</time>
      </trkpt>
      <trkpt lat="47.550831" lon="7.888611">
        <ele>342.556457</ele>
        <time>2021-11-13T14:20:07.719Z</time>
      </trkpt>
      <trkpt lat="47.550833" lon="7.889069">
        <ele>340.673218</ele>
        <time>2021-11-13T14:20:10.529Z</time>
      </trkpt>
      <trkpt lat="47.550915" lon="7.890600">
        <ele>334.318790</ele>
        <time>2021-11-13T14:20:19.922Z</time>
      </trkpt>
      <trkpt lat="47.550904" lon="7.891725">
        <ele>330.387555</ele>
        <time>2021-11-13T14:20:26.926Z</time>
      </trkpt>
      <trkpt lat="47.550892" lon="7.893176">
        <ele>327.103426</ele>
        <time>2021-11-13T14:20:36.538Z</time>
      </trkpt>
      <trkpt lat="47.550908" lon="7.894308">
        <ele>324.977134</ele>
        <time>2021-11-13T14:20:45.743Z</time>
      </trkpt>
      <trkpt lat="47.550878" lon="7.895158">
        <ele>324.269342</ele>
        <time>2021-11-13T14:20:52.928Z</time>
      </trkpt>
      <trkpt lat="47.550838" lon="7.895509">
        <ele>323.973333</ele>
        <time>2021-11-13T14:20:56.092Z</time>
      </trkpt>
      <trkpt lat="47.550660" lon="7.896255">
        <ele>323.315363</ele>
        <time>2021-11-13T14:21:02.581Z</time>
      </trkpt>
      <trkpt lat="47.550639" lon="7.896345">
        <ele>323.236176</ele>
        <time>2021-11-13T14:21:03.768Z</time>
      </trkpt>
      <trkpt lat="47.550648" lon="7.896481">
        <ele>323.122541</ele>
        <time>2021-11-13T14:21:04.723Z</time>
      </trkpt>
      <trkpt lat="47.550819" lon="7.898109">
        <ele>319.733873</ele>
        <time>2021-11-13T14:21:16.471Z</time>
      </trkpt>
      <trkpt lat="47.550801" lon="7.900244">
        <ele>314.454789</ele>
        <time>2021-11-13T14:21:30.308Z</time>
      </trkpt>
      <trkpt lat="47.550769" lon="7.901362">
        <ele>311.284220</ele>
        <time>2021-11-13T14:21:37.580Z</time>
      </trkpt>
      <trkpt lat="47.550757" lon="7.901591">
        <ele>310.633422</ele>
        <time>2021-11-13T14:21:39.716Z</time>
      </trkpt>
      <trkpt lat="47.550688" lon="7.902451">
        <ele>308.361623</ele>
        <time>2021-11-13T14:21:48.150Z</time>
      </trkpt>
      <trkpt lat="47.550498" lon="7.903445">
        <ele>305.784259</ele>
        <time>2021-11-13T14:21:58.400Z</time>
      </trkpt>
      <trkpt lat="47.550302" lon="7.904164">
        <ele>303.849709</ele>
        <time>2021-11-13T14:22:05.660Z</time>
      </trkpt>
      <trkpt lat="47.550025" lon="7.904774">
        <ele>301.997977</ele>
        <time>2021-11-13T14:22:12.570Z</time>
      </trkpt>
      <trkpt lat="47.549868" lon="7.905010">
        <ele>301.157339</ele>
        <time>2021-11-13T14:22:15.689Z</time>
      </trkpt>
      <trkpt lat="47.549867" lon="7.905155">
        <ele>300.789471</ele>
        <time>2021-11-13T14:22:17.080Z</time>
      </trkpt>
      <trkpt lat="47.550067" lon="7.905245">
        <ele>300.003834</ele>
        <time>2021-11-13T14:22:19.995Z</time>
      </trkpt>
      <trkpt lat="47.550283" lon="7.905413">
        <ele>299.086900</ele>
        <time>2021-11-13T14:22:23.436Z</time>
      </trkpt>
      <trkpt lat="47.550497" lon="7.905558">
        <ele>298.202430</ele>
        <time>2021-11-13T14:22:26.786Z</time>
      </trkpt>
      <trkpt lat="47.550200" lon="7.906510">
        <ele>295.899752</ele>
        <time>2021-11-13T14:22:33.823Z</time>
      </trkpt>
      <trkpt lat="47.549539" lon="7.908625">
        <ele>292.799484</ele>
        <time>2021-11-13T14:22:51.535Z</time>
      </trkpt>
      <trkpt lat="47.549520" lon="7.908678">
        <ele>292.731964</ele>
        <time>2021-11-13T14:22:52.045Z</time>
      </trkpt>
      <trkpt lat="47.549311" lon="7.909370">
        <ele>292.138193</ele>
        <time>2021-11-13T14:22:58.285Z</time>
      </trkpt>
      <trkpt lat="47.549195" lon="7.909756">
        <ele>291.807259</ele>
        <time>2021-11-13T14:23:01.786Z</time>
      </trkpt>
      <trkpt lat="47.549102" lon="7.910058">
        <ele>291.547271</ele>
        <time>2021-11-13T14:23:04.499Z</time>
      </trkpt>
      <trkpt lat="47.549012" lon="7.910340">
        <ele>291.302957</ele>
        <time>2021-11-13T14:23:07.025Z</time>
      </trkpt>
      <trkpt lat="47.548412" lon="7.912168">
        <ele>289.854123</ele>
        <time>2021-11-13T14:23:23.359Z</time>
      </trkpt>
      <trkpt lat="47.548027" lon="7.913334">
        <ele>288.990472</ele>
        <time>2021-11-13T14:23:34.120Z</time>
      </trkpt>
      <trkpt lat="47.547994" lon="7.913433">
        <ele>288.917007</ele>
        <time>2021-11-13T14:23:35.041Z</time>
      </trkpt>
      <trkpt lat="47.547423" lon="7.915080">
        <ele>288.758061</ele>
        <time>2021-11-13T14:23:52.529Z</time>
      </trkpt>
      <trkpt lat="47.547113" lon="7.915971">
        <ele>288.749617</ele>
        <time>2021-11-13T14:24:03.167Z</time>
      </trkpt>
      <trkpt lat="47.547091" lon="7.916039">
        <ele>288.776961</ele>
        <time>2021-11-13T14:24:04.217Z</time>
      </trkpt>
      <trkpt lat="47.547032" lon="7.916218">
        <ele>288.849193</ele>
        <time>2021-11-13T14:24:06.488Z</time>
      </trkpt>
      <trkpt lat="47.546821" lon="7.916867">
        <ele>289.110405</ele>
        <time>2021-11-13T14:24:14.903Z</time>
      </trkpt>
      <trkpt lat="47.546262" lon="7.919081">
        <ele>289.844657</ele>
        <time>2021-11-13T14:24:42.554Z</time>
      </trkpt>
      <trkpt lat="47.546128" lon="7.919617">
        <ele>289.968476</ele>
        <time>2021-11-13T14:24:47.983Z</time>
      </trkpt>
      <trkpt lat="47.546060" lon="7.919923">
        <ele>290.038264</ele>
        <time>2021-11-13T14:24:51.029Z</time>
      </trkpt>
      <trkpt lat="47.545973" lon="7.920313">
        <ele>290.127242</ele>
        <time>2021-11-13T14:24:55.421Z</time>
      </trkpt>
      <trkpt lat="47.545913" lon="7.920765">
        <ele>290.227033</ele>
        <time>2021-11-13T14:25:00.180Z</time>
      </trkpt>
      <trkpt lat="47.545881" lon="7.921096">
        <ele>290.542082</ele>
        <time>2021-11-13T14:25:04.145Z</time>
      </trkpt>
      <trkpt lat="47.545810" lon="7.921755">
        <ele>291.271763</ele>
        <time>2021-11-13T14:25:12.757Z</time>
      </trkpt>
      <trkpt lat="47.545778" lon="7.921947">
        <ele>291.488004</ele>
        <time>2021-11-13T14:25:15.706Z</time>
      </trkpt>
      <trkpt lat="47.545714" lon="7.922249">
        <ele>291.834108</ele>
        <time>2021-11-13T14:25:19.567Z</time>
      </trkpt>
      <trkpt lat="47.545699" lon="7.922325">
        <ele>291.920687</ele>
        <time>2021-11-13T14:25:20.768Z</time>
      </trkpt>
      <trkpt lat="47.545690" lon="7.922369">
        <ele>291.970958</ele>
        <time>2021-11-13T14:25:21.842Z</time>
      </trkpt>
      <trkpt lat="47.545641" lon="7.922610">
        <ele>292.246167</ele>
        <time>2021-11-13T14:25:25.198Z</time>
      </trkpt>
      <trkpt lat="47.545587" lon="7.922895">
        <ele>292.569835</ele>
        <time>2021-11-13T14:25:30.030Z</time>
      </trkpt>
      <trkpt lat="47.545553" lon="7.923142">
        <ele>292.845469</ele>
        <time>2021-11-13T14:25:33.641Z</time>
      </trkpt>
      <trkpt lat="47.545536" lon="7.923407">
        <ele>293.136531</ele>
        <time>2021-11-13T14:25:38.517Z</time>
      </trkpt>
      <trkpt lat="47.545521" lon="7.923709">
        <ele>293.891079</ele>
        <time>2021-11-13T14:25:43.684Z</time>
      </trkpt>
      <trkpt lat="47.545481" lon="7.924396">
        <ele>295.660077</ele>
        <time>2021-11-13T14:25:58.287Z</time>
      </trkpt>
      <trkpt lat="47.545466" lon="7.924880">
        <ele>296.903056</ele>
        <time>2021-11-13T14:26:09.594Z</time>
      </trkpt>
      <trkpt lat="47.545446" lon="7.925350">
        <ele>298.111205</ele>
        <time>2021-11-13T14:26:19.968Z</time>
      </trkpt>
      <trkpt lat="47.545417" lon="7.925848">
        <ele>299.393539</ele>
        <time>2021-11-13T14:26:30.447Z</time>
      </trkpt>
      <trkpt lat="47.545409" lon="7.926773">
        <ele>300.723266</ele>
        <time>2021-11-13T14:26:47.648Z</time>
      </trkpt>
      <trkpt lat="47.545407" lon="7.927001">
        <ele>300.964864</ele>
        <time>2021-11-13T14:26:51.457Z</time>
      </trkpt>
      <trkpt lat="47.545406" lon="7.927306">
        <ele>301.288030</ele>
        <time>2021-11-13T14:26:56.062Z</time>
      </trkpt>
      <trkpt lat="47.545421" lon="7.927686">
        <ele>301.691346</ele>
        <time>2021-11-13T14:27:01.597Z</time>
      </trkpt>
      <trkpt lat="47.545475" lon="7.928419">
        <ele>302.472605</ele>
        <time>2021-11-13T14:27:10.915Z</time>
      </trkpt>
      <trkpt lat="47.545563" lon="7.929641">
        <ele>301.719066</ele>
        <time>2021-11-13T14:27:20.794Z</time>
      </trkpt>
      <trkpt lat="47.545661" lon="7.930955">
        <ele>300.127756</ele>
        <time>2021-11-13T14:27:30.190Z</time>
      </trkpt>
      <trkpt lat="47.545696" lon="7.931497">
        <ele>299.540468</ele>
        <time>2021-11-13T14:27:34.159Z</time>
      </trkpt>
      <trkpt lat="47.545721" lon="7.931992">
        <ele>299.250023</ele>
        <time>2021-11-13T14:27:37.939Z</time>
      </trkpt>
      <trkpt lat="47.545724" lon="7.932758">
        <ele>298.801813</ele>
        <time>2021-11-13T14:27:44.056Z</time>
      </trkpt>
      <trkpt lat="47.545702" lon="7.933290">
        <ele>298.489946</ele>
        <time>2021-11-13T14:27:48.699Z</time>
      </trkpt>
      <trkpt lat="47.545674" lon="7.933625">
        <ele>298.292433</ele>
        <time>2021-11-13T14:27:52.000Z</time>
      </trkpt>
      <trkpt lat="47.545533" lon="7.934588">
        <ele>298.514145</ele>
        <time>2021-11-13T14:28:03.265Z</time>
      </trkpt>
      <trkpt lat="47.545465" lon="7.935057">
        <ele>298.912678</ele>
        <time>2021-11-13T14:28:09.150Z</time>
      </trkpt>
      <trkpt lat="47.545457" lon="7.935110">
        <ele>298.957798</ele>
        <time>2021-11-13T14:28:10.176Z</time>
      </trkpt>
      <trkpt lat="47.545074" lon="7.936484">
        <ele>300.192829</ele>
        <time>2021-11-13T14:28:31.489Z</time>
      </trkpt>
      <trkpt lat="47.544903" lon="7.936917">
        <ele>300.778145</ele>
        <time>2021-11-13T14:28:38.901Z</time>
      </trkpt>
      <trkpt lat="47.544705" lon="7.937395">
        <ele>301.468391</ele>
        <time>2021-11-13T14:28:47.341Z</time>
      </trkpt>
      <trkpt lat="47.544472" lon="7.937932">
        <ele>302.254079</ele>
        <time>2021-11-13T14:28:56.748Z</time>
      </trkpt>
      <trkpt lat="47.543826" lon="7.939433">
        <ele>304.331926</ele>
        <time>2021-11-13T14:29:23.630Z</time>
      </trkpt>
      <trkpt lat="47.543435" lon="7.940670">
        <ele>305.803191</ele>
        <time>2021-11-13T14:29:43.590Z</time>
      </trkpt>
      <trkpt lat="47.543161" lon="7.942213">
        <ele>306.502252</ele>
        <time>2021-11-13T14:30:04.440Z</time>
      </trkpt>
      <trkpt lat="47.543007" lon="7.943867">
        <ele>306.594425</ele>
        <time>2021-11-13T14:30:19.984Z</time>
      </trkpt>
      <trkpt lat="47.542913" lon="7.945267">
        <ele>304.566363</ele>
        <time>2021-11-13T14:30:30.743Z</time>
      </trkpt>
      <trkpt lat="47.542872" lon="7.945781">
        <ele>303.820274</ele>
        <time>2021-11-13T14:30:34.340Z</time>
      </trkpt>
      <trkpt lat="47.542875" lon="7.946089">
        <ele>303.376244</ele>
        <time>2021-11-13T14:30:36.431Z</time>
      </trkpt>
      <trkpt lat="47.542902" lon="7.946514">
        <ele>302.763283</ele>
        <time>2021-11-13T14:30:39.310Z</time>
      </trkpt>
      <trkpt lat="47.542943" lon="7.946806">
        <ele>302.354919</ele>
        <time>2021-11-13T14:30:41.356Z</time>
      </trkpt>
      <trkpt lat="47.542974" lon="7.946965">
        <ele>302.128318</ele>
        <time>2021-11-13T14:30:42.567Z</time>
      </trkpt>
      <trkpt lat="47.542979" lon="7.946989">
        <ele>302.093928</ele>
        <time>2021-11-13T14:30:42.723Z</time>
      </trkpt>
      <trkpt lat="47.543007" lon="7.947104">
        <ele>301.926541</ele>
        <time>2021-11-13T14:30:43.571Z</time>
      </trkpt>
      <trkpt lat="47.543087" lon="7.947317">
        <ele>301.592800</ele>
        <time>2021-11-13T14:30:45.314Z</time>
      </trkpt>
      <trkpt lat="47.543191" lon="7.947615">
        <ele>301.133476</ele>
        <time>2021-11-13T14:30:47.755Z</time>
      </trkpt>
      <trkpt lat="47.543242" lon="7.947745">
        <ele>300.927605</ele>
        <time>2021-11-13T14:30:48.885Z</time>
      </trkpt>
      <trkpt lat="47.543273" lon="7.947816">
        <ele>300.811830</ele>
        <time>2021-11-13T14:30:49.512Z</time>
      </trkpt>
      <trkpt lat="47.543358" lon="7.947967">
        <ele>300.542629</ele>
        <time>2021-11-13T14:30:50.955Z</time>
      </trkpt>
      <trkpt lat="47.543455" lon="7.948127">
        <ele>300.248178</ele>
        <time>2021-11-13T14:30:52.622Z</time>
      </trkpt>
      <trkpt lat="47.543532" lon="7.948214">
        <ele>300.051755</ele>
        <time>2021-11-13T14:30:53.702Z</time>
      </trkpt>
      <trkpt lat="47.543579" lon="7.948287">
        <ele>299.913632</ele>
        <time>2021-11-13T14:30:54.466Z</time>
      </trkpt>
      <trkpt lat="47.543760" lon="7.948548">
        <ele>299.401298</ele>
        <time>2021-11-13T14:30:57.355Z</time>
      </trkpt>
      <trkpt lat="47.543864" lon="7.948694">
        <ele>299.156876</ele>
        <time>2021-11-13T14:30:59.027Z</time>
      </trkpt>
      <trkpt lat="47.544239" lon="7.949202">
        <ele>299.087556</ele>
        <time>2021-11-13T14:31:06.389Z</time>
      </trkpt>
      <trkpt lat="47.544521" lon="7.949558">
        <ele>299.037014</ele>
        <time>2021-11-13T14:31:12.562Z</time>
      </trkpt>
      <trkpt lat="47.544901" lon="7.950044">
        <ele>298.968531</ele>
        <time>2021-11-13T14:31:21.362Z</time>
      </trkpt>
      <trkpt lat="47.545166" lon="7.950366">
        <ele>298.921776</ele>
        <time>2021-11-13T14:31:26.603Z</time>
      </trkpt>
      <trkpt lat="47.545434" lon="7.950668">
        <ele>298.168107</ele>
        <time>2021-11-13T14:31:30.843Z</time>
      </trkpt>
      <trkpt lat="47.545542" lon="7.950842">
        <ele>297.751353</ele>
        <time>2021-11-13T14:31:32.622Z</time>
      </trkpt>
      <trkpt lat="47.545667" lon="7.950979">
        <ele>297.345227</ele>
        <time>2021-11-13T14:31:34.392Z</time>
      </trkpt>
      <trkpt lat="47.545737" lon="7.951055">
        <ele>297.118550</ele>
        <time>2021-11-13T14:31:35.322Z</time>
      </trkpt>
      <trkpt lat="47.545759" lon="7.950982">
        <ele>296.977601</ele>
        <time>2021-11-13T14:31:35.888Z</time>
      </trkpt>
      <trkpt lat="47.545852" lon="7.950808">
        <ele>296.586304</ele>
        <time>2021-11-13T14:31:37.461Z</time>
      </trkpt>
      <trkpt lat="47.545858" lon="7.950769">
        <ele>296.515781</ele>
        <time>2021-11-13T14:31:37.740Z</time>
      </trkpt>
      <trkpt lat="47.545875" lon="7.950668">
        <ele>296.332260</ele>
        <time>2021-11-13T14:31:38.483Z</time>
      </trkpt>
      <trkpt lat="47.545948" lon="7.950297">
        <ele>295.650944</ele>
        <time>2021-11-13T14:31:41.083Z</time>
      </trkpt>
      <trkpt lat="47.545949" lon="7.950185">
        <ele>295.453465</ele>
        <time>2021-11-13T14:31:41.841Z</time>
      </trkpt>
      <trkpt lat="47.546159" lon="7.949303">
        <ele>293.696201</ele>
        <time>2021-11-13T14:31:47.865Z</time>
      </trkpt>
      <trkpt lat="47.546572" lon="7.947545">
        <ele>289.552090</ele>
        <time>2021-11-13T14:32:00.336Z</time>
      </trkpt>
      <trkpt lat="47.546664" lon="7.947227">
        <ele>288.781841</ele>
        <time>2021-11-13T14:32:02.859Z</time>
      </trkpt>
      <trkpt lat="47.546749" lon="7.946929">
        <ele>288.236152</ele>
        <time>2021-11-13T14:32:05.244Z</time>
      </trkpt>
      <trkpt lat="47.546772" lon="7.946847">
        <ele>288.193257</ele>
        <time>2021-11-13T14:32:05.919Z</time>
      </trkpt>
      <trkpt lat="47.546815" lon="7.946690">
        <ele>288.111409</ele>
        <time>2021-11-13T14:32:07.206Z</time>
      </trkpt>
      <trkpt lat="47.546959" lon="7.946071">
        <ele>287.795127</ele>
        <time>2021-11-13T14:32:12.517Z</time>
      </trkpt>
      <trkpt lat="47.547022" lon="7.945790">
        <ele>287.652092</ele>
        <time>2021-11-13T14:32:15.356Z</time>
      </trkpt>
      <trkpt lat="47.547062" lon="7.945612">
        <ele>287.561466</ele>
        <time>2021-11-13T14:32:17.063Z</time>
      </trkpt>
      <trkpt lat="47.547075" lon="7.945550">
        <ele>287.530103</ele>
        <time>2021-11-13T14:32:17.679Z</time>
      </trkpt>
      <trkpt lat="47.547150" lon="7.945242">
        <ele>287.371932</ele>
        <time>2021-11-13T14:32:21.480Z</time>
      </trkpt>
      <trkpt lat="47.547161" lon="7.945196">
        <ele>287.348358</ele>
        <time>2021-11-13T14:32:21.953Z</time>
      </trkpt>
      <trkpt lat="47.547282" lon="7.944699">
        <ele>287.093133</ele>
        <time>2021-11-13T14:32:27.602Z</time>
      </trkpt>
      <trkpt lat="47.547318" lon="7.944515">
        <ele>287.000590</ele>
        <time>2021-11-13T14:32:29.291Z</time>
      </trkpt>
      <trkpt lat="47.547344" lon="7.944382">
        <ele>286.951830</ele>
        <time>2021-11-13T14:32:30.666Z</time>
      </trkpt>
      <trkpt lat="47.547354" lon="7.944331">
        <ele>286.933490</ele>
        <time>2021-11-13T14:32:31.197Z</time>
      </trkpt>
      <trkpt lat="47.547734" lon="7.942722">
        <ele>286.344829</ele>
        <time>2021-11-13T14:32:46.181Z</time>
      </trkpt>
      <trkpt lat="47.547790" lon="7.942490">
        <ele>286.259744</ele>
        <time>2021-11-13T14:32:48.216Z</time>
      </trkpt>
      <trkpt lat="47.548087" lon="7.941446">
        <ele>285.709622</ele>
        <time>2021-11-13T14:32:58.264Z</time>
      </trkpt>
      <trkpt lat="47.548484" lon="7.940313">
        <ele>284.932947</ele>
        <time>2021-11-13T14:33:08.594Z</time>
      </trkpt>
      <trkpt lat="47.548550" lon="7.940126">
        <ele>284.804560</ele>
        <time>2021-11-13T14:33:10.337Z</time>
      </trkpt>
      <trkpt lat="47.548587" lon="7.940118">
        <ele>284.770856</ele>
        <time>2021-11-13T14:33:10.825Z</time>
      </trkpt>
      <trkpt lat="47.548632" lon="7.940087">
        <ele>284.726123</ele>
        <time>2021-11-13T14:33:11.464Z</time>
      </trkpt>
      <trkpt lat="47.548653" lon="7.940052">
        <ele>284.697632</ele>
        <time>2021-11-13T14:33:11.870Z</time>
      </trkpt>
      <trkpt lat="47.548676" lon="7.939951">
        <ele>284.632780</ele>
        <time>2021-11-13T14:33:12.751Z</time>
      </trkpt>
      <trkpt lat="47.548673" lon="7.939890">
        <ele>284.595570</ele>
        <time>2021-11-13T14:33:13.282Z</time>
      </trkpt>
      <trkpt lat="47.548643" lon="7.939810">
        <ele>284.539890</ele>
        <time>2021-11-13T14:33:14.051Z</time>
      </trkpt>
      <trkpt lat="47.548614" lon="7.939778">
        <ele>284.507296</ele>
        <time>2021-11-13T14:33:14.485Z</time>
      </trkpt>
      <trkpt lat="47.548563" lon="7.939753">
        <ele>284.458875</ele>
        <time>2021-11-13T14:33:15.154Z</time>
      </trkpt>
      <trkpt lat="47.548509" lon="7.939765">
        <ele>284.427414</ele>
        <time>2021-11-13T14:33:15.870Z</time>
      </trkpt>
      <trkpt lat="47.548230" lon="7.939581">
        <ele>284.258066</ele>
        <time>2021-11-13T14:33:19.698Z</time>
      </trkpt>
      <trkpt lat="47.548150" lon="7.939478">
        <ele>284.199294</ele>
        <time>2021-11-13T14:33:21.099Z</time>
      </trkpt>
      <trkpt lat="47.548129" lon="7.939460">
        <ele>284.185840</ele>
        <time>2021-11-13T14:33:21.397Z</time>
      </trkpt>
      <trkpt lat="47.548085" lon="7.939422">
        <ele>284.157598</ele>
        <time>2021-11-13T14:33:22.039Z</time>
      </trkpt>
      <trkpt lat="47.547909" lon="7.939256">
        <ele>284.041903</ele>
        <time>2021-11-13T14:33:24.733Z</time>
      </trkpt>
      <trkpt lat="47.547474" lon="7.938844">
        <ele>283.755607</ele>
        <time>2021-11-13T14:33:31.688Z</time>
      </trkpt>
      <trkpt lat="47.547174" lon="7.938475">
        <ele>283.539389</ele>
        <time>2021-11-13T14:33:36.750Z</time>
      </trkpt>
      <trkpt lat="47.547115" lon="7.938377">
        <ele>283.490237</ele>
        <time>2021-11-13T14:33:37.922Z</time>
      </trkpt>
      <trkpt lat="47.547044" lon="7.938237">
        <ele>283.463757</ele>
        <time>2021-11-13T14:33:39.606Z</time>
      </trkpt>
      <trkpt lat="47.546969" lon="7.938023">
        <ele>283.478056</ele>
        <time>2021-11-13T14:33:42.008Z</time>
      </trkpt>
      <trkpt lat="47.546915" lon="7.937800">
        <ele>283.492105</ele>
        <time>2021-11-13T14:33:44.390Z</time>
      </trkpt>
      <trkpt lat="47.546890" lon="7.937602">
        <ele>283.504051</ele>
        <time>2021-11-13T14:33:46.575Z</time>
      </trkpt>
      <trkpt lat="47.546895" lon="7.937196">
        <ele>283.528132</ele>
        <time>2021-11-13T14:33:50.658Z</time>
      </trkpt>
      <trkpt lat="47.547020" lon="7.936617">
        <ele>283.564181</ele>
        <time>2021-11-13T14:33:56.974Z</time>
      </trkpt>
      <trkpt lat="47.547523" lon="7.935115">
        <ele>283.898548</ele>
        <time>2021-11-13T14:34:15.066Z</time>
      </trkpt>
      <trkpt lat="47.547539" lon="7.935068">
        <ele>283.917215</ele>
        <time>2021-11-13T14:34:15.632Z</time>
      </trkpt>
      <trkpt lat="47.547663" lon="7.934665">
        <ele>284.074278</ele>
        <time>2021-11-13T14:34:20.585Z</time>
      </trkpt>
      <trkpt lat="47.547956" lon="7.933604">
        <ele>284.480806</ele>
        <time>2021-11-13T14:34:33.935Z</time>
      </trkpt>
      <trkpt lat="47.548144" lon="7.932614">
        <ele>284.948845</ele>
        <time>2021-11-13T14:34:46.861Z</time>
      </trkpt>
      <trkpt lat="47.548252" lon="7.930989">
        <ele>285.738512</ele>
        <time>2021-11-13T14:35:06.359Z</time>
      </trkpt>
      <trkpt lat="47.548241" lon="7.930335">
        <ele>286.164976</ele>
        <time>2021-11-13T14:35:13.558Z</time>
      </trkpt>
      <trkpt lat="47.548236" lon="7.930144">
        <ele>286.307113</ele>
        <time>2021-11-13T14:35:15.537Z</time>
      </trkpt>
      <trkpt lat="47.548226" lon="7.929841">
        <ele>286.532698</ele>
        <time>2021-11-13T14:35:19.504Z</time>
      </trkpt>
      <trkpt lat="47.548192" lon="7.928866">
        <ele>287.258690</ele>
        <time>2021-11-13T14:35:32.159Z</time>
      </trkpt>
      <trkpt lat="47.548186" lon="7.928343">
        <ele>287.647657</ele>
        <time>2021-11-13T14:35:39.664Z</time>
      </trkpt>
      <trkpt lat="47.548228" lon="7.928033">
        <ele>287.926772</ele>
        <time>2021-11-13T14:35:43.667Z</time>
      </trkpt>
      <trkpt lat="47.548275" lon="7.927880">
        <ele>288.159455</ele>
        <time>2021-11-13T14:35:46.056Z</time>
      </trkpt>
      <trkpt lat="47.548298" lon="7.927820">
        <ele>288.254966</ele>
        <time>2021-11-13T14:35:47.794Z</time>
      </trkpt>
      <trkpt lat="47.548527" lon="7.927528">
        <ele>288.874567</ele>
        <time>2021-11-13T14:35:53.870Z</time>
      </trkpt>
      <trkpt lat="47.548534" lon="7.927518">
        <ele>288.894509</ele>
        <time>2021-11-13T14:35:54.186Z</time>
      </trkpt>
      <trkpt lat="47.548777" lon="7.927430">
        <ele>289.407510</ele>
        <time>2021-11-13T14:36:00.121Z</time>
      </trkpt>
      <trkpt lat="47.548912" lon="7.927437">
        <ele>289.684530</ele>
        <time>2021-11-13T14:36:03.815Z</time>
      </trkpt>
      <trkpt lat="47.549059" lon="7.927444">
        <ele>289.986145</ele>
        <time>2021-11-13T14:36:07.429Z</time>
      </trkpt>
      <trkpt lat="47.549697" lon="7.927581">
        <ele>291.308190</ele>
        <time>2021-11-13T14:36:23.074Z</time>
      </trkpt>
      <trkpt lat="47.550041" lon="7.927651">
        <ele>291.747770</ele>
        <time>2021-11-13T14:36:30.652Z</time>
      </trkpt>
      <trkpt lat="47.550381" lon="7.927709">
        <ele>292.067125</ele>
        <time>2021-11-13T14:36:37.798Z</time>
      </trkpt>
      <trkpt lat="47.550481" lon="7.927724">
        <ele>292.160914</ele>
        <time>2021-11-13T14:36:39.737Z</time>
      </trkpt>
      <trkpt lat="47.550669" lon="7.927757">
        <ele>292.337567</ele>
        <time>2021-11-13T14:36:42.955Z</time>
      </trkpt>
      <trkpt lat="47.551076" lon="7.927850">
        <ele>292.721835</ele>
        <time>2021-11-13T14:36:49.934Z</time>
      </trkpt>
      <trkpt lat="47.551163" lon="7.927871">
        <ele>292.804087</ele>
        <time>2021-11-13T14:36:51.328Z</time>
      </trkpt>
      <trkpt lat="47.551192" lon="7.927575">
        <ele>292.992458</ele>
        <time>2021-11-13T14:36:54.689Z</time>
      </trkpt>
      <trkpt lat="47.551183" lon="7.927256">
        <ele>293.193536</ele>
        <time>2021-11-13T14:36:58.204Z</time>
      </trkpt>
      <trkpt lat="47.551209" lon="7.927048">
        <ele>293.243530</ele>
        <time>2021-11-13T14:37:00.471Z</time>
      </trkpt>
      <trkpt lat="47.551236" lon="7.926890">
        <ele>293.279515</ele>
        <time>2021-11-13T14:37:02.341Z</time>
      </trkpt>
      <trkpt lat="47.551262" lon="7.926787">
        <ele>293.303794</ele>
        <time>2021-11-13T14:37:03.441Z</time>
      </trkpt>
      <trkpt lat="47.551300" lon="7.926708">
        <ele>293.325212</ele>
        <time>2021-11-13T14:37:04.445Z</time>
      </trkpt>
      <trkpt lat="47.551345" lon="7.926636">
        <ele>293.346877</ele>
        <time>2021-11-13T14:37:05.456Z</time>
      </trkpt>
      <trkpt lat="47.551423" lon="7.926561">
        <ele>293.377295</ele>
        <time>2021-11-13T14:37:07.079Z</time>
      </trkpt>
      <trkpt lat="47.551676" lon="7.926477">
        <ele>293.462109</ele>
        <time>2021-11-13T14:37:11.012Z</time>
      </trkpt>
      <trkpt lat="47.551788" lon="7.926512">
        <ele>293.499553</ele>
        <time>2021-11-13T14:37:13.015Z</time>
      </trkpt>
      <trkpt lat="47.552250" lon="7.926787">
        <ele>293.662422</ele>
        <time>2021-11-13T14:37:20.770Z</time>
      </trkpt>
      <trkpt lat="47.552388" lon="7.926860">
        <ele>293.710356</ele>
        <time>2021-11-13T14:37:23.199Z</time>
      </trkpt>
      <trkpt lat="47.552729" lon="7.927061">
        <ele>293.815585</ele>
        <time>2021-11-13T14:37:29.221Z</time>
      </trkpt>
      <trkpt lat="47.552928" lon="7.927209">
        <ele>293.863566</ele>
        <time>2021-11-13T14:37:32.857Z</time>
      </trkpt>
      <trkpt lat="47.553166" lon="7.927389">
        <ele>293.921147</ele>
        <time>2021-11-13T14:37:37.446Z</time>
      </trkpt>
      <trkpt lat="47.553221" lon="7.927438">
        <ele>293.934976</ele>
        <time>2021-11-13T14:37:38.398Z</time>
      </trkpt>
      <trkpt lat="47.553257" lon="7.927322">
        <ele>293.953544</ele>
        <time>2021-11-13T14:37:39.836Z</time>
      </trkpt>
      <trkpt lat="47.553294" lon="7.927186">
        <ele>293.974870</ele>
        <time>2021-11-13T14:37:41.476Z</time>
      </trkpt>
      <trkpt lat="47.553381" lon="7.926895">
        <ele>294.021157</ele>
        <time>2021-11-13T14:37:44.822Z</time>
      </trkpt>
      <trkpt lat="47.553408" lon="7.926803">
        <ele>294.035747</ele>
        <time>2021-11-13T14:37:45.929Z</time>
      </trkpt>
      <trkpt lat="47.553539" lon="7.926451">
        <ele>294.094207</ele>
        <time>2021-11-13T14:37:50.067Z</time>
      </trkpt>
      <trkpt lat="47.553765" lon="7.925823">
        <ele>294.162122</ele>
        <time>2021-11-13T14:37:57.060Z</time>
      </trkpt>
      <trkpt lat="47.553834" lon="7.925632">
        <ele>294.145196</ele>
        <time>2021-11-13T14:37:59.211Z</time>
      </trkpt>
      <trkpt lat="47.554122" lon="7.924956">
        <ele>294.082737</ele>
        <time>2021-11-13T14:38:06.905Z</time>
      </trkpt>
      <trkpt lat="47.554226" lon="7.924713">
        <ele>294.060255</ele>
        <time>2021-11-13T14:38:09.729Z</time>
      </trkpt>
      <trkpt lat="47.554705" lon="7.923835">
        <ele>293.972047</ele>
        <time>2021-11-13T14:38:20.573Z</time>
      </trkpt>
      <trkpt lat="47.555272" lon="7.922934">
        <ele>293.839694</ele>
        <time>2021-11-13T14:38:32.173Z</time>
      </trkpt>
      <trkpt lat="47.556542" lon="7.921551">
        <ele>293.627750</ele>
        <time>2021-11-13T14:38:54.887Z</time>
      </trkpt>
      <trkpt lat="47.557147" lon="7.921064">
        <ele>293.569508</ele>
        <time>2021-11-13T14:39:05.051Z</time>
      </trkpt>
      <trkpt lat="47.558098" lon="7.920440">
        <ele>293.323120</ele>
        <time>2021-11-13T14:39:20.239Z</time>
      </trkpt>
      <trkpt lat="47.561244" lon="7.918902">
        <ele>291.400093</ele>
        <time>2021-11-13T14:40:03.682Z</time>
      </trkpt>
      <trkpt lat="47.561405" lon="7.918835">
        <ele>291.180623</ele>
        <time>2021-11-13T14:40:05.593Z</time>
      </trkpt>
      <trkpt lat="47.561792" lon="7.918633">
        <ele>290.642140</ele>
        <time>2021-11-13T14:40:10.279Z</time>
      </trkpt>
      <trkpt lat="47.562098" lon="7.918473">
        <ele>290.216280</ele>
        <time>2021-11-13T14:40:14.013Z</time>
      </trkpt>
      <trkpt lat="47.562192" lon="7.918413">
        <ele>290.081958</ele>
        <time>2021-11-13T14:40:15.169Z</time>
      </trkpt>
      <trkpt lat="47.562330" lon="7.918325">
        <ele>289.884791</ele>
        <time>2021-11-13T14:40:16.925Z</time>
      </trkpt>
      <trkpt lat="47.562491" lon="7.918206">
        <ele>289.648672</ele>
        <time>2021-11-13T14:40:18.963Z</time>
      </trkpt>
      <trkpt lat="47.562766" lon="7.918001">
        <ele>289.283405</ele>
        <time>2021-11-13T14:40:22.547Z</time>
      </trkpt>
      <trkpt lat="47.562783" lon="7.917983">
        <ele>289.272623</ele>
        <time>2021-11-13T14:40:22.766Z</time>
      </trkpt>
      <trkpt lat="47.563304" lon="7.917434">
        <ele>288.942709</ele>
        <time>2021-11-13T14:40:30.510Z</time>
      </trkpt>
      <trkpt lat="47.563485" lon="7.917258">
        <ele>288.830988</ele>
        <time>2021-11-13T14:40:33.364Z</time>
      </trkpt>
      <trkpt lat="47.564482" lon="7.916219">
        <ele>288.448339</ele>
        <time>2021-11-13T14:40:51.745Z</time>
      </trkpt>
      <trkpt lat="47.564500" lon="7.916200">
        <ele>288.452692</ele>
        <time>2021-11-13T14:40:52.099Z</time>
      </trkpt>
      <trkpt lat="47.564526" lon="7.916174">
        <ele>288.458872</ele>
        <time>2021-11-13T14:40:52.586Z</time>
      </trkpt>
      <trkpt lat="47.564899" lon="7.915798">
        <ele>288.547744</ele>
        <time>2021-11-13T14:40:59.779Z</time>
      </trkpt>
      <trkpt lat="47.565627" lon="7.915066">
        <ele>288.721062</ele>
        <time>2021-11-13T14:41:13.671Z</time>
      </trkpt>
      <trkpt lat="47.565672" lon="7.915025">
        <ele>288.731469</ele>
        <time>2021-11-13T14:41:14.509Z</time>
      </trkpt>
      <trkpt lat="47.565748" lon="7.914949">
        <ele>288.722052</ele>
        <time>2021-11-13T14:41:15.965Z</time>
      </trkpt>
      <trkpt lat="47.565830" lon="7.914880">
        <ele>288.706373</ele>
        <time>2021-11-13T14:41:17.471Z</time>
      </trkpt>
      <trkpt lat="47.565995" lon="7.914739">
        <ele>288.674705</ele>
        <time>2021-11-13T14:41:20.396Z</time>
      </trkpt>
      <trkpt lat="47.566025" lon="7.914720">
        <ele>288.669281</ele>
        <time>2021-11-13T14:41:20.826Z</time>
      </trkpt>
      <trkpt lat="47.566096" lon="7.914676">
        <ele>288.656485</ele>
        <time>2021-11-13T14:41:22.008Z</time>
      </trkpt>
      <trkpt lat="47.566250" lon="7.914580">
        <ele>288.628707</ele>
        <time>2021-11-13T14:41:24.528Z</time>
      </trkpt>
      <trkpt lat="47.566474" lon="7.914468">
        <ele>288.589401</ele>
        <time>2021-11-13T14:41:27.839Z</time>
      </trkpt>
      <trkpt lat="47.566489" lon="7.914461">
        <ele>288.586786</ele>
        <time>2021-11-13T14:41:28.079Z</time>
      </trkpt>
      <trkpt lat="47.566534" lon="7.914439">
        <ele>288.578907</ele>
        <time>2021-11-13T14:41:28.755Z</time>
      </trkpt>
      <trkpt lat="47.566601" lon="7.914411">
        <ele>288.567333</ele>
        <time>2021-11-13T14:41:29.770Z</time>
      </trkpt>
      <trkpt lat="47.566984" lon="7.914229">
        <ele>288.500459</ele>
        <time>2021-11-13T14:41:35.304Z</time>
      </trkpt>
      <trkpt lat="47.567335" lon="7.914048">
        <ele>288.438667</ele>
        <time>2021-11-13T14:41:40.234Z</time>
      </trkpt>
      <trkpt lat="47.567374" lon="7.914028">
        <ele>288.425474</ele>
        <time>2021-11-13T14:41:40.714Z</time>
      </trkpt>
      <trkpt lat="47.568301" lon="7.913554">
        <ele>287.988300</ele>
        <time>2021-11-13T14:41:53.716Z</time>
      </trkpt>
      <trkpt lat="47.568566" lon="7.913414">
        <ele>287.862878</ele>
        <time>2021-11-13T14:41:57.422Z</time>
      </trkpt>
      <trkpt lat="47.569155" lon="7.913298">
        <ele>287.638521</ele>
        <time>2021-11-13T14:42:05.462Z</time>
      </trkpt>
      <trkpt lat="47.569682" lon="7.913220">
        <ele>287.670330</ele>
        <time>2021-11-13T14:42:13.032Z</time>
      </trkpt>
      <trkpt lat="47.571638" lon="7.913041">
        <ele>287.679327</ele>
        <time>2021-11-13T14:42:43.608Z</time>
      </trkpt>
      <trkpt lat="47.571807" lon="7.913030">
        <ele>287.665631</ele>
        <time>2021-11-13T14:42:46.260Z</time>
      </trkpt>
      <trkpt lat="47.571801" lon="7.912878">
        <ele>287.657315</ele>
        <time>2021-11-13T14:42:47.778Z</time>
      </trkpt>
      <trkpt lat="47.571815" lon="7.912822">
        <ele>287.654053</ele>
        <time>2021-11-13T14:42:48.365Z</time>
      </trkpt>
      <trkpt lat="47.571842" lon="7.912780">
        <ele>287.650884</ele>
        <time>2021-11-13T14:42:48.847Z</time>
      </trkpt>
      <trkpt lat="47.572195" lon="7.912650">
        <ele>287.621436</ele>
        <time>2021-11-13T14:42:54.016Z</time>
      </trkpt>
      <trkpt lat="47.572843" lon="7.912399">
        <ele>287.359049</ele>
        <time>2021-11-13T14:43:03.068Z</time>
      </trkpt>
      <trkpt lat="47.572921" lon="7.912369">
        <ele>287.305538</ele>
        <time>2021-11-13T14:43:04.025Z</time>
      </trkpt>
      <trkpt lat="47.573759" lon="7.912034">
        <ele>286.729186</ele>
        <time>2021-11-13T14:43:15.026Z</time>
      </trkpt>
      <trkpt lat="47.573998" lon="7.911915">
        <ele>286.561765</ele>
        <time>2021-11-13T14:43:18.143Z</time>
      </trkpt>
      <trkpt lat="47.574566" lon="7.911447">
        <ele>286.195856</ele>
        <time>2021-11-13T14:43:26.468Z</time>
      </trkpt>
      <trkpt lat="47.574901" lon="7.911251">
        <ele>286.014503</ele>
        <time>2021-11-13T14:43:31.154Z</time>
      </trkpt>
      <trkpt lat="47.575508" lon="7.910912">
        <ele>285.687878</ele>
        <time>2021-11-13T14:43:39.782Z</time>
      </trkpt>
      <trkpt lat="47.575539" lon="7.910898">
        <ele>285.671559</ele>
        <time>2021-11-13T14:43:40.292Z</time>
      </trkpt>
      <trkpt lat="47.575854" lon="7.910743">
        <ele>285.504432</ele>
        <time>2021-11-13T14:43:44.798Z</time>
      </trkpt>
      <trkpt lat="47.576932" lon="7.910134">
        <ele>285.588014</ele>
        <time>2021-11-13T14:44:01.784Z</time>
      </trkpt>
      <trkpt lat="47.577424" lon="7.909886">
        <ele>285.630053</ele>
        <time>2021-11-13T14:44:09.939Z</time>
      </trkpt>
      <trkpt lat="47.577771" lon="7.909710">
        <ele>285.760914</ele>
        <time>2021-11-13T14:44:16.031Z</time>
      </trkpt>
      <trkpt lat="47.578895" lon="7.909087">
        <ele>286.398309</ele>
        <time>2021-11-13T14:44:36.721Z</time>
      </trkpt>
      <trkpt lat="47.579056" lon="7.908962">
        <ele>286.494846</ele>
        <time>2021-11-13T14:44:40.185Z</time>
      </trkpt>
      <trkpt lat="47.579708" lon="7.908314">
        <ele>286.442626</ele>
        <time>2021-11-13T14:44:53.099Z</time>
      </trkpt>
      <trkpt lat="47.580105" lon="7.908168">
        <ele>286.336169</ele>
        <time>2021-11-13T14:44:58.848Z</time>
      </trkpt>
      <trkpt lat="47.580194" lon="7.908192">
        <ele>286.312625</ele>
        <time>2021-11-13T14:45:00.012Z</time>
      </trkpt>
      <trkpt lat="47.580422" lon="7.908273">
        <ele>286.251604</ele>
        <time>2021-11-13T14:45:03.142Z</time>
      </trkpt>
      <trkpt lat="47.580470" lon="7.908164">
        <ele>286.228751</ele>
        <time>2021-11-13T14:45:04.131Z</time>
      </trkpt>
      <trkpt lat="47.580552" lon="7.908081">
        <ele>286.202909</ele>
        <time>2021-11-13T14:45:05.498Z</time>
      </trkpt>
      <trkpt lat="47.581568" lon="7.907612">
        <ele>285.319773</ele>
        <time>2021-11-13T14:45:18.356Z</time>
      </trkpt>
      <trkpt lat="47.581793" lon="7.907472">
        <ele>285.066463</ele>
        <time>2021-11-13T14:45:21.127Z</time>
      </trkpt>
      <trkpt lat="47.582248" lon="7.907090">
        <ele>284.523648</ele>
        <time>2021-11-13T14:45:27.340Z</time>
      </trkpt>
      <trkpt lat="47.582657" lon="7.906618">
        <ele>284.477090</ele>
        <time>2021-11-13T14:45:33.974Z</time>
      </trkpt>
      <trkpt lat="47.582951" lon="7.906415">
        <ele>284.739886</ele>
        <time>2021-11-13T14:45:38.902Z</time>
      </trkpt>
      <trkpt lat="47.583077" lon="7.906399">
        <ele>284.842357</ele>
        <time>2021-11-13T14:45:40.781Z</time>
      </trkpt>
      <trkpt lat="47.583245" lon="7.906443">
        <ele>284.980594</ele>
        <time>2021-11-13T14:45:44.194Z</time>
      </trkpt>
      <trkpt lat="47.583451" lon="7.906619">
        <ele>285.173248</ele>
        <time>2021-11-13T14:45:48.736Z</time>
      </trkpt>
      <trkpt lat="47.583711" lon="7.906911">
        <ele>285.437548</ele>
        <time>2021-11-13T14:45:55.478Z</time>
      </trkpt>
      <trkpt lat="47.583887" lon="7.907113">
        <ele>285.617900</ele>
        <time>2021-11-13T14:46:00.461Z</time>
      </trkpt>
      <trkpt lat="47.584719" lon="7.908091">
        <ele>288.293541</ele>
        <time>2021-11-13T14:46:26.083Z</time>
      </trkpt>
      <trkpt lat="47.585084" lon="7.908692">
        <ele>289.792390</ele>
        <time>2021-11-13T14:46:40.769Z</time>
      </trkpt>
      <trkpt lat="47.585149" lon="7.908804">
        <ele>290.066225</ele>
        <time>2021-11-13T14:46:43.725Z</time>
      </trkpt>
      <trkpt lat="47.585222" lon="7.908901">
        <ele>290.335582</ele>
        <time>2021-11-13T14:46:46.887Z</time>
      </trkpt>
      <trkpt lat="47.585337" lon="7.909031">
        <ele>290.771434</ele>
        <time>2021-11-13T14:46:51.066Z</time>
      </trkpt>
      <trkpt lat="47.585078" lon="7.909509">
        <ele>292.517911</ele>
        <time>2021-11-13T14:47:03.105Z</time>
      </trkpt>
      <trkpt lat="47.585045" lon="7.909674">
        <ele>293.008132</ele>
        <time>2021-11-13T14:47:06.517Z</time>
      </trkpt>
      <trkpt lat="47.585051" lon="7.909751">
        <ele>293.228921</ele>
        <time>2021-11-13T14:47:08.373Z</time>
      </trkpt>
      <trkpt lat="47.585066" lon="7.909809">
        <ele>293.405859</ele>
        <time>2021-11-13T14:47:09.654Z</time>
      </trkpt>
      <trkpt lat="47.585093" lon="7.909869">
        <ele>293.611311</ele>
        <time>2021-11-13T14:47:10.986Z</time>
      </trkpt>
      <trkpt lat="47.585157" lon="7.909965">
        <ele>293.995792</ele>
        <time>2021-11-13T14:47:13.363Z</time>
      </trkpt>
      <trkpt lat="47.585271" lon="7.910136">
        <ele>294.680647</ele>
        <time>2021-11-13T14:47:18.334Z</time>
      </trkpt>
      <trkpt lat="47.585430" lon="7.910346">
        <ele>295.579914</ele>
        <time>2021-11-13T14:47:25.256Z</time>
      </trkpt>
      <trkpt lat="47.585610" lon="7.910640">
        <ele>296.710903</ele>
        <time>2021-11-13T14:47:34.885Z</time>
      </trkpt>
      <trkpt lat="47.586028" lon="7.911561">
        <ele>299.613940</ele>
        <time>2021-11-13T14:48:00.965Z</time>
      </trkpt>
      <trkpt lat="47.586263" lon="7.911881">
        <ele>300.745465</ele>
        <time>2021-11-13T14:48:11.221Z</time>
      </trkpt>
      <trkpt lat="47.586433" lon="7.912047">
        <ele>301.467333</ele>
        <time>2021-11-13T14:48:17.799Z</time>
      </trkpt>
      <trkpt lat="47.586622" lon="7.912140">
        <ele>302.173525</ele>
        <time>2021-11-13T14:48:23.520Z</time>
      </trkpt>
      <trkpt lat="47.586917" lon="7.912301">
        <ele>303.288297</ele>
        <time>2021-11-13T14:48:31.378Z</time>
      </trkpt>
      <trkpt lat="47.587725" lon="7.912508">
        <ele>304.971062</ele>
        <time>2021-11-13T14:48:50.072Z</time>
      </trkpt>
      <trkpt lat="47.587897" lon="7.912517">
        <ele>305.102281</ele>
        <time>2021-11-13T14:48:53.628Z</time>
      </trkpt>
      <trkpt lat="47.588907" lon="7.912607">
        <ele>305.873719</ele>
        <time>2021-11-13T14:49:09.086Z</time>
      </trkpt>
      <trkpt lat="47.589326" lon="7.912720">
        <ele>306.117122</ele>
        <time>2021-11-13T14:49:15.425Z</time>
      </trkpt>
      <trkpt lat="47.589873" lon="7.912855">
        <ele>306.360467</ele>
        <time>2021-11-13T14:49:23.925Z</time>
      </trkpt>
      <trkpt lat="47.590231" lon="7.912830">
        <ele>306.517745</ele>
        <time>2021-11-13T14:49:29.648Z</time>
      </trkpt>
      <trkpt lat="47.590570" lon="7.912784">
        <ele>306.667132</ele>
        <time>2021-11-13T14:49:35.769Z</time>
      </trkpt>
      <trkpt lat="47.591044" lon="7.912710">
        <ele>307.015026</ele>
        <time>2021-11-13T14:49:44.843Z</time>
      </trkpt>
      <trkpt lat="47.591348" lon="7.912662">
        <ele>307.381537</ele>
        <time>2021-11-13T14:49:50.924Z</time>
      </trkpt>
      <trkpt lat="47.591443" lon="7.912678">
        <ele>307.496160</ele>
        <time>2021-11-13T14:49:52.503Z</time>
      </trkpt>
      <trkpt lat="47.591605" lon="7.912829">
        <ele>307.725560</ele>
        <time>2021-11-13T14:49:56.747Z</time>
      </trkpt>
      <trkpt lat="47.591714" lon="7.913064">
        <ele>307.956161</ele>
        <time>2021-11-13T14:50:00.053Z</time>
      </trkpt>
      <trkpt lat="47.591721" lon="7.913096">
        <ele>307.983360</ele>
        <time>2021-11-13T14:50:00.438Z</time>
      </trkpt>
      <trkpt lat="47.591746" lon="7.913330">
        <ele>308.174912</ele>
        <time>2021-11-13T14:50:04.164Z</time>
      </trkpt>
      <trkpt lat="47.591809" lon="7.913704">
        <ele>308.486587</ele>
        <time>2021-11-13T14:50:08.382Z</time>
      </trkpt>
      <trkpt lat="47.591858" lon="7.913783">
        <ele>308.573366</ele>
        <time>2021-11-13T14:50:10.294Z</time>
      </trkpt>
      <trkpt lat="47.591953" lon="7.913843">
        <ele>308.697158</ele>
        <time>2021-11-13T14:50:12.290Z</time>
      </trkpt>
      <trkpt lat="47.592496" lon="7.914014">
        <ele>309.629949</ele>
        <time>2021-11-13T14:50:23.246Z</time>
      </trkpt>
      <trkpt lat="47.592589" lon="7.914035">
        <ele>309.816223</ele>
        <time>2021-11-13T14:50:26.266Z</time>
      </trkpt>
      <trkpt lat="47.592672" lon="7.914009">
        <ele>309.984200</ele>
        <time>2021-11-13T14:50:27.929Z</time>
      </trkpt>
      <trkpt lat="47.592807" lon="7.913929">
        <ele>310.272073</ele>
        <time>2021-11-13T14:50:30.392Z</time>
      </trkpt>
      <trkpt lat="47.593189" lon="7.913725">
        <ele>311.076038</ele>
        <time>2021-11-13T14:50:39.835Z</time>
      </trkpt>
      <trkpt lat="47.593511" lon="7.913649">
        <ele>311.721663</ele>
        <time>2021-11-13T14:50:47.768Z</time>
      </trkpt>
      <trkpt lat="47.593654" lon="7.913672">
        <ele>312.006481</ele>
        <time>2021-11-13T14:50:51.513Z</time>
      </trkpt>
      <trkpt lat="47.594163" lon="7.913924">
        <ele>313.110828</ele>
        <time>2021-11-13T14:51:04.668Z</time>
      </trkpt>
      <trkpt lat="47.594719" lon="7.914022">
        <ele>314.302969</ele>
        <time>2021-11-13T14:51:18.511Z</time>
      </trkpt>
      <trkpt lat="47.594871" lon="7.914141">
        <ele>314.668936</ele>
        <time>2021-11-13T14:51:22.488Z</time>
      </trkpt>
      <trkpt lat="47.595031" lon="7.914316">
        <ele>315.092242</ele>
        <time>2021-11-13T14:51:27.362Z</time>
      </trkpt>
      <trkpt lat="47.595292" lon="7.914664">
        <ele>315.839556</ele>
        <time>2021-11-13T14:51:34.989Z</time>
      </trkpt>
      <trkpt lat="47.595476" lon="7.914889">
        <ele>316.345586</ele>
        <time>2021-11-13T14:51:40.075Z</time>
      </trkpt>
      <trkpt lat="47.595688" lon="7.915084">
        <ele>316.627637</ele>
        <time>2021-11-13T14:51:45.508Z</time>
      </trkpt>
      <trkpt lat="47.595861" lon="7.915155">
        <ele>316.830581</ele>
        <time>2021-11-13T14:51:49.028Z</time>
      </trkpt>
      <trkpt lat="47.595909" lon="7.915188">
        <ele>316.890398</ele>
        <time>2021-11-13T14:51:50.110Z</time>
      </trkpt>
      <trkpt lat="47.595949" lon="7.915202">
        <ele>316.936864</ele>
        <time>2021-11-13T14:51:51.042Z</time>
      </trkpt>
      <trkpt lat="47.596117" lon="7.915243">
        <ele>317.129358</ele>
        <time>2021-11-13T14:51:54.638Z</time>
      </trkpt>
      <trkpt lat="47.596349" lon="7.915301">
        <ele>317.395356</ele>
        <time>2021-11-13T14:51:59.068Z</time>
      </trkpt>
      <trkpt lat="47.596736" lon="7.915598">
        <ele>317.888015</ele>
        <time>2021-11-13T14:52:06.906Z</time>
      </trkpt>
      <trkpt lat="47.596850" lon="7.915674">
        <ele>318.029328</ele>
        <time>2021-11-13T14:52:08.896Z</time>
      </trkpt>
      <trkpt lat="47.597083" lon="7.915733">
        <ele>318.296568</ele>
        <time>2021-11-13T14:52:13.028Z</time>
      </trkpt>
      <trkpt lat="47.597656" lon="7.915778">
        <ele>318.945150</ele>
        <time>2021-11-13T14:52:23.201Z</time>
      </trkpt>
      <trkpt lat="47.599120" lon="7.915596">
        <ele>320.539553</ele>
        <time>2021-11-13T14:52:53.173Z</time>
      </trkpt>
      <trkpt lat="47.599374" lon="7.915625">
        <ele>320.730129</ele>
        <time>2021-11-13T14:52:57.904Z</time>
      </trkpt>
      <trkpt lat="47.599906" lon="7.915798">
        <ele>321.137566</ele>
        <time>2021-11-13T14:53:07.711Z</time>
      </trkpt>
      <trkpt lat="47.600078" lon="7.915859">
        <ele>321.269864</ele>
        <time>2021-11-13T14:53:10.793Z</time>
      </trkpt>
      <trkpt lat="47.600078" lon="7.915859">
        <ele>321.269864</ele>
        <time>2021-11-13T14:53:10.794Z</time>
      </trkpt>
      <trkpt lat="47.600344" lon="7.915900">
        <ele>321.469927</ele>
        <time>2021-11-13T14:53:15.294Z</time>
      </trkpt>
      <trkpt lat="47.600545" lon="7.915898">
        <ele>321.620295</ele>
        <time>2021-11-13T14:53:18.749Z</time>
      </trkpt>
      <trkpt lat="47.600689" lon="7.915853">
        <ele>321.730385</ele>
        <time>2021-11-13T14:53:21.087Z</time>
      </trkpt>
      <trkpt lat="47.601054" lon="7.915633">
        <ele>321.913021</ele>
        <time>2021-11-13T14:53:27.508Z</time>
      </trkpt>
      <trkpt lat="47.601546" lon="7.915285">
        <ele>322.151163</ele>
        <time>2021-11-13T14:53:35.913Z</time>
      </trkpt>
      <trkpt lat="47.602131" lon="7.915025">
        <ele>322.417971</ele>
        <time>2021-11-13T14:53:45.595Z</time>
      </trkpt>
      <trkpt lat="47.602754" lon="7.914823">
        <ele>323.016947</ele>
        <time>2021-11-13T14:53:57.411Z</time>
      </trkpt>
      <trkpt lat="47.602915" lon="7.914793">
        <ele>323.234234</ele>
        <time>2021-11-13T14:54:00.520Z</time>
      </trkpt>
      <trkpt lat="47.603302" lon="7.914722">
        <ele>323.756406</ele>
        <time>2021-11-13T14:54:08.555Z</time>
      </trkpt>
      <trkpt lat="47.603466" lon="7.914620">
        <ele>323.994543</ele>
        <time>2021-11-13T14:54:12.464Z</time>
      </trkpt>
      <trkpt lat="47.603615" lon="7.914449">
        <ele>324.246825</ele>
        <time>2021-11-13T14:54:16.420Z</time>
      </trkpt>
      <trkpt lat="47.603884" lon="7.914671">
        <ele>324.659048</ele>
        <time>2021-11-13T14:54:23.132Z</time>
      </trkpt>
      <trkpt lat="47.604062" lon="7.914772">
        <ele>324.914252</ele>
        <time>2021-11-13T14:54:27.326Z</time>
      </trkpt>
      <trkpt lat="47.604393" lon="7.914885">
        <ele>325.400934</ele>
        <time>2021-11-13T14:54:34.334Z</time>
      </trkpt>
      <trkpt lat="47.604722" lon="7.914915">
        <ele>325.875873</ele>
        <time>2021-11-13T14:54:40.960Z</time>
      </trkpt>
      <trkpt lat="47.605105" lon="7.914869">
        <ele>326.429530</ele>
        <time>2021-11-13T14:54:48.860Z</time>
      </trkpt>
      <trkpt lat="47.605408" lon="7.914750">
        <ele>326.881158</ele>
        <time>2021-11-13T14:54:55.525Z</time>
      </trkpt>
      <trkpt lat="47.605648" lon="7.914613">
        <ele>327.251692</ele>
        <time>2021-11-13T14:55:00.892Z</time>
      </trkpt>
      <trkpt lat="47.605929" lon="7.914457">
        <ele>327.652287</ele>
        <time>2021-11-13T14:55:06.808Z</time>
      </trkpt>
      <trkpt lat="47.606200" lon="7.914255">
        <ele>327.991986</ele>
        <time>2021-11-13T14:55:12.629Z</time>
      </trkpt>
      <trkpt lat="47.606450" lon="7.914067">
        <ele>328.305923</ele>
        <time>2021-11-13T14:55:17.893Z</time>
      </trkpt>
      <trkpt lat="47.606558" lon="7.913988">
        <ele>328.440795</ele>
        <time>2021-11-13T14:55:20.092Z</time>
      </trkpt>
      <trkpt lat="47.606706" lon="7.913869">
        <ele>328.629348</ele>
        <time>2021-11-13T14:55:23.225Z</time>
      </trkpt>
      <trkpt lat="47.606938" lon="7.913697">
        <ele>328.919844</ele>
        <time>2021-11-13T14:55:28.047Z</time>
      </trkpt>
      <trkpt lat="47.607292" lon="7.913435">
        <ele>329.362950</ele>
        <time>2021-11-13T14:55:35.671Z</time>
      </trkpt>
      <trkpt lat="47.607663" lon="7.913198">
        <ele>329.883977</ele>
        <time>2021-11-13T14:55:43.921Z</time>
      </trkpt>
      <trkpt lat="47.608679" lon="7.912703">
        <ele>331.398593</ele>
        <time>2021-11-13T14:56:06.073Z</time>
      </trkpt>
      <trkpt lat="47.609914" lon="7.912278">
        <ele>333.038720</ele>
        <time>2021-11-13T14:56:32.096Z</time>
      </trkpt>
      <trkpt lat="47.610416" lon="7.911983">
        <ele>333.694457</ele>
        <time>2021-11-13T14:56:43.359Z</time>
      </trkpt>
      <trkpt lat="47.611260" lon="7.911383">
        <ele>334.249094</ele>
        <time>2021-11-13T14:57:00.006Z</time>
      </trkpt>
      <trkpt lat="47.611609" lon="7.911182">
        <ele>334.216691</ele>
        <time>2021-11-13T14:57:05.273Z</time>
      </trkpt>
      <trkpt lat="47.612029" lon="7.910940">
        <ele>334.177693</ele>
        <time>2021-11-13T14:57:11.481Z</time>
      </trkpt>
      <trkpt lat="47.612005" lon="7.910790">
        <ele>334.168698</ele>
        <time>2021-11-13T14:57:12.778Z</time>
      </trkpt>
      <trkpt lat="47.611994" lon="7.910676">
        <ele>334.161979</ele>
        <time>2021-11-13T14:57:13.848Z</time>
      </trkpt>
      <trkpt lat="47.611988" lon="7.910610">
        <ele>334.158093</ele>
        <time>2021-11-13T14:57:14.362Z</time>
      </trkpt>
      <trkpt lat="47.611981" lon="7.910534">
        <ele>334.153617</ele>
        <time>2021-11-13T14:57:15.000Z</time>
      </trkpt>
      <trkpt lat="47.611986" lon="7.910466">
        <ele>334.149626</ele>
        <time>2021-11-13T14:57:15.758Z</time>
      </trkpt>
      <trkpt lat="47.612020" lon="7.910364">
        <ele>334.142987</ele>
        <time>2021-11-13T14:57:16.776Z</time>
      </trkpt>
      <trkpt lat="47.612082" lon="7.910269">
        <ele>334.135272</ele>
        <time>2021-11-13T14:57:17.932Z</time>
      </trkpt>
      <trkpt lat="47.612131" lon="7.910214">
        <ele>334.102632</ele>
        <time>2021-11-13T14:57:18.720Z</time>
      </trkpt>
      <trkpt lat="47.612216" lon="7.910134">
        <ele>333.984903</ele>
        <time>2021-11-13T14:57:19.958Z</time>
      </trkpt>
      <trkpt lat="47.612897" lon="7.909812">
        <ele>333.148993</ele>
        <time>2021-11-13T14:57:28.885Z</time>
      </trkpt>
      <trkpt lat="47.613280" lon="7.909624">
        <ele>332.677189</ele>
        <time>2021-11-13T14:57:33.472Z</time>
      </trkpt>
      <trkpt lat="47.613360" lon="7.909602">
        <ele>332.582035</ele>
        <time>2021-11-13T14:57:34.407Z</time>
      </trkpt>
      <trkpt lat="47.613934" lon="7.909339">
        <ele>331.920642</ele>
        <time>2021-11-13T14:57:41.242Z</time>
      </trkpt>
      <trkpt lat="47.614063" lon="7.909285">
        <ele>331.807169</ele>
        <time>2021-11-13T14:57:42.857Z</time>
      </trkpt>
      <trkpt lat="47.614412" lon="7.909095">
        <ele>331.492445</ele>
        <time>2021-11-13T14:57:47.381Z</time>
      </trkpt>
      <trkpt lat="47.614784" lon="7.908839">
        <ele>331.145282</ele>
        <time>2021-11-13T14:57:52.590Z</time>
      </trkpt>
      <trkpt lat="47.614876" lon="7.908760">
        <ele>331.055290</ele>
        <time>2021-11-13T14:57:54.003Z</time>
      </trkpt>
      <trkpt lat="47.615085" lon="7.908567">
        <ele>330.846874</ele>
        <time>2021-11-13T14:57:57.146Z</time>
      </trkpt>
      <trkpt lat="47.615246" lon="7.908385">
        <ele>330.675512</ele>
        <time>2021-11-13T14:57:59.848Z</time>
      </trkpt>
      <trkpt lat="47.615374" lon="7.908222">
        <ele>330.532701</ele>
        <time>2021-11-13T14:58:01.964Z</time>
      </trkpt>
      <trkpt lat="47.615460" lon="7.908111">
        <ele>330.564114</ele>
        <time>2021-11-13T14:58:03.482Z</time>
      </trkpt>
      <trkpt lat="47.615669" lon="7.907870">
        <ele>330.751025</ele>
        <time>2021-11-13T14:58:07.041Z</time>
      </trkpt>
      <trkpt lat="47.615821" lon="7.907747">
        <ele>330.873279</ele>
        <time>2021-11-13T14:58:09.498Z</time>
      </trkpt>
      <trkpt lat="47.615946" lon="7.907692">
        <ele>330.965340</ele>
        <time>2021-11-13T14:58:11.308Z</time>
      </trkpt>
      <trkpt lat="47.616009" lon="7.907686">
        <ele>331.009915</ele>
        <time>2021-11-13T14:58:12.523Z</time>
      </trkpt>
      <trkpt lat="47.616124" lon="7.907729">
        <ele>331.093654</ele>
        <time>2021-11-13T14:58:14.538Z</time>
      </trkpt>
      <trkpt lat="47.616604" lon="7.908203">
        <ele>331.500797</ele>
        <time>2021-11-13T14:58:25.966Z</time>
      </trkpt>
      <trkpt lat="47.616832" lon="7.908284">
        <ele>331.666336</ele>
        <time>2021-11-13T14:58:31.045Z</time>
      </trkpt>
      <trkpt lat="47.617086" lon="7.908230">
        <ele>332.039409</ele>
        <time>2021-11-13T14:58:36.562Z</time>
      </trkpt>
      <trkpt lat="47.617238" lon="7.908130">
        <ele>332.471564</ele>
        <time>2021-11-13T14:58:39.984Z</time>
      </trkpt>
      <trkpt lat="47.617957" lon="7.907285">
        <ele>334.855584</ele>
        <time>2021-11-13T14:59:02.182Z</time>
      </trkpt>
      <trkpt lat="47.618459" lon="7.907087">
        <ele>336.205615</ele>
        <time>2021-11-13T14:59:16.973Z</time>
      </trkpt>
      <trkpt lat="47.618470" lon="7.907083">
        <ele>336.235050</ele>
        <time>2021-11-13T14:59:17.625Z</time>
      </trkpt>
      <trkpt lat="47.618579" lon="7.906988">
        <ele>336.599554</ele>
        <time>2021-11-13T14:59:20.867Z</time>
      </trkpt>
      <trkpt lat="47.618694" lon="7.906865">
        <ele>337.085239</ele>
        <time>2021-11-13T14:59:25.142Z</time>
      </trkpt>
      <trkpt lat="47.618719" lon="7.906838">
        <ele>337.191176</ele>
        <time>2021-11-13T14:59:26.318Z</time>
      </trkpt>
      <trkpt lat="47.618867" lon="7.906514">
        <ele>338.094978</ele>
        <time>2021-11-13T14:59:33.429Z</time>
      </trkpt>
      <trkpt lat="47.618888" lon="7.906392">
        <ele>338.385743</ele>
        <time>2021-11-13T14:59:36.532Z</time>
      </trkpt>
      <trkpt lat="47.618920" lon="7.906208">
        <ele>338.824553</ele>
        <time>2021-11-13T14:59:40.588Z</time>
      </trkpt>
      <trkpt lat="47.618976" lon="7.905535">
        <ele>340.390451</ele>
        <time>2021-11-13T14:59:52.745Z</time>
      </trkpt>
      <trkpt lat="47.619155" lon="7.905319">
        <ele>341.180916</ele>
        <time>2021-11-13T15:00:00.216Z</time>
      </trkpt>
      <trkpt lat="47.619299" lon="7.905308">
        <ele>341.674891</ele>
        <time>2021-11-13T15:00:03.461Z</time>
      </trkpt>
      <trkpt lat="47.619447" lon="7.905300">
        <ele>342.182251</ele>
        <time>2021-11-13T15:00:08.579Z</time>
      </trkpt>
      <trkpt lat="47.620426" lon="7.905244">
        <ele>344.747534</ele>
        <time>2021-11-13T15:00:34.261Z</time>
      </trkpt>
      <trkpt lat="47.620699" lon="7.905223">
        <ele>345.430851</ele>
        <time>2021-11-13T15:00:40.717Z</time>
      </trkpt>
      <trkpt lat="47.621107" lon="7.905191">
        <ele>346.452127</ele>
        <time>2021-11-13T15:00:50.289Z</time>
      </trkpt>
      <trkpt lat="47.621248" lon="7.905159">
        <ele>346.808676</ele>
        <time>2021-11-13T15:00:53.524Z</time>
      </trkpt>
      <trkpt lat="47.622235" lon="7.904957">
        <ele>348.452252</ele>
        <time>2021-11-13T15:01:15.601Z</time>
      </trkpt>
      <trkpt lat="47.622424" lon="7.904919">
        <ele>348.744692</ele>
        <time>2021-11-13T15:01:19.638Z</time>
      </trkpt>
      <trkpt lat="47.622648" lon="7.904863">
        <ele>349.092990</ele>
        <time>2021-11-13T15:01:24.420Z</time>
      </trkpt>
      <trkpt lat="47.623650" lon="7.904642">
        <ele>350.067420</ele>
        <time>2021-11-13T15:01:43.451Z</time>
      </trkpt>
      <trkpt lat="47.624120" lon="7.904530">
        <ele>350.255645</ele>
        <time>2021-11-13T15:01:51.480Z</time>
      </trkpt>
      <trkpt lat="47.624263" lon="7.904484">
        <ele>350.313502</ele>
        <time>2021-11-13T15:01:53.669Z</time>
      </trkpt>
      <trkpt lat="47.624399" lon="7.904386">
        <ele>350.373285</ele>
        <time>2021-11-13T15:01:55.922Z</time>
      </trkpt>
      <trkpt lat="47.624451" lon="7.904332">
        <ele>350.398382</ele>
        <time>2021-11-13T15:01:56.899Z</time>
      </trkpt>
      <trkpt lat="47.624472" lon="7.904367">
        <ele>350.410870</ele>
        <time>2021-11-13T15:01:57.317Z</time>
      </trkpt>
      <trkpt lat="47.624565" lon="7.904455">
        <ele>350.454485</ele>
        <time>2021-11-13T15:01:58.908Z</time>
      </trkpt>
      <trkpt lat="47.624761" lon="7.904481">
        <ele>350.532294</ele>
        <time>2021-11-13T15:02:01.689Z</time>
      </trkpt>
      <trkpt lat="47.624956" lon="7.904522">
        <ele>350.592317</ele>
        <time>2021-11-13T15:02:04.402Z</time>
      </trkpt>
      <trkpt lat="47.625088" lon="7.904563">
        <ele>350.616513</ele>
        <time>2021-11-13T15:02:06.368Z</time>
      </trkpt>
      <trkpt lat="47.625516" lon="7.904701">
        <ele>350.695093</ele>
        <time>2021-11-13T15:02:12.771Z</time>
      </trkpt>
      <trkpt lat="47.625742" lon="7.904774">
        <ele>350.736590</ele>
        <time>2021-11-13T15:02:16.017Z</time>
      </trkpt>
      <trkpt lat="47.626086" lon="7.904879">
        <ele>350.799600</ele>
        <time>2021-11-13T15:02:21.558Z</time>
      </trkpt>
      <trkpt lat="47.626221" lon="7.904920">
        <ele>350.824323</ele>
        <time>2021-11-13T15:02:23.821Z</time>
      </trkpt>
      <trkpt lat="47.626399" lon="7.904961">
        <ele>350.856641</ele>
        <time>2021-11-13T15:02:26.769Z</time>
      </trkpt>
      <trkpt lat="47.626440" lon="7.905007">
        <ele>350.865863</ele>
        <time>2021-11-13T15:02:27.466Z</time>
      </trkpt>
      <trkpt lat="47.626505" lon="7.904968">
        <ele>350.878442</ele>
        <time>2021-11-13T15:02:28.805Z</time>
      </trkpt>
      <trkpt lat="47.627067" lon="7.904813">
        <ele>351.432361</ele>
        <time>2021-11-13T15:02:38.999Z</time>
      </trkpt>
      <trkpt lat="47.627287" lon="7.904761">
        <ele>351.695564</ele>
        <time>2021-11-13T15:02:43.272Z</time>
      </trkpt>
      <trkpt lat="47.627467" lon="7.904744">
        <ele>351.908662</ele>
        <time>2021-11-13T15:02:46.875Z</time>
      </trkpt>
      <trkpt lat="47.627955" lon="7.904708">
        <ele>352.485938</ele>
        <time>2021-11-13T15:02:56.888Z</time>
      </trkpt>
      <trkpt lat="47.628650" lon="7.904559">
        <ele>353.471339</ele>
        <time>2021-11-13T15:03:11.477Z</time>
      </trkpt>
      <trkpt lat="47.628975" lon="7.904514">
        <ele>354.063859</ele>
        <time>2021-11-13T15:03:18.294Z</time>
      </trkpt>
      <trkpt lat="47.629371" lon="7.904510">
        <ele>354.782715</ele>
        <time>2021-11-13T15:03:27.149Z</time>
      </trkpt>
      <trkpt lat="47.629718" lon="7.904514">
        <ele>355.412626</ele>
        <time>2021-11-13T15:03:34.966Z</time>
      </trkpt>
      <trkpt lat="47.629946" lon="7.904556">
        <ele>355.829680</ele>
        <time>2021-11-13T15:03:40.049Z</time>
      </trkpt>
      <trkpt lat="47.629962" lon="7.904269">
        <ele>356.181974</ele>
        <time>2021-11-13T15:03:44.604Z</time>
      </trkpt>
      <trkpt lat="47.629971" lon="7.903809">
        <ele>356.724670</ele>
        <time>2021-11-13T15:03:51.915Z</time>
      </trkpt>
      <trkpt lat="47.629981" lon="7.903605">
        <ele>356.963732</ele>
        <time>2021-11-13T15:03:55.110Z</time>
      </trkpt>
      <trkpt lat="47.630003" lon="7.903430">
        <ele>357.171798</ele>
        <time>2021-11-13T15:03:58.163Z</time>
      </trkpt>
      <trkpt lat="47.630019" lon="7.903301">
        <ele>357.325104</ele>
        <time>2021-11-13T15:04:00.466Z</time>
      </trkpt>
      <trkpt lat="47.630125" lon="7.903008">
        <ele>357.713783</ele>
        <time>2021-11-13T15:04:05.378Z</time>
      </trkpt>
      <trkpt lat="47.630334" lon="7.902735">
        <ele>358.196688</ele>
        <time>2021-11-13T15:04:12.019Z</time>
      </trkpt>
      <trkpt lat="47.630425" lon="7.902631">
        <ele>358.395894</ele>
        <time>2021-11-13T15:04:14.230Z</time>
      </trkpt>
      <trkpt lat="47.630606" lon="7.902405">
        <ele>358.806153</ele>
        <time>2021-11-13T15:04:19.532Z</time>
      </trkpt>
      <trkpt lat="47.630643" lon="7.902358">
        <ele>358.890624</ele>
        <time>2021-11-13T15:04:20.179Z</time>
      </trkpt>
      <trkpt lat="47.631232" lon="7.901830">
        <ele>359.478714</ele>
        <time>2021-11-13T15:04:33.387Z</time>
      </trkpt>
      <trkpt lat="47.631256" lon="7.901808">
        <ele>359.483724</ele>
        <time>2021-11-13T15:04:33.661Z</time>
      </trkpt>
      <trkpt lat="47.632600" lon="7.900774">
        <ele>359.814264</ele>
        <time>2021-11-13T15:04:55.786Z</time>
      </trkpt>
      <trkpt lat="47.632720" lon="7.900711">
        <ele>359.896248</ele>
        <time>2021-11-13T15:04:57.395Z</time>
      </trkpt>
      <trkpt lat="47.632986" lon="7.900573">
        <ele>360.077742</ele>
        <time>2021-11-13T15:05:01.405Z</time>
      </trkpt>
      <trkpt lat="47.633103" lon="7.900526">
        <ele>360.155812</ele>
        <time>2021-11-13T15:05:02.869Z</time>
      </trkpt>
      <trkpt lat="47.633136" lon="7.900472">
        <ele>360.187452</ele>
        <time>2021-11-13T15:05:03.428Z</time>
      </trkpt>
      <trkpt lat="47.633178" lon="7.900379">
        <ele>360.236043</ele>
        <time>2021-11-13T15:05:04.374Z</time>
      </trkpt>
      <trkpt lat="47.633226" lon="7.900424">
        <ele>360.272611</ele>
        <time>2021-11-13T15:05:05.919Z</time>
      </trkpt>
      <trkpt lat="47.633282" lon="7.900614">
        <ele>360.362619</ele>
        <time>2021-11-13T15:05:07.876Z</time>
      </trkpt>
      <trkpt lat="47.633342" lon="7.900593">
        <ele>360.402325</ele>
        <time>2021-11-13T15:05:09.056Z</time>
      </trkpt>
      <trkpt lat="47.633921" lon="7.900563">
        <ele>360.775474</ele>
        <time>2021-11-13T15:05:23.283Z</time>
      </trkpt>
      <trkpt lat="47.633917" lon="7.900261">
        <ele>361.009285</ele>
        <time>2021-11-13T15:05:28.518Z</time>
      </trkpt>
      <trkpt lat="47.633945" lon="7.900020">
        <ele>361.687336</ele>
        <time>2021-11-13T15:05:34.894Z</time>
      </trkpt>
      <trkpt lat="47.634007" lon="7.899717">
        <ele>362.565304</ele>
        <time>2021-11-13T15:05:40.947Z</time>
      </trkpt>
      <trkpt lat="47.634071" lon="7.899581">
        <ele>363.025219</ele>
        <time>2021-11-13T15:05:45.804Z</time>
      </trkpt>
      <trkpt lat="47.634413" lon="7.899025">
        <ele>365.112421</ele>
        <time>2021-11-13T15:06:03.259Z</time>
      </trkpt>
      <trkpt lat="47.634521" lon="7.898897">
        <ele>365.681105</ele>
        <time>2021-11-13T15:06:09.328Z</time>
      </trkpt>
      <trkpt lat="47.634660" lon="7.898725">
        <ele>366.425747</ele>
        <time>2021-11-13T15:06:15.991Z</time>
      </trkpt>
      <trkpt lat="47.634709" lon="7.898683">
        <ele>366.658568</ele>
        <time>2021-11-13T15:06:17.903Z</time>
      </trkpt>
      <trkpt lat="47.634851" lon="7.898560">
        <ele>367.335063</ele>
        <time>2021-11-13T15:06:25.658Z</time>
      </trkpt>
      <trkpt lat="47.635439" lon="7.898291">
        <ele>370.788099</ele>
        <time>2021-11-13T15:06:51.650Z</time>
      </trkpt>
      <trkpt lat="47.635572" lon="7.898264">
        <ele>371.662757</ele>
        <time>2021-11-13T15:06:58.193Z</time>
      </trkpt>
      <trkpt lat="47.635798" lon="7.898256">
        <ele>373.135723</ele>
        <time>2021-11-13T15:07:08.437Z</time>
      </trkpt>
      <trkpt lat="47.636998" lon="7.898270">
        <ele>380.789744</ele>
        <time>2021-11-13T15:08:06.724Z</time>
      </trkpt>
      <trkpt lat="47.637346" lon="7.898225">
        <ele>382.669284</ele>
        <time>2021-11-13T15:08:22.350Z</time>
      </trkpt>
      <trkpt lat="47.637397" lon="7.898245">
        <ele>382.953112</ele>
        <time>2021-11-13T15:08:25.292Z</time>
      </trkpt>
      <trkpt lat="47.637967" lon="7.898221">
        <ele>386.021283</ele>
        <time>2021-11-13T15:08:45.308Z</time>
      </trkpt>
      <trkpt lat="47.638114" lon="7.898263">
        <ele>386.826754</ele>
        <time>2021-11-13T15:08:51.288Z</time>
      </trkpt>
      <trkpt lat="47.638328" lon="7.898434">
        <ele>388.134492</ele>
        <time>2021-11-13T15:08:58.927Z</time>
      </trkpt>
      <trkpt lat="47.638614" lon="7.898515">
        <ele>389.691659</ele>
        <time>2021-11-13T15:09:08.989Z</time>
      </trkpt>
      <trkpt lat="47.639302" lon="7.898244">
        <ele>391.259030</ele>
        <time>2021-11-13T15:09:28.202Z</time>
      </trkpt>
      <trkpt lat="47.639542" lon="7.898268">
        <ele>391.788690</ele>
        <time>2021-11-13T15:09:33.368Z</time>
      </trkpt>
      <trkpt lat="47.639738" lon="7.898399">
        <ele>392.262011</ele>
        <time>2021-11-13T15:09:37.610Z</time>
      </trkpt>
      <trkpt lat="47.640140" lon="7.898843">
        <ele>393.365396</ele>
        <time>2021-11-13T15:09:46.478Z</time>
      </trkpt>
      <trkpt lat="47.640440" lon="7.899355">
        <ele>394.389555</ele>
        <time>2021-11-13T15:09:56.211Z</time>
      </trkpt>
      <trkpt lat="47.640608" lon="7.899969">
        <ele>395.396416</ele>
        <time>2021-11-13T15:10:05.814Z</time>
      </trkpt>
      <trkpt lat="47.640708" lon="7.900137">
        <ele>395.737003</ele>
        <time>2021-11-13T15:10:10.546Z</time>
      </trkpt>
      <trkpt lat="47.640929" lon="7.900272">
        <ele>396.275907</ele>
        <time>2021-11-13T15:10:15.187Z</time>
      </trkpt>
      <trkpt lat="47.641277" lon="7.900285">
        <ele>397.060878</ele>
        <time>2021-11-13T15:10:24.001Z</time>
      </trkpt>
      <trkpt lat="47.641318" lon="7.900134">
        <ele>397.308223</ele>
        <time>2021-11-13T15:10:28.344Z</time>
      </trkpt>
      <trkpt lat="47.641786" lon="7.899428">
        <ele>398.914098</ele>
        <time>2021-11-13T15:10:45.818Z</time>
      </trkpt>
      <trkpt lat="47.642084" lon="7.899209">
        <ele>399.732164</ele>
        <time>2021-11-13T15:10:54.689Z</time>
      </trkpt>
      <trkpt lat="47.642242" lon="7.899161">
        <ele>400.128924</ele>
        <time>2021-11-13T15:10:59.895Z</time>
      </trkpt>
      <trkpt lat="47.642610" lon="7.899205">
        <ele>401.037183</ele>
        <time>2021-11-13T15:11:09.934Z</time>
      </trkpt>
      <trkpt lat="47.643203" lon="7.899152">
        <ele>402.078764</ele>
        <time>2021-11-13T15:11:21.311Z</time>
      </trkpt>
      <trkpt lat="47.644179" lon="7.899348">
        <ele>401.769254</ele>
        <time>2021-11-13T15:11:34.990Z</time>
      </trkpt>
      <trkpt lat="47.644712" lon="7.899668">
        <ele>401.588572</ele>
        <time>2021-11-13T15:11:41.703Z</time>
      </trkpt>
      <trkpt lat="47.645260" lon="7.899829">
        <ele>401.681058</ele>
        <time>2021-11-13T15:11:48.377Z</time>
      </trkpt>
      <trkpt lat="47.645746" lon="7.900096">
        <ele>401.812999</ele>
        <time>2021-11-13T15:11:55.814Z</time>
      </trkpt>
      <trkpt lat="47.645932" lon="7.900091">
        <ele>401.860363</ele>
        <time>2021-11-13T15:11:58.232Z</time>
      </trkpt>
      <trkpt lat="47.646188" lon="7.900059">
        <ele>401.925772</ele>
        <time>2021-11-13T15:12:02.856Z</time>
      </trkpt>
      <trkpt lat="47.646820" lon="7.899789">
        <ele>402.937852</ele>
        <time>2021-11-13T15:12:18.655Z</time>
      </trkpt>
      <trkpt lat="47.647173" lon="7.899512">
        <ele>404.197042</ele>
        <time>2021-11-13T15:12:29.499Z</time>
      </trkpt>
      <trkpt lat="47.647258" lon="7.899353">
        <ele>404.628274</ele>
        <time>2021-11-13T15:12:33.053Z</time>
      </trkpt>
      <trkpt lat="47.647312" lon="7.898850">
        <ele>405.710395</ele>
        <time>2021-11-13T15:12:44.616Z</time>
      </trkpt>
      <trkpt lat="47.647362" lon="7.898569">
        <ele>406.327859</ele>
        <time>2021-11-13T15:12:50.884Z</time>
      </trkpt>
      <trkpt lat="47.647493" lon="7.898374">
        <ele>406.912919</ele>
        <time>2021-11-13T15:12:56.155Z</time>
      </trkpt>
      <trkpt lat="47.648220" lon="7.897956">
        <ele>408.029181</ele>
        <time>2021-11-13T15:13:16.417Z</time>
      </trkpt>
      <trkpt lat="47.648379" lon="7.897871">
        <ele>408.136387</ele>
        <time>2021-11-13T15:13:20.874Z</time>
      </trkpt>
      <trkpt lat="47.648924" lon="7.897475">
        <ele>408.521314</ele>
        <time>2021-11-13T15:13:31.381Z</time>
      </trkpt>
      <trkpt lat="47.649310" lon="7.897390">
        <ele>408.768859</ele>
        <time>2021-11-13T15:13:35.536Z</time>
      </trkpt>
      <trkpt lat="47.650323" lon="7.897381">
        <ele>406.734504</ele>
        <time>2021-11-13T15:13:46.154Z</time>
      </trkpt>
      <trkpt lat="47.650387" lon="7.897334">
        <ele>406.570494</ele>
        <time>2021-11-13T15:13:46.792Z</time>
      </trkpt>
      <trkpt lat="47.650543" lon="7.897274">
        <ele>406.200340</ele>
        <time>2021-11-13T15:13:48.720Z</time>
      </trkpt>
      <trkpt lat="47.650706" lon="7.897156">
        <ele>405.783790</ele>
        <time>2021-11-13T15:13:50.574Z</time>
      </trkpt>
      <trkpt lat="47.651383" lon="7.897117">
        <ele>404.543324</ele>
        <time>2021-11-13T15:13:58.432Z</time>
      </trkpt>
      <trkpt lat="47.651465" lon="7.897134">
        <ele>404.480042</ele>
        <time>2021-11-13T15:13:59.212Z</time>
      </trkpt>
      <trkpt lat="47.651465" lon="7.897134">
        <ele>404.480042</ele>
        <time>2021-11-13T15:13:59.231Z</time>
      </trkpt>
      <trkpt lat="47.651465" lon="7.897134">
        <ele>404.480042</ele>
        <time>2021-11-13T15:13:59.280Z</time>
      </trkpt>
      <trkpt lat="47.651626" lon="7.897242">
        <ele>404.345006</ele>
        <time>2021-11-13T15:14:02.201Z</time>
      </trkpt>
      <trkpt lat="47.652153" lon="7.897594">
        <ele>403.903315</ele>
        <time>2021-11-13T15:14:09.165Z</time>
      </trkpt>
      <trkpt lat="47.652925" lon="7.897994">
        <ele>403.358617</ele>
        <time>2021-11-13T15:14:20.933Z</time>
      </trkpt>
      <trkpt lat="47.653340" lon="7.898105">
        <ele>403.578754</ele>
        <time>2021-11-13T15:14:27.306Z</time>
      </trkpt>
      <trkpt lat="47.653349" lon="7.897933">
        <ele>403.639421</ele>
        <time>2021-11-13T15:14:29.433Z</time>
      </trkpt>
      <trkpt lat="47.653356" lon="7.897817">
        <ele>403.680376</ele>
        <time>2021-11-13T15:14:30.959Z</time>
      </trkpt>
      <trkpt lat="47.653455" lon="7.897893">
        <ele>403.738560</ele>
        <time>2021-11-13T15:14:32.816Z</time>
      </trkpt>
      <trkpt lat="47.653625" lon="7.897881">
        <ele>403.827408</ele>
        <time>2021-11-13T15:14:35.486Z</time>
      </trkpt>
      <trkpt lat="47.653737" lon="7.897880">
        <ele>403.885878</ele>
        <time>2021-11-13T15:14:37.154Z</time>
      </trkpt>
      <trkpt lat="47.654085" lon="7.897876">
        <ele>404.067555</ele>
        <time>2021-11-13T15:14:43.206Z</time>
      </trkpt>
      <trkpt lat="47.654516" lon="7.897893">
        <ele>404.466983</ele>
        <time>2021-11-13T15:14:51.665Z</time>
      </trkpt>
      <trkpt lat="47.654620" lon="7.897827">
        <ele>404.898739</ele>
        <time>2021-11-13T15:14:54.471Z</time>
      </trkpt>
      <trkpt lat="47.654671" lon="7.897693">
        <ele>405.294497</ele>
        <time>2021-11-13T15:14:56.412Z</time>
      </trkpt>
      <trkpt lat="47.654759" lon="7.897508">
        <ele>405.876850</ele>
        <time>2021-11-13T15:14:59.909Z</time>
      </trkpt>
      <trkpt lat="47.654830" lon="7.897410">
        <ele>406.246928</ele>
        <time>2021-11-13T15:15:02.853Z</time>
      </trkpt>
      <trkpt lat="47.654896" lon="7.897368">
        <ele>406.521043</ele>
        <time>2021-11-13T15:15:04.815Z</time>
      </trkpt>
      <trkpt lat="47.655127" lon="7.897245">
        <ele>407.457852</ele>
        <time>2021-11-13T15:15:12.016Z</time>
      </trkpt>
      <trkpt lat="47.655258" lon="7.897190">
        <ele>407.977536</ele>
        <time>2021-11-13T15:15:16.215Z</time>
      </trkpt>
      <trkpt lat="47.655534" lon="7.897054">
        <ele>409.087640</ele>
        <time>2021-11-13T15:15:25.697Z</time>
      </trkpt>
      <trkpt lat="47.655905" lon="7.896871">
        <ele>410.579997</ele>
        <time>2021-11-13T15:15:39.601Z</time>
      </trkpt>
      <trkpt lat="47.655962" lon="7.896840">
        <ele>410.811726</ele>
        <time>2021-11-13T15:15:41.725Z</time>
      </trkpt>
      <trkpt lat="47.656232" lon="7.896661">
        <ele>412.400205</ele>
        <time>2021-11-13T15:15:53.287Z</time>
      </trkpt>
      <trkpt lat="47.656445" lon="7.896601">
        <ele>413.697806</ele>
        <time>2021-11-13T15:16:02.090Z</time>
      </trkpt>
      <trkpt lat="47.657005" lon="7.896393">
        <ele>417.152842</ele>
        <time>2021-11-13T15:16:24.158Z</time>
      </trkpt>
      <trkpt lat="47.657119" lon="7.896295">
        <ele>417.941288</ele>
        <time>2021-11-13T15:16:29.686Z</time>
      </trkpt>
      <trkpt lat="47.657456" lon="7.896121">
        <ele>420.076809</ele>
        <time>2021-11-13T15:16:43.724Z</time>
      </trkpt>
      <trkpt lat="47.657781" lon="7.896061">
        <ele>422.021670</ele>
        <time>2021-11-13T15:16:56.880Z</time>
      </trkpt>
      <trkpt lat="47.658058" lon="7.896110">
        <ele>423.509394</ele>
        <time>2021-11-13T15:17:07.887Z</time>
      </trkpt>
      <trkpt lat="47.658397" lon="7.896170">
        <ele>425.330125</ele>
        <time>2021-11-13T15:17:20.919Z</time>
      </trkpt>
      <trkpt lat="47.658638" lon="7.896213">
        <ele>426.624656</ele>
        <time>2021-11-13T15:17:29.859Z</time>
      </trkpt>
      <trkpt lat="47.659406" lon="7.896493">
        <ele>430.842179</ele>
        <time>2021-11-13T15:17:56.925Z</time>
      </trkpt>
      <trkpt lat="47.659607" lon="7.896559">
        <ele>431.923685</ele>
        <time>2021-11-13T15:18:03.335Z</time>
      </trkpt>
      <trkpt lat="47.659850" lon="7.896634">
        <ele>433.199370</ele>
        <time>2021-11-13T15:18:11.362Z</time>
      </trkpt>
      <trkpt lat="47.659874" lon="7.896641">
        <ele>433.325084</ele>
        <time>2021-11-13T15:18:12.277Z</time>
      </trkpt>
      <trkpt lat="47.660062" lon="7.896690">
        <ele>434.306153</ele>
        <time>2021-11-13T15:18:18.680Z</time>
      </trkpt>
      <trkpt lat="47.660302" lon="7.896626">
        <ele>435.559456</ele>
        <time>2021-11-13T15:18:27.530Z</time>
      </trkpt>
      <trkpt lat="47.660659" lon="7.896640">
        <ele>437.395023</ele>
        <time>2021-11-13T15:18:40.174Z</time>
      </trkpt>
      <trkpt lat="47.661037" lon="7.896802">
        <ele>439.417206</ele>
        <time>2021-11-13T15:18:53.804Z</time>
      </trkpt>
      <trkpt lat="47.661482" lon="7.896865">
        <ele>442.243159</ele>
        <time>2021-11-13T15:19:10.428Z</time>
      </trkpt>
      <trkpt lat="47.661952" lon="7.896865">
        <ele>445.959530</ele>
        <time>2021-11-13T15:19:30.458Z</time>
      </trkpt>
      <trkpt lat="47.662676" lon="7.896856">
        <ele>451.684525</ele>
        <time>2021-11-13T15:20:04.644Z</time>
      </trkpt>
      <trkpt lat="47.663221" lon="7.897245">
        <ele>456.901265</ele>
        <time>2021-11-13T15:20:37.758Z</time>
      </trkpt>
      <trkpt lat="47.663644" lon="7.897453">
        <ele>461.440072</ele>
        <time>2021-11-13T15:21:02.548Z</time>
      </trkpt>
      <trkpt lat="47.664397" lon="7.897764">
        <ele>469.401323</ele>
        <time>2021-11-13T15:21:47.091Z</time>
      </trkpt>
      <trkpt lat="47.664672" lon="7.897813">
        <ele>472.222570</ele>
        <time>2021-11-13T15:22:03.056Z</time>
      </trkpt>
      <trkpt lat="47.665403" lon="7.897994">
        <ele>478.554780</ele>
        <time>2021-11-13T15:22:43.193Z</time>
      </trkpt>
      <trkpt lat="47.665969" lon="7.898287">
        <ele>483.516682</ele>
        <time>2021-11-13T15:23:12.794Z</time>
      </trkpt>
      <trkpt lat="47.666930" lon="7.898979">
        <ele>490.453508</ele>
        <time>2021-11-13T15:23:54.821Z</time>
      </trkpt>
      <trkpt lat="47.667110" lon="7.899108">
        <ele>491.356409</ele>
        <time>2021-11-13T15:24:01.740Z</time>
      </trkpt>
      <trkpt lat="47.667440" lon="7.899149">
        <ele>492.852392</ele>
        <time>2021-11-13T15:24:10.244Z</time>
      </trkpt>
      <trkpt lat="47.667501" lon="7.899157">
        <ele>493.129032</ele>
        <time>2021-11-13T15:24:11.787Z</time>
      </trkpt>
      <trkpt lat="47.668321" lon="7.899033">
        <ele>497.062846</ele>
        <time>2021-11-13T15:24:35.921Z</time>
      </trkpt>
      <trkpt lat="47.668572" lon="7.899060">
        <ele>498.625615</ele>
        <time>2021-11-13T15:24:45.678Z</time>
      </trkpt>
      <trkpt lat="47.669187" lon="7.899170">
        <ele>502.472308</ele>
        <time>2021-11-13T15:25:07.591Z</time>
      </trkpt>
      <trkpt lat="47.669542" lon="7.899299">
        <ele>504.741866</ele>
        <time>2021-11-13T15:25:22.753Z</time>
      </trkpt>
      <trkpt lat="47.669903" lon="7.899518">
        <ele>507.163488</ele>
        <time>2021-11-13T15:25:40.689Z</time>
      </trkpt>
      <trkpt lat="47.671134" lon="7.899826">
        <ele>517.372819</ele>
        <time>2021-11-13T15:26:46.898Z</time>
      </trkpt>
      <trkpt lat="47.671397" lon="7.899850">
        <ele>519.548426</ele>
        <time>2021-11-13T15:26:58.695Z</time>
      </trkpt>
      <trkpt lat="47.671906" lon="7.899725">
        <ele>523.066036</ele>
        <time>2021-11-13T15:27:19.812Z</time>
      </trkpt>
      <trkpt lat="47.672365" lon="7.899567">
        <ele>525.027432</ele>
        <time>2021-11-13T15:27:36.610Z</time>
      </trkpt>
      <trkpt lat="47.672516" lon="7.899404">
        <ele>525.804533</ele>
        <time>2021-11-13T15:27:42.806Z</time>
      </trkpt>
      <trkpt lat="47.672822" lon="7.898768">
        <ele>527.995632</ele>
        <time>2021-11-13T15:27:57.985Z</time>
      </trkpt>
      <trkpt lat="47.673028" lon="7.898168">
        <ele>529.837446</ele>
        <time>2021-11-13T15:28:09.429Z</time>
      </trkpt>
      <trkpt lat="47.673717" lon="7.898148">
        <ele>531.145542</ele>
        <time>2021-11-13T15:28:23.893Z</time>
      </trkpt>
      <trkpt lat="47.674484" lon="7.897822">
        <ele>532.659899</ele>
        <time>2021-11-13T15:28:40.144Z</time>
      </trkpt>
      <trkpt lat="47.674787" lon="7.897778">
        <ele>533.264838</ele>
        <time>2021-11-13T15:28:47.077Z</time>
      </trkpt>
      <trkpt lat="47.674900" lon="7.897713">
        <ele>533.745846</ele>
        <time>2021-11-13T15:28:50.661Z</time>
      </trkpt>
      <trkpt lat="47.675358" lon="7.897451">
        <ele>535.694020</ele>
        <time>2021-11-13T15:29:03.598Z</time>
      </trkpt>
      <trkpt lat="47.675674" lon="7.897272">
        <ele>537.036481</ele>
        <time>2021-11-13T15:29:13.657Z</time>
      </trkpt>
      <trkpt lat="47.675794" lon="7.897188">
        <ele>537.563063</ele>
        <time>2021-11-13T15:29:17.003Z</time>
      </trkpt>
      <trkpt lat="47.675954" lon="7.897092">
        <ele>538.248033</ele>
        <time>2021-11-13T15:29:23.474Z</time>
      </trkpt>
      <trkpt lat="47.676231" lon="7.897086">
        <ele>539.347667</ele>
        <time>2021-11-13T15:29:32.583Z</time>
      </trkpt>
      <trkpt lat="47.676805" lon="7.897406">
        <ele>542.741989</ele>
        <time>2021-11-13T15:29:55.952Z</time>
      </trkpt>
      <trkpt lat="47.677458" lon="7.897546">
        <ele>547.121660</ele>
        <time>2021-11-13T15:30:24.941Z</time>
      </trkpt>
      <trkpt lat="47.679793" lon="7.897757">
        <ele>561.414347</ele>
        <time>2021-11-13T15:32:03.417Z</time>
      </trkpt>
      <trkpt lat="47.680372" lon="7.898128">
        <ele>563.587831</ele>
        <time>2021-11-13T15:32:17.616Z</time>
      </trkpt>
      <trkpt lat="47.680508" lon="7.898151">
        <ele>563.860213</ele>
        <time>2021-11-13T15:32:22.706Z</time>
      </trkpt>
      <trkpt lat="47.680502" lon="7.898044">
        <ele>564.004064</ele>
        <time>2021-11-13T15:32:23.439Z</time>
      </trkpt>
      <trkpt lat="47.680377" lon="7.897827">
        <ele>564.386683</ele>
        <time>2021-11-13T15:32:27.284Z</time>
      </trkpt>
      <trkpt lat="47.679925" lon="7.897342">
        <ele>565.496301</ele>
        <time>2021-11-13T15:32:38.208Z</time>
      </trkpt>
      <trkpt lat="47.679843" lon="7.897271">
        <ele>565.685179</ele>
        <time>2021-11-13T15:32:39.283Z</time>
      </trkpt>
      <trkpt lat="47.679763" lon="7.897189">
        <ele>565.878604</ele>
        <time>2021-11-13T15:32:42.328Z</time>
      </trkpt>
      <trkpt lat="47.679561" lon="7.897143">
        <ele>566.285271</ele>
        <time>2021-11-13T15:32:45.656Z</time>
      </trkpt>
      <trkpt lat="47.679331" lon="7.896967">
        <ele>567.918262</ele>
        <time>2021-11-13T15:32:52.050Z</time>
      </trkpt>
      <trkpt lat="47.679301" lon="7.896944">
        <ele>568.166966</ele>
        <time>2021-11-13T15:32:52.406Z</time>
      </trkpt>
      <trkpt lat="47.678958" lon="7.896803">
        <ele>570.788703</ele>
        <time>2021-11-13T15:33:01.534Z</time>
      </trkpt>
      <trkpt lat="47.678786" lon="7.896563">
        <ele>572.527203</ele>
        <time>2021-11-13T15:33:10.838Z</time>
      </trkpt>
      <trkpt lat="47.678642" lon="7.896118">
        <ele>574.976018</ele>
        <time>2021-11-13T15:33:25.991Z</time>
      </trkpt>
      <trkpt lat="47.678299" lon="7.896155">
        <ele>577.509419</ele>
        <time>2021-11-13T15:33:46.250Z</time>
      </trkpt>
      <trkpt lat="47.678138" lon="7.896059">
        <ele>578.787452</ele>
        <time>2021-11-13T15:33:56.137Z</time>
      </trkpt>
      <trkpt lat="47.678066" lon="7.895978">
        <ele>579.452827</ele>
        <time>2021-11-13T15:34:03.401Z</time>
      </trkpt>
      <trkpt lat="47.677788" lon="7.895668">
        <ele>584.895040</ele>
        <time>2021-11-13T15:34:28.321Z</time>
      </trkpt>
      <trkpt lat="47.677732" lon="7.895605">
        <ele>586.039739</ele>
        <time>2021-11-13T15:34:34.825Z</time>
      </trkpt>
      <trkpt lat="47.677297" lon="7.895390">
        <ele>593.509928</ele>
        <time>2021-11-13T15:35:10.767Z</time>
      </trkpt>
      <trkpt lat="47.677176" lon="7.895209">
        <ele>596.308228</ele>
        <time>2021-11-13T15:35:24.887Z</time>
      </trkpt>
      <trkpt lat="47.677119" lon="7.894496">
        <ele>604.185543</ele>
        <time>2021-11-13T15:36:10.631Z</time>
      </trkpt>
      <trkpt lat="47.676882" lon="7.894271">
        <ele>608.768834</ele>
        <time>2021-11-13T15:36:34.579Z</time>
      </trkpt>
      <trkpt lat="47.676720" lon="7.894017">
        <ele>611.450096</ele>
        <time>2021-11-13T15:36:54.278Z</time>
      </trkpt>
      <trkpt lat="47.676583" lon="7.893945">
        <ele>613.070100</ele>
        <time>2021-11-13T15:37:05.008Z</time>
      </trkpt>
      <trkpt lat="47.676282" lon="7.893947">
        <ele>616.425532</ele>
        <time>2021-11-13T15:37:25.847Z</time>
      </trkpt>
      <trkpt lat="47.676115" lon="7.894156">
        <ele>618.859984</ele>
        <time>2021-11-13T15:37:37.001Z</time>
      </trkpt>
      <trkpt lat="47.676071" lon="7.894188">
        <ele>619.406126</ele>
        <time>2021-11-13T15:37:41.769Z</time>
      </trkpt>
      <trkpt lat="47.676121" lon="7.894044">
        <ele>620.622221</ele>
        <time>2021-11-13T15:37:48.148Z</time>
      </trkpt>
      <trkpt lat="47.676330" lon="7.893768">
        <ele>623.739858</ele>
        <time>2021-11-13T15:38:02.337Z</time>
      </trkpt>
      <trkpt lat="47.676547" lon="7.893709">
        <ele>626.199067</ele>
        <time>2021-11-13T15:38:11.024Z</time>
      </trkpt>
      <trkpt lat="47.676681" lon="7.893673">
        <ele>627.717075</ele>
        <time>2021-11-13T15:38:17.902Z</time>
      </trkpt>
      <trkpt lat="47.677033" lon="7.893900">
        <ele>630.239149</ele>
        <time>2021-11-13T15:38:31.746Z</time>
      </trkpt>
      <trkpt lat="47.677149" lon="7.893974">
        <ele>630.823036</ele>
        <time>2021-11-13T15:38:35.238Z</time>
      </trkpt>
      <trkpt lat="47.677459" lon="7.894071">
        <ele>632.288234</ele>
        <time>2021-11-13T15:38:45.285Z</time>
      </trkpt>
      <trkpt lat="47.677554" lon="7.894202">
        <ele>632.887776</ele>
        <time>2021-11-13T15:38:47.695Z</time>
      </trkpt>
      <trkpt lat="47.677638" lon="7.894605">
        <ele>634.201463</ele>
        <time>2021-11-13T15:38:53.882Z</time>
      </trkpt>
      <trkpt lat="47.677727" lon="7.894733">
        <ele>634.774438</ele>
        <time>2021-11-13T15:38:57.218Z</time>
      </trkpt>
      <trkpt lat="47.678178" lon="7.894776">
        <ele>636.864571</ele>
        <time>2021-11-13T15:39:12.666Z</time>
      </trkpt>
      <trkpt lat="47.678920" lon="7.894559">
        <ele>643.006721</ele>
        <time>2021-11-13T15:39:46.618Z</time>
      </trkpt>
      <trkpt lat="47.679592" lon="7.894956">
        <ele>649.252238</ele>
        <time>2021-11-13T15:40:24.550Z</time>
      </trkpt>
      <trkpt lat="47.679704" lon="7.894972">
        <ele>650.223918</ele>
        <time>2021-11-13T15:40:31.389Z</time>
      </trkpt>
      <trkpt lat="47.680371" lon="7.894492">
        <ele>655.995688</ele>
        <time>2021-11-13T15:41:13.300Z</time>
      </trkpt>
      <trkpt lat="47.680712" lon="7.894422">
        <ele>658.473812</ele>
        <time>2021-11-13T15:41:30.930Z</time>
      </trkpt>
      <trkpt lat="47.680943" lon="7.894141">
        <ele>660.623258</ele>
        <time>2021-11-13T15:41:44.277Z</time>
      </trkpt>
      <trkpt lat="47.681069" lon="7.894133">
        <ele>661.531135</ele>
        <time>2021-11-13T15:41:49.444Z</time>
      </trkpt>
      <trkpt lat="47.681135" lon="7.894173">
        <ele>662.044286</ele>
        <time>2021-11-13T15:41:52.033Z</time>
      </trkpt>
      <trkpt lat="47.681378" lon="7.894618">
        <ele>664.821269</ele>
        <time>2021-11-13T15:42:04.889Z</time>
      </trkpt>
      <trkpt lat="47.681978" lon="7.894814">
        <ele>666.998779</ele>
        <time>2021-11-13T15:42:21.132Z</time>
      </trkpt>
      <trkpt lat="47.682155" lon="7.894972">
        <ele>667.518039</ele>
        <time>2021-11-13T15:42:25.780Z</time>
      </trkpt>
      <trkpt lat="47.682205" lon="7.895128">
        <ele>667.810529</ele>
        <time>2021-11-13T15:42:28.356Z</time>
      </trkpt>
      <trkpt lat="47.682256" lon="7.896126">
        <ele>669.504884</ele>
        <time>2021-11-13T15:42:40.334Z</time>
      </trkpt>
      <trkpt lat="47.682364" lon="7.896375">
        <ele>670.006316</ele>
        <time>2021-11-13T15:42:43.761Z</time>
      </trkpt>
      <trkpt lat="47.683016" lon="7.896836">
        <ele>676.091384</ele>
        <time>2021-11-13T15:43:08.990Z</time>
      </trkpt>
      <trkpt lat="47.683079" lon="7.896965">
        <ele>677.126153</ele>
        <time>2021-11-13T15:43:15.974Z</time>
      </trkpt>
      <trkpt lat="47.683148" lon="7.897566">
        <ele>681.084765</ele>
        <time>2021-11-13T15:43:39.147Z</time>
      </trkpt>
      <trkpt lat="47.683242" lon="7.897652">
        <ele>682.149517</ele>
        <time>2021-11-13T15:43:43.819Z</time>
      </trkpt>
      <trkpt lat="47.683352" lon="7.897601">
        <ele>683.260891</ele>
        <time>2021-11-13T15:43:52.206Z</time>
      </trkpt>
      <trkpt lat="47.683428" lon="7.897416">
        <ele>684.668062</ele>
        <time>2021-11-13T15:44:02.758Z</time>
      </trkpt>
      <trkpt lat="47.683433" lon="7.897197">
        <ele>686.090831</ele>
        <time>2021-11-13T15:44:11.469Z</time>
      </trkpt>
      <trkpt lat="47.683433" lon="7.897166">
        <ele>686.292112</ele>
        <time>2021-11-13T15:44:13.687Z</time>
      </trkpt>
      <trkpt lat="47.683433" lon="7.896934">
        <ele>687.883394</ele>
        <time>2021-11-13T15:44:27.491Z</time>
      </trkpt>
      <trkpt lat="47.683475" lon="7.896682">
        <ele>690.628831</ele>
        <time>2021-11-13T15:44:38.560Z</time>
      </trkpt>
      <trkpt lat="47.683794" lon="7.895850">
        <ele>700.754361</ele>
        <time>2021-11-13T15:45:33.050Z</time>
      </trkpt>
      <trkpt lat="47.683915" lon="7.895296">
        <ele>706.913665</ele>
        <time>2021-11-13T15:46:06.126Z</time>
      </trkpt>
      <trkpt lat="47.683916" lon="7.895292">
        <ele>706.958788</ele>
        <time>2021-11-13T15:46:06.673Z</time>
      </trkpt>
      <trkpt lat="47.684086" lon="7.894917">
        <ele>711.739802</ele>
        <time>2021-11-13T15:46:32.779Z</time>
      </trkpt>
      <trkpt lat="47.684065" lon="7.894653">
        <ele>714.551079</ele>
        <time>2021-11-13T15:46:45.381Z</time>
      </trkpt>
      <trkpt lat="47.683863" lon="7.893882">
        <ele>719.495881</ele>
        <time>2021-11-13T15:47:17.324Z</time>
      </trkpt>
      <trkpt lat="47.683868" lon="7.893862">
        <ele>719.605239</ele>
        <time>2021-11-13T15:47:18.230Z</time>
      </trkpt>
      <trkpt lat="47.683949" lon="7.893550">
        <ele>721.319316</ele>
        <time>2021-11-13T15:47:29.555Z</time>
      </trkpt>
      <trkpt lat="47.684139" lon="7.893405">
        <ele>722.945739</ele>
        <time>2021-11-13T15:47:40.244Z</time>
      </trkpt>
      <trkpt lat="47.684359" lon="7.893237">
        <ele>724.829210</ele>
        <time>2021-11-13T15:47:49.419Z</time>
      </trkpt>
      <trkpt lat="47.684473" lon="7.893221">
        <ele>725.701072</ele>
        <time>2021-11-13T15:47:53.448Z</time>
      </trkpt>
      <trkpt lat="47.684774" lon="7.893352">
        <ele>728.089230</ele>
        <time>2021-11-13T15:48:02.825Z</time>
      </trkpt>
      <trkpt lat="47.685093" lon="7.893101">
        <ele>730.059909</ele>
        <time>2021-11-13T15:48:12.451Z</time>
      </trkpt>
      <trkpt lat="47.685429" lon="7.892972">
        <ele>731.025192</ele>
        <time>2021-11-13T15:48:20.969Z</time>
      </trkpt>
      <trkpt lat="47.685624" lon="7.892758">
        <ele>731.699544</ele>
        <time>2021-11-13T15:48:27.020Z</time>
      </trkpt>
      <trkpt lat="47.685748" lon="7.892409">
        <ele>732.438469</ele>
        <time>2021-11-13T15:48:33.685Z</time>
      </trkpt>
      <trkpt lat="47.685848" lon="7.892322">
        <ele>732.760809</ele>
        <time>2021-11-13T15:48:36.396Z</time>
      </trkpt>
      <trkpt lat="47.686260" lon="7.892416">
        <ele>733.920210</ele>
        <time>2021-11-13T15:48:45.780Z</time>
      </trkpt>
      <trkpt lat="47.687003" lon="7.892207">
        <ele>737.232447</ele>
        <time>2021-11-13T15:49:07.434Z</time>
      </trkpt>
      <trkpt lat="47.687385" lon="7.892521">
        <ele>739.489005</ele>
        <time>2021-11-13T15:49:23.192Z</time>
      </trkpt>
      <trkpt lat="47.687578" lon="7.892429">
        <ele>740.536663</ele>
        <time>2021-11-13T15:49:31.793Z</time>
      </trkpt>
      <trkpt lat="47.687743" lon="7.892199">
        <ele>741.706170</ele>
        <time>2021-11-13T15:49:40.272Z</time>
      </trkpt>
      <trkpt lat="47.687902" lon="7.892172">
        <ele>742.533342</ele>
        <time>2021-11-13T15:49:47.274Z</time>
      </trkpt>
      <trkpt lat="47.688048" lon="7.892315">
        <ele>743.437235</ele>
        <time>2021-11-13T15:49:53.754Z</time>
      </trkpt>
      <trkpt lat="47.688010" lon="7.892132">
        <ele>744.132446</ele>
        <time>2021-11-13T15:50:00.079Z</time>
      </trkpt>
      <trkpt lat="47.687974" lon="7.892004">
        <ele>744.687745</ele>
        <time>2021-11-13T15:50:03.288Z</time>
      </trkpt>
      <trkpt lat="47.687878" lon="7.891977">
        <ele>745.268744</ele>
        <time>2021-11-13T15:50:06.689Z</time>
      </trkpt>
      <trkpt lat="47.686638" lon="7.891767">
        <ele>752.690086</ele>
        <time>2021-11-13T15:50:57.928Z</time>
      </trkpt>
      <trkpt lat="47.686255" lon="7.891812">
        <ele>754.774268</ele>
        <time>2021-11-13T15:51:10.482Z</time>
      </trkpt>
      <trkpt lat="47.685892" lon="7.891561">
        <ele>755.856835</ele>
        <time>2021-11-13T15:51:22.952Z</time>
      </trkpt>
      <trkpt lat="47.685706" lon="7.891657">
        <ele>756.389218</ele>
        <time>2021-11-13T15:51:28.555Z</time>
      </trkpt>
      <trkpt lat="47.685336" lon="7.892117">
        <ele>757.693733</ele>
        <time>2021-11-13T15:51:41.183Z</time>
      </trkpt>
      <trkpt lat="47.685223" lon="7.892176">
        <ele>758.017577</ele>
        <time>2021-11-13T15:51:44.052Z</time>
      </trkpt>
      <trkpt lat="47.684655" lon="7.892174">
        <ele>759.329998</ele>
        <time>2021-11-13T15:51:57.444Z</time>
      </trkpt>
      <trkpt lat="47.684307" lon="7.892061">
        <ele>757.705435</ele>
        <time>2021-11-13T15:52:02.605Z</time>
      </trkpt>
      <trkpt lat="47.683382" lon="7.892180">
        <ele>753.471097</ele>
        <time>2021-11-13T15:52:11.467Z</time>
      </trkpt>
      <trkpt lat="47.683202" lon="7.892141">
        <ele>752.641503</ele>
        <time>2021-11-13T15:52:13.088Z</time>
      </trkpt>
      <trkpt lat="47.683068" lon="7.892188">
        <ele>752.013578</ele>
        <time>2021-11-13T15:52:14.320Z</time>
      </trkpt>
      <trkpt lat="47.682952" lon="7.892230">
        <ele>751.469059</ele>
        <time>2021-11-13T15:52:15.342Z</time>
      </trkpt>
      <trkpt lat="47.682821" lon="7.892269">
        <ele>750.352695</ele>
        <time>2021-11-13T15:52:16.480Z</time>
      </trkpt>
      <trkpt lat="47.682662" lon="7.892220">
        <ele>748.690787</ele>
        <time>2021-11-13T15:52:17.916Z</time>
      </trkpt>
      <trkpt lat="47.682551" lon="7.892125">
        <ele>747.379695</ele>
        <time>2021-11-13T15:52:18.983Z</time>
      </trkpt>
      <trkpt lat="47.682441" lon="7.892030">
        <ele>746.077461</ele>
        <time>2021-11-13T15:52:20.067Z</time>
      </trkpt>
      <trkpt lat="47.681831" lon="7.891652">
        <ele>739.313038</ele>
        <time>2021-11-13T15:52:25.696Z</time>
      </trkpt>
      <trkpt lat="47.681691" lon="7.891509">
        <ele>737.574148</ele>
        <time>2021-11-13T15:52:27.172Z</time>
      </trkpt>
      <trkpt lat="47.681617" lon="7.891365">
        <ele>736.325945</ele>
        <time>2021-11-13T15:52:28.187Z</time>
      </trkpt>
      <trkpt lat="47.681543" lon="7.891129">
        <ele>734.532135</ele>
        <time>2021-11-13T15:52:29.696Z</time>
      </trkpt>
      <trkpt lat="47.681490" lon="7.890509">
        <ele>731.230922</ele>
        <time>2021-11-13T15:52:33.346Z</time>
      </trkpt>
      <trkpt lat="47.681561" lon="7.889852">
        <ele>728.395776</ele>
        <time>2021-11-13T15:52:37.397Z</time>
      </trkpt>
      <trkpt lat="47.681730" lon="7.889095">
        <ele>724.997688</ele>
        <time>2021-11-13T15:52:42.377Z</time>
      </trkpt>
      <trkpt lat="47.681943" lon="7.888575">
        <ele>722.404258</ele>
        <time>2021-11-13T15:52:46.447Z</time>
      </trkpt>
      <trkpt lat="47.682119" lon="7.888281">
        <ele>720.841143</ele>
        <time>2021-11-13T15:52:48.973Z</time>
      </trkpt>
      <trkpt lat="47.682308" lon="7.887929">
        <ele>719.212732</ele>
        <time>2021-11-13T15:52:51.779Z</time>
      </trkpt>
      <trkpt lat="47.682554" lon="7.887508">
        <ele>717.196546</ele>
        <time>2021-11-13T15:52:55.288Z</time>
      </trkpt>
      <trkpt lat="47.682599" lon="7.887234">
        <ele>716.176494</ele>
        <time>2021-11-13T15:52:57.034Z</time>
      </trkpt>
      <trkpt lat="47.682571" lon="7.886883">
        <ele>714.898132</ele>
        <time>2021-11-13T15:52:59.301Z</time>
      </trkpt>
      <trkpt lat="47.682540" lon="7.886812">
        <ele>714.592067</ele>
        <time>2021-11-13T15:52:59.798Z</time>
      </trkpt>
      <trkpt lat="47.682391" lon="7.886684">
        <ele>713.667379</ele>
        <time>2021-11-13T15:53:01.348Z</time>
      </trkpt>
      <trkpt lat="47.682035" lon="7.886221">
        <ele>711.258010</ele>
        <time>2021-11-13T15:53:05.777Z</time>
      </trkpt>
      <trkpt lat="47.681966" lon="7.885887">
        <ele>710.237847</ele>
        <time>2021-11-13T15:53:07.909Z</time>
      </trkpt>
      <trkpt lat="47.682011" lon="7.885729">
        <ele>709.736901</ele>
        <time>2021-11-13T15:53:09.081Z</time>
      </trkpt>
      <trkpt lat="47.682350" lon="7.885472">
        <ele>708.086150</ele>
        <time>2021-11-13T15:53:12.639Z</time>
      </trkpt>
      <trkpt lat="47.682419" lon="7.885352">
        <ele>707.625347</ele>
        <time>2021-11-13T15:53:13.599Z</time>
      </trkpt>
      <trkpt lat="47.682495" lon="7.885111">
        <ele>706.848257</ele>
        <time>2021-11-13T15:53:15.266Z</time>
      </trkpt>
      <trkpt lat="47.682518" lon="7.884774">
        <ele>705.859183</ele>
        <time>2021-11-13T15:53:17.719Z</time>
      </trkpt>
      <trkpt lat="47.682464" lon="7.884621">
        <ele>705.354757</ele>
        <time>2021-11-13T15:53:18.905Z</time>
      </trkpt>
      <trkpt lat="47.682380" lon="7.884542">
        <ele>704.923543</ele>
        <time>2021-11-13T15:53:20.008Z</time>
      </trkpt>
      <trkpt lat="47.681904" lon="7.884249">
        <ele>703.047067</ele>
        <time>2021-11-13T15:53:25.637Z</time>
      </trkpt>
      <trkpt lat="47.681860" lon="7.884237">
        <ele>702.905545</ele>
        <time>2021-11-13T15:53:26.042Z</time>
      </trkpt>
      <trkpt lat="47.681843" lon="7.884232">
        <ele>702.850722</ele>
        <time>2021-11-13T15:53:26.462Z</time>
      </trkpt>
      <trkpt lat="47.681611" lon="7.884239">
        <ele>702.116634</ele>
        <time>2021-11-13T15:53:28.959Z</time>
      </trkpt>
      <trkpt lat="47.680827" lon="7.884522">
        <ele>699.564248</ele>
        <time>2021-11-13T15:53:37.279Z</time>
      </trkpt>
      <trkpt lat="47.680742" lon="7.884531">
        <ele>699.294666</ele>
        <time>2021-11-13T15:53:38.170Z</time>
      </trkpt>
      <trkpt lat="47.680682" lon="7.884538">
        <ele>699.104271</ele>
        <time>2021-11-13T15:53:38.793Z</time>
      </trkpt>
      <trkpt lat="47.679823" lon="7.884441">
        <ele>694.346289</ele>
        <time>2021-11-13T15:53:46.895Z</time>
      </trkpt>
      <trkpt lat="47.679019" lon="7.884331">
        <ele>689.121006</ele>
        <time>2021-11-13T15:53:54.158Z</time>
      </trkpt>
      <trkpt lat="47.678877" lon="7.884290">
        <ele>688.184819</ele>
        <time>2021-11-13T15:53:55.395Z</time>
      </trkpt>
      <trkpt lat="47.678822" lon="7.884261">
        <ele>687.807111</ele>
        <time>2021-11-13T15:53:55.914Z</time>
      </trkpt>
      <trkpt lat="47.678732" lon="7.884172">
        <ele>687.107367</ele>
        <time>2021-11-13T15:53:56.951Z</time>
      </trkpt>
      <trkpt lat="47.678691" lon="7.884093">
        <ele>686.671225</ele>
        <time>2021-11-13T15:53:57.565Z</time>
      </trkpt>
      <trkpt lat="47.678645" lon="7.883966">
        <ele>685.944713</ele>
        <time>2021-11-13T15:53:58.387Z</time>
      </trkpt>
      <trkpt lat="47.678619" lon="7.883850">
        <ele>685.328791</ele>
        <time>2021-11-13T15:53:59.109Z</time>
      </trkpt>
      <trkpt lat="47.678531" lon="7.883464">
        <ele>683.275727</ele>
        <time>2021-11-13T15:54:01.553Z</time>
      </trkpt>
      <trkpt lat="47.678503" lon="7.883344">
        <ele>682.635910</ele>
        <time>2021-11-13T15:54:02.302Z</time>
      </trkpt>
      <trkpt lat="47.678393" lon="7.882556">
        <ele>678.581647</ele>
        <time>2021-11-13T15:54:07.159Z</time>
      </trkpt>
      <trkpt lat="47.678466" lon="7.882339">
        <ele>677.359568</ele>
        <time>2021-11-13T15:54:08.555Z</time>
      </trkpt>
      <trkpt lat="47.678584" lon="7.882266">
        <ele>676.403109</ele>
        <time>2021-11-13T15:54:09.740Z</time>
      </trkpt>
      <trkpt lat="47.679141" lon="7.882426">
        <ele>672.239197</ele>
        <time>2021-11-13T15:54:14.854Z</time>
      </trkpt>
      <trkpt lat="47.679266" lon="7.882362">
        <ele>671.325090</ele>
        <time>2021-11-13T15:54:16.056Z</time>
      </trkpt>
      <trkpt lat="47.679345" lon="7.882225">
        <ele>670.485461</ele>
        <time>2021-11-13T15:54:17.163Z</time>
      </trkpt>
      <trkpt lat="47.679376" lon="7.881804">
        <ele>668.514110</ele>
        <time>2021-11-13T15:54:19.751Z</time>
      </trkpt>
      <trkpt lat="47.679191" lon="7.880323">
        <ele>661.502713</ele>
        <time>2021-11-13T15:54:28.879Z</time>
      </trkpt>
      <trkpt lat="47.679399" lon="7.879248">
        <ele>655.707404</ele>
        <time>2021-11-13T15:54:35.578Z</time>
      </trkpt>
      <trkpt lat="47.679318" lon="7.879008">
        <ele>654.293963</ele>
        <time>2021-11-13T15:54:37.172Z</time>
      </trkpt>
      <trkpt lat="47.679228" lon="7.878942">
        <ele>653.509074</ele>
        <time>2021-11-13T15:54:38.055Z</time>
      </trkpt>
      <trkpt lat="47.678957" lon="7.878909">
        <ele>651.382804</ele>
        <time>2021-11-13T15:54:40.448Z</time>
      </trkpt>
      <trkpt lat="47.678844" lon="7.878812">
        <ele>650.362204</ele>
        <time>2021-11-13T15:54:41.601Z</time>
      </trkpt>
      <trkpt lat="47.678701" lon="7.878482">
        <ele>648.296022</ele>
        <time>2021-11-13T15:54:43.916Z</time>
      </trkpt>
      <trkpt lat="47.678611" lon="7.878058">
        <ele>646.187352</ele>
        <time>2021-11-13T15:54:46.500Z</time>
      </trkpt>
      <trkpt lat="47.678643" lon="7.877207">
        <ele>643.054109</ele>
        <time>2021-11-13T15:54:51.856Z</time>
      </trkpt>
      <trkpt lat="47.678615" lon="7.876961">
        <ele>642.136955</ele>
        <time>2021-11-13T15:54:53.327Z</time>
      </trkpt>
      <trkpt lat="47.678533" lon="7.876690">
        <ele>641.044749</ele>
        <time>2021-11-13T15:54:55.451Z</time>
      </trkpt>
      <trkpt lat="47.678241" lon="7.876269">
        <ele>638.822811</ele>
        <time>2021-11-13T15:54:59.346Z</time>
      </trkpt>
      <trkpt lat="47.678209" lon="7.876218">
        <ele>638.566537</ele>
        <time>2021-11-13T15:54:59.737Z</time>
      </trkpt>
      <trkpt lat="47.678180" lon="7.876118">
        <ele>638.166274</ele>
        <time>2021-11-13T15:55:00.505Z</time>
      </trkpt>
      <trkpt lat="47.678181" lon="7.876047">
        <ele>637.905211</ele>
        <time>2021-11-13T15:55:01.094Z</time>
      </trkpt>
      <trkpt lat="47.678195" lon="7.875989">
        <ele>637.678707</ele>
        <time>2021-11-13T15:55:01.494Z</time>
      </trkpt>
      <trkpt lat="47.678259" lon="7.875934">
        <ele>637.274993</ele>
        <time>2021-11-13T15:55:02.292Z</time>
      </trkpt>
      <trkpt lat="47.678277" lon="7.875914">
        <ele>637.152256</ele>
        <time>2021-11-13T15:55:03.356Z</time>
      </trkpt>
      <trkpt lat="47.678611" lon="7.875758">
        <ele>635.256987</ele>
        <time>2021-11-13T15:55:06.759Z</time>
      </trkpt>
      <trkpt lat="47.679420" lon="7.875164">
        <ele>630.378213</ele>
        <time>2021-11-13T15:55:15.294Z</time>
      </trkpt>
      <trkpt lat="47.679689" lon="7.875178">
        <ele>628.923076</ele>
        <time>2021-11-13T15:55:17.932Z</time>
      </trkpt>
      <trkpt lat="47.679976" lon="7.875017">
        <ele>627.264546</ele>
        <time>2021-11-13T15:55:20.671Z</time>
      </trkpt>
      <trkpt lat="47.680006" lon="7.874846">
        <ele>626.015239</ele>
        <time>2021-11-13T15:55:21.713Z</time>
      </trkpt>
      <trkpt lat="47.679917" lon="7.874185">
        <ele>620.899430</ele>
        <time>2021-11-13T15:55:25.646Z</time>
      </trkpt>
      <trkpt lat="47.679921" lon="7.873211">
        <ele>613.507382</ele>
        <time>2021-11-13T15:55:31.188Z</time>
      </trkpt>
      <trkpt lat="47.680100" lon="7.871902">
        <ele>602.939251</ele>
        <time>2021-11-13T15:55:38.717Z</time>
      </trkpt>
      <trkpt lat="47.680194" lon="7.871541">
        <ele>599.643645</ele>
        <time>2021-11-13T15:55:40.924Z</time>
      </trkpt>
      <trkpt lat="47.680202" lon="7.871500">
        <ele>599.280186</ele>
        <time>2021-11-13T15:55:41.163Z</time>
      </trkpt>
      <trkpt lat="47.680224" lon="7.871385">
        <ele>598.262259</ele>
        <time>2021-11-13T15:55:41.829Z</time>
      </trkpt>
      <trkpt lat="47.680287" lon="7.870757">
        <ele>592.856134</ele>
        <time>2021-11-13T15:55:45.407Z</time>
      </trkpt>
      <trkpt lat="47.680437" lon="7.870135">
        <ele>587.230648</ele>
        <time>2021-11-13T15:55:49.170Z</time>
      </trkpt>
      <trkpt lat="47.680470" lon="7.869560">
        <ele>583.153587</ele>
        <time>2021-11-13T15:55:52.496Z</time>
      </trkpt>
      <trkpt lat="47.680454" lon="7.869471">
        <ele>582.725495</ele>
        <time>2021-11-13T15:55:53.018Z</time>
      </trkpt>
      <trkpt lat="47.680449" lon="7.869442">
        <ele>582.586377</ele>
        <time>2021-11-13T15:55:53.180Z</time>
      </trkpt>
      <trkpt lat="47.680396" lon="7.869285">
        <ele>581.770188</ele>
        <time>2021-11-13T15:55:54.179Z</time>
      </trkpt>
      <trkpt lat="47.680310" lon="7.869108">
        <ele>580.755803</ele>
        <time>2021-11-13T15:55:55.696Z</time>
      </trkpt>
      <trkpt lat="47.680117" lon="7.868585">
        <ele>577.984158</ele>
        <time>2021-11-13T15:55:59.374Z</time>
      </trkpt>
      <trkpt lat="47.680088" lon="7.868388">
        <ele>577.047025</ele>
        <time>2021-11-13T15:56:00.567Z</time>
      </trkpt>
      <trkpt lat="47.680118" lon="7.868280">
        <ele>576.504084</ele>
        <time>2021-11-13T15:56:01.255Z</time>
      </trkpt>
      <trkpt lat="47.680131" lon="7.868242">
        <ele>576.306000</ele>
        <time>2021-11-13T15:56:02.473Z</time>
      </trkpt>
      <trkpt lat="47.680823" lon="7.867872">
        <ele>571.368897</ele>
        <time>2021-11-13T15:56:09.300Z</time>
      </trkpt>
      <trkpt lat="47.680896" lon="7.867787">
        <ele>570.902292</ele>
        <time>2021-11-13T15:56:10.590Z</time>
      </trkpt>
      <trkpt lat="47.680954" lon="7.867693">
        <ele>570.470465</ele>
        <time>2021-11-13T15:56:11.410Z</time>
      </trkpt>
      <trkpt lat="47.681352" lon="7.866741">
        <ele>566.675252</ele>
        <time>2021-11-13T15:56:18.886Z</time>
      </trkpt>
      <trkpt lat="47.681763" lon="7.866319">
        <ele>564.161871</ele>
        <time>2021-11-13T15:56:23.473Z</time>
      </trkpt>
      <trkpt lat="47.681876" lon="7.866118">
        <ele>563.275021</ele>
        <time>2021-11-13T15:56:25.154Z</time>
      </trkpt>
      <trkpt lat="47.681937" lon="7.865867">
        <ele>562.235964</ele>
        <time>2021-11-13T15:56:26.733Z</time>
      </trkpt>
      <trkpt lat="47.681915" lon="7.865640">
        <ele>561.135442</ele>
        <time>2021-11-13T15:56:28.169Z</time>
      </trkpt>
      <trkpt lat="47.681876" lon="7.865496">
        <ele>560.390619</ele>
        <time>2021-11-13T15:56:29.076Z</time>
      </trkpt>
      <trkpt lat="47.681816" lon="7.865290">
        <ele>559.313554</ele>
        <time>2021-11-13T15:56:30.413Z</time>
      </trkpt>
      <trkpt lat="47.681798" lon="7.865032">
        <ele>558.068869</ele>
        <time>2021-11-13T15:56:32.008Z</time>
      </trkpt>
      <trkpt lat="47.681898" lon="7.864035">
        <ele>553.231805</ele>
        <time>2021-11-13T15:56:38.122Z</time>
      </trkpt>
      <trkpt lat="47.682205" lon="7.863412">
        <ele>549.414201</ele>
        <time>2021-11-13T15:56:42.702Z</time>
      </trkpt>
      <trkpt lat="47.682304" lon="7.862979">
        <ele>546.510111</ele>
        <time>2021-11-13T15:56:45.465Z</time>
      </trkpt>
      <trkpt lat="47.682663" lon="7.862061">
        <ele>539.768028</ele>
        <time>2021-11-13T15:56:51.760Z</time>
      </trkpt>
      <trkpt lat="47.682687" lon="7.861916">
        <ele>538.819766</ele>
        <time>2021-11-13T15:56:52.630Z</time>
      </trkpt>
      <trkpt lat="47.682694" lon="7.861840">
        <ele>538.332623</ele>
        <time>2021-11-13T15:56:53.061Z</time>
      </trkpt>
      <trkpt lat="47.682628" lon="7.861529">
        <ele>536.261776</ele>
        <time>2021-11-13T15:56:54.935Z</time>
      </trkpt>
      <trkpt lat="47.682506" lon="7.861259">
        <ele>534.196710</ele>
        <time>2021-11-13T15:56:56.801Z</time>
      </trkpt>
      <trkpt lat="47.682190" lon="7.860591">
        <ele>527.488343</ele>
        <time>2021-11-13T15:57:01.442Z</time>
      </trkpt>
      <trkpt lat="47.682095" lon="7.860439">
        <ele>525.656275</ele>
        <time>2021-11-13T15:57:02.617Z</time>
      </trkpt>
      <trkpt lat="47.681826" lon="7.860027">
        <ele>520.586535</ele>
        <time>2021-11-13T15:57:05.859Z</time>
      </trkpt>
      <trkpt lat="47.681773" lon="7.859878">
        <ele>519.097935</ele>
        <time>2021-11-13T15:57:06.815Z</time>
      </trkpt>
      <trkpt lat="47.681731" lon="7.859871">
        <ele>518.543407</ele>
        <time>2021-11-13T15:57:07.164Z</time>
      </trkpt>
      <trkpt lat="47.681168" lon="7.859511">
        <ele>510.501018</ele>
        <time>2021-11-13T15:57:12.294Z</time>
      </trkpt>
      <trkpt lat="47.680779" lon="7.859072">
        <ele>504.092362</ele>
        <time>2021-11-13T15:57:16.374Z</time>
      </trkpt>
      <trkpt lat="47.680611" lon="7.858774">
        <ele>500.659843</ele>
        <time>2021-11-13T15:57:18.595Z</time>
      </trkpt>
      <trkpt lat="47.680575" lon="7.858731">
        <ele>500.053875</ele>
        <time>2021-11-13T15:57:19.125Z</time>
      </trkpt>
      <trkpt lat="47.680332" lon="7.858437">
        <ele>495.942754</ele>
        <time>2021-11-13T15:57:22.823Z</time>
      </trkpt>
      <trkpt lat="47.680191" lon="7.858250">
        <ele>493.463227</ele>
        <time>2021-11-13T15:57:25.056Z</time>
      </trkpt>
      <trkpt lat="47.680097" lon="7.858009">
        <ele>491.003501</ele>
        <time>2021-11-13T15:57:27.337Z</time>
      </trkpt>
      <trkpt lat="47.680083" lon="7.857931">
        <ele>490.290595</ele>
        <time>2021-11-13T15:57:28.002Z</time>
      </trkpt>
      <trkpt lat="47.680083" lon="7.857871">
        <ele>489.760712</ele>
        <time>2021-11-13T15:57:28.472Z</time>
      </trkpt>
      <trkpt lat="47.680038" lon="7.857843">
        <ele>489.120736</ele>
        <time>2021-11-13T15:57:28.872Z</time>
      </trkpt>
      <trkpt lat="47.679906" lon="7.857620">
        <ele>486.498423</ele>
        <time>2021-11-13T15:57:30.582Z</time>
      </trkpt>
      <trkpt lat="47.679779" lon="7.857144">
        <ele>482.222543</ele>
        <time>2021-11-13T15:57:33.471Z</time>
      </trkpt>
      <trkpt lat="47.679706" lon="7.856954">
        <ele>480.417613</ele>
        <time>2021-11-13T15:57:34.694Z</time>
      </trkpt>
      <trkpt lat="47.679611" lon="7.856834">
        <ele>478.889342</ele>
        <time>2021-11-13T15:57:35.738Z</time>
      </trkpt>
      <trkpt lat="47.679198" lon="7.856390">
        <ele>472.641507</ele>
        <time>2021-11-13T15:57:40.055Z</time>
      </trkpt>
      <trkpt lat="47.678983" lon="7.856064">
        <ele>468.876306</ele>
        <time>2021-11-13T15:57:42.648Z</time>
      </trkpt>
      <trkpt lat="47.678892" lon="7.855926">
        <ele>467.282551</ele>
        <time>2021-11-13T15:57:43.740Z</time>
      </trkpt>
      <trkpt lat="47.678772" lon="7.855769">
        <ele>465.322817</ele>
        <time>2021-11-13T15:57:45.105Z</time>
      </trkpt>
      <trkpt lat="47.678358" lon="7.855340">
        <ele>459.895655</ele>
        <time>2021-11-13T15:57:49.387Z</time>
      </trkpt>
      <trkpt lat="47.678095" lon="7.854978">
        <ele>456.236382</ele>
        <time>2021-11-13T15:57:52.459Z</time>
      </trkpt>
      <trkpt lat="47.677403" lon="7.853659">
        <ele>444.835658</ele>
        <time>2021-11-13T15:58:02.182Z</time>
      </trkpt>
      <trkpt lat="47.677228" lon="7.853226">
        <ele>441.903467</ele>
        <time>2021-11-13T15:58:05.169Z</time>
      </trkpt>
      <trkpt lat="47.677049" lon="7.852568">
        <ele>437.782990</ele>
        <time>2021-11-13T15:58:09.383Z</time>
      </trkpt>
      <trkpt lat="47.676926" lon="7.851739">
        <ele>432.854213</ele>
        <time>2021-11-13T15:58:14.443Z</time>
      </trkpt>
      <trkpt lat="47.676920" lon="7.851262">
        <ele>430.084194</ele>
        <time>2021-11-13T15:58:17.201Z</time>
      </trkpt>
      <trkpt lat="47.676977" lon="7.850091">
        <ele>423.585309</ele>
        <time>2021-11-13T15:58:24.118Z</time>
      </trkpt>
      <trkpt lat="47.677078" lon="7.849495">
        <ele>420.190310</ele>
        <time>2021-11-13T15:58:27.757Z</time>
      </trkpt>
      <trkpt lat="47.677078" lon="7.849340">
        <ele>419.334087</ele>
        <time>2021-11-13T15:58:28.651Z</time>
      </trkpt>
      <trkpt lat="47.677051" lon="7.849163">
        <ele>418.331555</ele>
        <time>2021-11-13T15:58:29.747Z</time>
      </trkpt>
      <trkpt lat="47.676884" lon="7.848674">
        <ele>415.302696</ele>
        <time>2021-11-13T15:58:33.041Z</time>
      </trkpt>
      <trkpt lat="47.676767" lon="7.848139">
        <ele>413.331761</ele>
        <time>2021-11-13T15:58:36.464Z</time>
      </trkpt>
      <trkpt lat="47.676773" lon="7.847553">
        <ele>411.381872</ele>
        <time>2021-11-13T15:58:40.101Z</time>
      </trkpt>
      <trkpt lat="47.676797" lon="7.847452">
        <ele>411.025525</ele>
        <time>2021-11-13T15:58:40.751Z</time>
      </trkpt>
      <trkpt lat="47.676871" lon="7.847270">
        <ele>410.318157</ele>
        <time>2021-11-13T15:58:42.042Z</time>
      </trkpt>
      <trkpt lat="47.676964" lon="7.847119">
        <ele>409.637295</ele>
        <time>2021-11-13T15:58:43.450Z</time>
      </trkpt>
      <trkpt lat="47.677183" lon="7.846741">
        <ele>407.978174</ele>
        <time>2021-11-13T15:58:46.876Z</time>
      </trkpt>
      <trkpt lat="47.677214" lon="7.846688">
        <ele>407.744597</ele>
        <time>2021-11-13T15:58:47.347Z</time>
      </trkpt>
      <trkpt lat="47.677546" lon="7.845887">
        <ele>405.432672</ele>
        <time>2021-11-13T15:58:53.894Z</time>
      </trkpt>
      <trkpt lat="47.677637" lon="7.845676">
        <ele>405.038746</ele>
        <time>2021-11-13T15:58:55.592Z</time>
      </trkpt>
      <trkpt lat="47.677682" lon="7.845586">
        <ele>404.862511</ele>
        <time>2021-11-13T15:58:56.431Z</time>
      </trkpt>
      <trkpt lat="47.677716" lon="7.845508">
        <ele>404.716434</ele>
        <time>2021-11-13T15:58:57.106Z</time>
      </trkpt>
      <trkpt lat="47.677882" lon="7.845190">
        <ele>404.083860</ele>
        <time>2021-11-13T15:59:00.100Z</time>
      </trkpt>
      <trkpt lat="47.677760" lon="7.845024">
        <ele>403.697535</ele>
        <time>2021-11-13T15:59:01.837Z</time>
      </trkpt>
      <trkpt lat="47.677265" lon="7.844281">
        <ele>402.054312</ele>
        <time>2021-11-13T15:59:09.569Z</time>
      </trkpt>
      <trkpt lat="47.676955" lon="7.843987">
        <ele>401.340549</ele>
        <time>2021-11-13T15:59:13.552Z</time>
      </trkpt>
      <trkpt lat="47.676707" lon="7.843807">
        <ele>400.817471</ele>
        <time>2021-11-13T15:59:16.512Z</time>
      </trkpt>
      <trkpt lat="47.676217" lon="7.843482">
        <ele>399.800530</ele>
        <time>2021-11-13T15:59:22.416Z</time>
      </trkpt>
      <trkpt lat="47.675580" lon="7.843077">
        <ele>398.507315</ele>
        <time>2021-11-13T15:59:30.231Z</time>
      </trkpt>
      <trkpt lat="47.673479" lon="7.841894">
        <ele>395.502782</ele>
        <time>2021-11-13T15:59:56.681Z</time>
      </trkpt>
      <trkpt lat="47.672734" lon="7.841403">
        <ele>394.460212</ele>
        <time>2021-11-13T16:00:06.306Z</time>
      </trkpt>
      <trkpt lat="47.671099" lon="7.840326">
        <ele>392.475520</ele>
        <time>2021-11-13T16:00:27.672Z</time>
      </trkpt>
      <trkpt lat="47.670329" lon="7.839958">
        <ele>391.807767</ele>
        <time>2021-11-13T16:00:37.834Z</time>
      </trkpt>
      <trkpt lat="47.670198" lon="7.839918">
        <ele>391.746887</ele>
        <time>2021-11-13T16:00:39.523Z</time>
      </trkpt>
      <trkpt lat="47.670095" lon="7.839887">
        <ele>391.699047</ele>
        <time>2021-11-13T16:00:40.909Z</time>
      </trkpt>
      <trkpt lat="47.669504" lon="7.839746">
        <ele>391.426568</ele>
        <time>2021-11-13T16:00:48.782Z</time>
      </trkpt>
      <trkpt lat="47.669342" lon="7.839732">
        <ele>391.352699</ele>
        <time>2021-11-13T16:00:51.014Z</time>
      </trkpt>
      <trkpt lat="47.669145" lon="7.839725">
        <ele>391.262997</ele>
        <time>2021-11-13T16:00:53.758Z</time>
      </trkpt>
      <trkpt lat="47.668951" lon="7.839749">
        <ele>391.174381</ele>
        <time>2021-11-13T16:00:56.749Z</time>
      </trkpt>
      <trkpt lat="47.668742" lon="7.839785">
        <ele>391.116699</ele>
        <time>2021-11-13T16:00:59.956Z</time>
      </trkpt>
      <trkpt lat="47.668503" lon="7.839859">
        <ele>391.095493</ele>
        <time>2021-11-13T16:01:03.433Z</time>
      </trkpt>
      <trkpt lat="47.668277" lon="7.839973">
        <ele>391.074761</ele>
        <time>2021-11-13T16:01:07.138Z</time>
      </trkpt>
      <trkpt lat="47.668017" lon="7.840123">
        <ele>391.050532</ele>
        <time>2021-11-13T16:01:11.313Z</time>
      </trkpt>
      <trkpt lat="47.667849" lon="7.840278">
        <ele>391.033352</ele>
        <time>2021-11-13T16:01:14.121Z</time>
      </trkpt>
      <trkpt lat="47.667775" lon="7.840353">
        <ele>391.025570</ele>
        <time>2021-11-13T16:01:15.501Z</time>
      </trkpt>
      <trkpt lat="47.667628" lon="7.840369">
        <ele>391.012767</ele>
        <time>2021-11-13T16:01:17.670Z</time>
      </trkpt>
      <trkpt lat="47.667564" lon="7.840358">
        <ele>391.007171</ele>
        <time>2021-11-13T16:01:18.495Z</time>
      </trkpt>
      <trkpt lat="47.667486" lon="7.840347">
        <ele>391.000366</ele>
        <time>2021-11-13T16:01:19.674Z</time>
      </trkpt>
      <trkpt lat="47.667349" lon="7.840185">
        <ele>390.985153</ele>
        <time>2021-11-13T16:01:22.236Z</time>
      </trkpt>
      <trkpt lat="47.667237" lon="7.839925">
        <ele>390.960160</ele>
        <time>2021-11-13T16:01:25.001Z</time>
      </trkpt>
      <trkpt lat="47.666858" lon="7.839350">
        <ele>390.774179</ele>
        <time>2021-11-13T16:01:32.594Z</time>
      </trkpt>
      <trkpt lat="47.666547" lon="7.839224">
        <ele>390.663529</ele>
        <time>2021-11-13T16:01:36.996Z</time>
      </trkpt>
      <trkpt lat="47.665225" lon="7.838833">
        <ele>390.444010</ele>
        <time>2021-11-13T16:01:55.087Z</time>
      </trkpt>
      <trkpt lat="47.664640" lon="7.838771">
        <ele>390.566379</ele>
        <time>2021-11-13T16:02:04.834Z</time>
      </trkpt>
      <trkpt lat="47.663261" lon="7.838349">
        <ele>390.728149</ele>
        <time>2021-11-13T16:02:28.192Z</time>
      </trkpt>
      <trkpt lat="47.663000" lon="7.838251">
        <ele>390.728483</ele>
        <time>2021-11-13T16:02:32.545Z</time>
      </trkpt>
      <trkpt lat="47.662658" lon="7.838144">
        <ele>390.728916</ele>
        <time>2021-11-13T16:02:37.679Z</time>
      </trkpt>
      <trkpt lat="47.662483" lon="7.838090">
        <ele>390.729138</ele>
        <time>2021-11-13T16:02:40.255Z</time>
      </trkpt>
      <trkpt lat="47.662429" lon="7.838073">
        <ele>390.729206</ele>
        <time>2021-11-13T16:02:40.929Z</time>
      </trkpt>
      <trkpt lat="47.661749" lon="7.838001">
        <ele>390.236171</ele>
        <time>2021-11-13T16:02:49.741Z</time>
      </trkpt>
      <trkpt lat="47.661684" lon="7.837994">
        <ele>390.149769</ele>
        <time>2021-11-13T16:02:50.448Z</time>
      </trkpt>
      <trkpt lat="47.661603" lon="7.837979">
        <ele>390.041549</ele>
        <time>2021-11-13T16:02:51.425Z</time>
      </trkpt>
      <trkpt lat="47.661616" lon="7.837888">
        <ele>389.958486</ele>
        <time>2021-11-13T16:02:52.168Z</time>
      </trkpt>
      <trkpt lat="47.661544" lon="7.837815">
        <ele>389.842897</ele>
        <time>2021-11-13T16:02:53.224Z</time>
      </trkpt>
      <trkpt lat="47.661493" lon="7.837736">
        <ele>389.745185</ele>
        <time>2021-11-13T16:02:54.120Z</time>
      </trkpt>
      <trkpt lat="47.661452" lon="7.837714">
        <ele>389.687388</ele>
        <time>2021-11-13T16:02:54.573Z</time>
      </trkpt>
      <trkpt lat="47.661497" lon="7.837504">
        <ele>389.490612</ele>
        <time>2021-11-13T16:02:56.284Z</time>
      </trkpt>
      <trkpt lat="47.661824" lon="7.836259">
        <ele>388.293183</ele>
        <time>2021-11-13T16:03:06.515Z</time>
      </trkpt>
      <trkpt lat="47.661824" lon="7.836203">
        <ele>388.238765</ele>
        <time>2021-11-13T16:03:06.898Z</time>
      </trkpt>
      <trkpt lat="47.661824" lon="7.836169">
        <ele>388.205725</ele>
        <time>2021-11-13T16:03:07.153Z</time>
      </trkpt>
      <trkpt lat="47.661816" lon="7.836129">
        <ele>388.165178</ele>
        <time>2021-11-13T16:03:07.466Z</time>
      </trkpt>
      <trkpt lat="47.661745" lon="7.835965">
        <ele>387.975726</ele>
        <time>2021-11-13T16:03:08.957Z</time>
      </trkpt>
      <trkpt lat="47.661603" lon="7.835641">
        <ele>387.600085</ele>
        <time>2021-11-13T16:03:11.904Z</time>
      </trkpt>
      <trkpt lat="47.661534" lon="7.835353">
        <ele>387.303040</ele>
        <time>2021-11-13T16:03:14.336Z</time>
      </trkpt>
      <trkpt lat="47.661488" lon="7.835209">
        <ele>387.148165</ele>
        <time>2021-11-13T16:03:15.513Z</time>
      </trkpt>
      <trkpt lat="47.661464" lon="7.835156">
        <ele>387.086103</ele>
        <time>2021-11-13T16:03:16.017Z</time>
      </trkpt>
      <trkpt lat="47.660968" lon="7.834797">
        <ele>386.289957</ele>
        <time>2021-11-13T16:03:22.515Z</time>
      </trkpt>
      <trkpt lat="47.660744" lon="7.834652">
        <ele>385.937383</ele>
        <time>2021-11-13T16:03:25.326Z</time>
      </trkpt>
      <trkpt lat="47.660300" lon="7.834365">
        <ele>385.444276</ele>
        <time>2021-11-13T16:03:31.186Z</time>
      </trkpt>
      <trkpt lat="47.660216" lon="7.834301">
        <ele>385.362839</ele>
        <time>2021-11-13T16:03:32.296Z</time>
      </trkpt>
      <trkpt lat="47.660216" lon="7.834301">
        <ele>385.362839</ele>
        <time>2021-11-13T16:03:32.300Z</time>
      </trkpt>
      <trkpt lat="47.659990" lon="7.834167">
        <ele>385.152934</ele>
        <time>2021-11-13T16:03:35.384Z</time>
      </trkpt>
      <trkpt lat="47.659852" lon="7.834084">
        <ele>385.024507</ele>
        <time>2021-11-13T16:03:37.270Z</time>
      </trkpt>
      <trkpt lat="47.659735" lon="7.834061">
        <ele>384.922708</ele>
        <time>2021-11-13T16:03:38.791Z</time>
      </trkpt>
      <trkpt lat="47.659714" lon="7.834064">
        <ele>384.904511</ele>
        <time>2021-11-13T16:03:39.066Z</time>
      </trkpt>
      <trkpt lat="47.659633" lon="7.834077">
        <ele>384.834238</ele>
        <time>2021-11-13T16:03:40.134Z</time>
      </trkpt>
      <trkpt lat="47.659461" lon="7.834102">
        <ele>384.685171</ele>
        <time>2021-11-13T16:03:42.388Z</time>
      </trkpt>
      <trkpt lat="47.659432" lon="7.834106">
        <ele>384.660049</ele>
        <time>2021-11-13T16:03:42.743Z</time>
      </trkpt>
      <trkpt lat="47.659242" lon="7.834106">
        <ele>384.496166</ele>
        <time>2021-11-13T16:03:45.123Z</time>
      </trkpt>
      <trkpt lat="47.658993" lon="7.834108">
        <ele>384.281388</ele>
        <time>2021-11-13T16:03:48.228Z</time>
      </trkpt>
      <trkpt lat="47.658899" lon="7.834108">
        <ele>384.200309</ele>
        <time>2021-11-13T16:03:49.427Z</time>
      </trkpt>
      <trkpt lat="47.658687" lon="7.834028">
        <ele>384.001713</ele>
        <time>2021-11-13T16:03:52.155Z</time>
      </trkpt>
      <trkpt lat="47.658531" lon="7.833970">
        <ele>383.855634</ele>
        <time>2021-11-13T16:03:54.173Z</time>
      </trkpt>
      <trkpt lat="47.658404" lon="7.833911">
        <ele>383.734757</ele>
        <time>2021-11-13T16:03:55.855Z</time>
      </trkpt>
      <trkpt lat="47.658206" lon="7.833785">
        <ele>383.539078</ele>
        <time>2021-11-13T16:03:58.544Z</time>
      </trkpt>
      <trkpt lat="47.658080" lon="7.833668">
        <ele>383.404083</ele>
        <time>2021-11-13T16:04:00.426Z</time>
      </trkpt>
      <trkpt lat="47.658041" lon="7.833588">
        <ele>383.343661</ele>
        <time>2021-11-13T16:04:01.234Z</time>
      </trkpt>
      <trkpt lat="47.657971" lon="7.833428">
        <ele>383.226931</ele>
        <time>2021-11-13T16:04:02.883Z</time>
      </trkpt>
      <trkpt lat="47.657918" lon="7.833307">
        <ele>383.138623</ele>
        <time>2021-11-13T16:04:04.055Z</time>
      </trkpt>
      <trkpt lat="47.657731" lon="7.832916">
        <ele>382.845225</ele>
        <time>2021-11-13T16:04:08.102Z</time>
      </trkpt>
      <trkpt lat="47.657510" lon="7.832688">
        <ele>382.600769</ele>
        <time>2021-11-13T16:04:11.411Z</time>
      </trkpt>
      <trkpt lat="47.657265" lon="7.832541">
        <ele>382.296600</ele>
        <time>2021-11-13T16:04:14.561Z</time>
      </trkpt>
      <trkpt lat="47.656918" lon="7.832343">
        <ele>381.852713</ele>
        <time>2021-11-13T16:04:18.951Z</time>
      </trkpt>
      <trkpt lat="47.656858" lon="7.832309">
        <ele>381.776028</ele>
        <time>2021-11-13T16:04:19.722Z</time>
      </trkpt>
      <trkpt lat="47.656646" lon="7.832178">
        <ele>381.501836</ele>
        <time>2021-11-13T16:04:22.391Z</time>
      </trkpt>
      <trkpt lat="47.656381" lon="7.832009">
        <ele>381.157451</ele>
        <time>2021-11-13T16:04:25.875Z</time>
      </trkpt>
      <trkpt lat="47.656353" lon="7.831972">
        <ele>381.112692</ele>
        <time>2021-11-13T16:04:26.318Z</time>
      </trkpt>
      <trkpt lat="47.656204" lon="7.831766">
        <ele>380.869577</ele>
        <time>2021-11-13T16:04:28.786Z</time>
      </trkpt>
      <trkpt lat="47.656104" lon="7.831597">
        <ele>380.688653</ele>
        <time>2021-11-13T16:04:30.610Z</time>
      </trkpt>
      <trkpt lat="47.655840" lon="7.831150">
        <ele>380.160123</ele>
        <time>2021-11-13T16:04:35.421Z</time>
      </trkpt>
      <trkpt lat="47.655653" lon="7.830727">
        <ele>379.653865</ele>
        <time>2021-11-13T16:04:39.368Z</time>
      </trkpt>
      <trkpt lat="47.655554" lon="7.830341">
        <ele>379.240590</ele>
        <time>2021-11-13T16:04:42.506Z</time>
      </trkpt>
      <trkpt lat="47.655515" lon="7.830187">
        <ele>379.075970</ele>
        <time>2021-11-13T16:04:43.774Z</time>
      </trkpt>
      <trkpt lat="47.655442" lon="7.830047">
        <ele>378.898821</ele>
        <time>2021-11-13T16:04:45.127Z</time>
      </trkpt>
      <trkpt lat="47.655408" lon="7.830008">
        <ele>378.834996</ele>
        <time>2021-11-13T16:04:45.611Z</time>
      </trkpt>
      <trkpt lat="47.655374" lon="7.829968">
        <ele>378.770555</ele>
        <time>2021-11-13T16:04:46.100Z</time>
      </trkpt>
      <trkpt lat="47.655222" lon="7.829815">
        <ele>378.497760</ele>
        <time>2021-11-13T16:04:48.207Z</time>
      </trkpt>
      <trkpt lat="47.655209" lon="7.829806">
        <ele>378.476452</ele>
        <time>2021-11-13T16:04:48.358Z</time>
      </trkpt>
      <trkpt lat="47.654985" lon="7.829643">
        <ele>378.105888</ele>
        <time>2021-11-13T16:04:51.195Z</time>
      </trkpt>
      <trkpt lat="47.654883" lon="7.829540">
        <ele>377.922643</ele>
        <time>2021-11-13T16:04:52.624Z</time>
      </trkpt>
      <trkpt lat="47.654782" lon="7.829439">
        <ele>377.741943</ele>
        <time>2021-11-13T16:04:54.023Z</time>
      </trkpt>
      <trkpt lat="47.654726" lon="7.829362">
        <ele>377.635008</ele>
        <time>2021-11-13T16:04:54.878Z</time>
      </trkpt>
      <trkpt lat="47.654588" lon="7.829170">
        <ele>377.370040</ele>
        <time>2021-11-13T16:04:57.083Z</time>
      </trkpt>
      <trkpt lat="47.654444" lon="7.828940">
        <ele>377.073712</ele>
        <time>2021-11-13T16:04:59.515Z</time>
      </trkpt>
      <trkpt lat="47.654358" lon="7.828807">
        <ele>376.899731</ele>
        <time>2021-11-13T16:05:00.991Z</time>
      </trkpt>
      <trkpt lat="47.654262" lon="7.828656">
        <ele>376.703786</ele>
        <time>2021-11-13T16:05:02.627Z</time>
      </trkpt>
      <trkpt lat="47.654190" lon="7.828544">
        <ele>376.557683</ele>
        <time>2021-11-13T16:05:03.847Z</time>
      </trkpt>
      <trkpt lat="47.654075" lon="7.828375">
        <ele>376.330983</ele>
        <time>2021-11-13T16:05:05.764Z</time>
      </trkpt>
      <trkpt lat="47.654070" lon="7.828370">
        <ele>376.322537</ele>
        <time>2021-11-13T16:05:05.835Z</time>
      </trkpt>
      <trkpt lat="47.653907" lon="7.828156">
        <ele>376.017688</ele>
        <time>2021-11-13T16:05:08.349Z</time>
      </trkpt>
      <trkpt lat="47.653650" lon="7.827821">
        <ele>375.538540</ele>
        <time>2021-11-13T16:05:12.304Z</time>
      </trkpt>
      <trkpt lat="47.653415" lon="7.827515">
        <ele>375.155458</ele>
        <time>2021-11-13T16:05:15.956Z</time>
      </trkpt>
      <trkpt lat="47.653183" lon="7.827196">
        <ele>374.907316</ele>
        <time>2021-11-13T16:05:19.670Z</time>
      </trkpt>
      <trkpt lat="47.652994" lon="7.826927">
        <ele>374.701858</ele>
        <time>2021-11-13T16:05:22.759Z</time>
      </trkpt>
      <trkpt lat="47.652860" lon="7.826738">
        <ele>374.556816</ele>
        <time>2021-11-13T16:05:24.972Z</time>
      </trkpt>
      <trkpt lat="47.652752" lon="7.826545">
        <ele>374.424190</ele>
        <time>2021-11-13T16:05:27.176Z</time>
      </trkpt>
      <trkpt lat="47.652129" lon="7.825338">
        <ele>373.926917</ele>
        <time>2021-11-13T16:05:41.352Z</time>
      </trkpt>
      <trkpt lat="47.651910" lon="7.824975">
        <ele>374.077367</ele>
        <time>2021-11-13T16:05:46.186Z</time>
      </trkpt>
      <trkpt lat="47.651867" lon="7.824904">
        <ele>374.106844</ele>
        <time>2021-11-13T16:05:47.235Z</time>
      </trkpt>
      <trkpt lat="47.651877" lon="7.824886">
        <ele>374.114048</ele>
        <time>2021-11-13T16:05:47.516Z</time>
      </trkpt>
      <trkpt lat="47.651866" lon="7.824714">
        <ele>374.167390</ele>
        <time>2021-11-13T16:05:49.264Z</time>
      </trkpt>
      <trkpt lat="47.651853" lon="7.824699">
        <ele>374.174936</ele>
        <time>2021-11-13T16:05:49.527Z</time>
      </trkpt>
      <trkpt lat="47.651839" lon="7.824688">
        <ele>374.182196</ele>
        <time>2021-11-13T16:05:49.806Z</time>
      </trkpt>
      <trkpt lat="47.651761" lon="7.824691">
        <ele>374.217957</ele>
        <time>2021-11-13T16:05:50.932Z</time>
      </trkpt>
      <trkpt lat="47.651748" lon="7.824704">
        <ele>374.225141</ele>
        <time>2021-11-13T16:05:51.224Z</time>
      </trkpt>
      <trkpt lat="47.651735" lon="7.824721">
        <ele>374.233082</ele>
        <time>2021-11-13T16:05:51.477Z</time>
      </trkpt>
      <trkpt lat="47.651725" lon="7.824741">
        <ele>374.240771</ele>
        <time>2021-11-13T16:05:51.715Z</time>
      </trkpt>
      <trkpt lat="47.651712" lon="7.824812">
        <ele>374.263487</ele>
        <time>2021-11-13T16:05:52.587Z</time>
      </trkpt>
      <trkpt lat="47.651715" lon="7.824847">
        <ele>374.274381</ele>
        <time>2021-11-13T16:05:53.020Z</time>
      </trkpt>
      <trkpt lat="47.651646" lon="7.824885">
        <ele>374.308111</ele>
        <time>2021-11-13T16:05:54.359Z</time>
      </trkpt>
      <trkpt lat="47.651431" lon="7.825167">
        <ele>374.439604</ele>
        <time>2021-11-13T16:05:59.173Z</time>
      </trkpt>
      <trkpt lat="47.651368" lon="7.825250">
        <ele>374.478210</ele>
        <time>2021-11-13T16:06:00.889Z</time>
      </trkpt>
      <trkpt lat="47.650974" lon="7.825768">
        <ele>374.832482</ele>
        <time>2021-11-13T16:06:11.437Z</time>
      </trkpt>
      <trkpt lat="47.650804" lon="7.825994">
        <ele>375.082761</ele>
        <time>2021-11-13T16:06:16.229Z</time>
      </trkpt>
      <trkpt lat="47.650796" lon="7.826004">
        <ele>375.094231</ele>
        <time>2021-11-13T16:06:16.420Z</time>
      </trkpt>
      <trkpt lat="47.650752" lon="7.826056">
        <ele>375.155912</ele>
        <time>2021-11-13T16:06:17.527Z</time>
      </trkpt>
      <trkpt lat="47.650548" lon="7.826306">
        <ele>375.446032</ele>
        <time>2021-11-13T16:06:22.745Z</time>
      </trkpt>
      <trkpt lat="47.650483" lon="7.826391">
        <ele>375.541035</ele>
        <time>2021-11-13T16:06:24.350Z</time>
      </trkpt>
      <trkpt lat="47.650302" lon="7.826629">
        <ele>375.806220</ele>
        <time>2021-11-13T16:06:28.911Z</time>
      </trkpt>
      <trkpt lat="47.650264" lon="7.826680">
        <ele>375.862403</ele>
        <time>2021-11-13T16:06:30.015Z</time>
      </trkpt>
      <trkpt lat="47.650007" lon="7.827033">
        <ele>376.246409</ele>
        <time>2021-11-13T16:06:36.588Z</time>
      </trkpt>
      <trkpt lat="47.649971" lon="7.827080">
        <ele>376.298989</ele>
        <time>2021-11-13T16:06:37.431Z</time>
      </trkpt>
      <trkpt lat="47.649842" lon="7.827248">
        <ele>376.487195</ele>
        <time>2021-11-13T16:06:40.653Z</time>
      </trkpt>
      <trkpt lat="47.649400" lon="7.827829">
        <ele>376.852031</ele>
        <time>2021-11-13T16:06:51.484Z</time>
      </trkpt>
      <trkpt lat="47.649366" lon="7.827875">
        <ele>376.875259</ele>
        <time>2021-11-13T16:06:52.276Z</time>
      </trkpt>
      <trkpt lat="47.649238" lon="7.827938">
        <ele>376.943349</ele>
        <time>2021-11-13T16:06:54.609Z</time>
      </trkpt>
      <trkpt lat="47.649229" lon="7.827898">
        <ele>376.957694</ele>
        <time>2021-11-13T16:06:55.058Z</time>
      </trkpt>
      <trkpt lat="47.649213" lon="7.827864">
        <ele>376.971801</ele>
        <time>2021-11-13T16:06:55.579Z</time>
      </trkpt>
      <trkpt lat="47.649165" lon="7.827822">
        <ele>376.999935</ele>
        <time>2021-11-13T16:06:56.636Z</time>
      </trkpt>
      <trkpt lat="47.649137" lon="7.827818">
        <ele>377.014138</ele>
        <time>2021-11-13T16:06:57.114Z</time>
      </trkpt>
      <trkpt lat="47.649109" lon="7.827827">
        <ele>377.028603</ele>
        <time>2021-11-13T16:06:57.615Z</time>
      </trkpt>
      <trkpt lat="47.649051" lon="7.827916">
        <ele>377.070724</ele>
        <time>2021-11-13T16:06:59.045Z</time>
      </trkpt>
      <trkpt lat="47.649046" lon="7.827958">
        <ele>377.085231</ele>
        <time>2021-11-13T16:06:59.558Z</time>
      </trkpt>
      <trkpt lat="47.648970" lon="7.827926">
        <ele>377.125119</ele>
        <time>2021-11-13T16:07:00.886Z</time>
      </trkpt>
      <trkpt lat="47.648922" lon="7.827833">
        <ele>377.164970</ele>
        <time>2021-11-13T16:07:02.167Z</time>
      </trkpt>
      <trkpt lat="47.648378" lon="7.826663">
        <ele>377.704666</ele>
        <time>2021-11-13T16:07:16.819Z</time>
      </trkpt>
      <trkpt lat="47.648325" lon="7.826549">
        <ele>377.772205</ele>
        <time>2021-11-13T16:07:18.313Z</time>
      </trkpt>
      <trkpt lat="47.647951" lon="7.825719">
        <ele>378.259107</ele>
        <time>2021-11-13T16:07:29.299Z</time>
      </trkpt>
      <trkpt lat="47.647697" lon="7.825211">
        <ele>378.567583</ele>
        <time>2021-11-13T16:07:36.734Z</time>
      </trkpt>
      <trkpt lat="47.647653" lon="7.825123">
        <ele>378.621020</ele>
        <time>2021-11-13T16:07:38.101Z</time>
      </trkpt>
      <trkpt lat="47.647670" lon="7.825092">
        <ele>378.640511</ele>
        <time>2021-11-13T16:07:38.660Z</time>
      </trkpt>
      <trkpt lat="47.647680" lon="7.825025">
        <ele>378.673973</ele>
        <time>2021-11-13T16:07:39.669Z</time>
      </trkpt>
      <trkpt lat="47.647671" lon="7.824980">
        <ele>378.696863</ele>
        <time>2021-11-13T16:07:40.227Z</time>
      </trkpt>
      <trkpt lat="47.647651" lon="7.824941">
        <ele>378.720762</ele>
        <time>2021-11-13T16:07:40.817Z</time>
      </trkpt>
      <trkpt lat="47.647592" lon="7.824914">
        <ele>378.765450</ele>
        <time>2021-11-13T16:07:41.844Z</time>
      </trkpt>
      <trkpt lat="47.647566" lon="7.824924">
        <ele>378.784890</ele>
        <time>2021-11-13T16:07:42.318Z</time>
      </trkpt>
      <trkpt lat="47.647544" lon="7.824947">
        <ele>378.804367</ele>
        <time>2021-11-13T16:07:42.817Z</time>
      </trkpt>
      <trkpt lat="47.647519" lon="7.825045">
        <ele>379.054636</ele>
        <time>2021-11-13T16:07:44.125Z</time>
      </trkpt>
      <trkpt lat="47.647530" lon="7.825095">
        <ele>379.228075</ele>
        <time>2021-11-13T16:07:44.842Z</time>
      </trkpt>
      <trkpt lat="47.647469" lon="7.825147">
        <ele>379.572375</ele>
        <time>2021-11-13T16:07:46.441Z</time>
      </trkpt>
      <trkpt lat="47.647327" lon="7.825270">
        <ele>380.377084</ele>
        <time>2021-11-13T16:07:50.687Z</time>
      </trkpt>
      <trkpt lat="47.646953" lon="7.825621">
        <ele>382.542843</ele>
        <time>2021-11-13T16:08:02.920Z</time>
      </trkpt>
      <trkpt lat="47.646634" lon="7.825927">
        <ele>384.401864</ele>
        <time>2021-11-13T16:08:16.375Z</time>
      </trkpt>
      <trkpt lat="47.646535" lon="7.826052">
        <ele>385.038019</ele>
        <time>2021-11-13T16:08:21.604Z</time>
      </trkpt>
      <trkpt lat="47.646437" lon="7.826190">
        <ele>385.699192</ele>
        <time>2021-11-13T16:08:27.961Z</time>
      </trkpt>
      <trkpt lat="47.646245" lon="7.826452">
        <ele>386.975720</ele>
        <time>2021-11-13T16:08:38.664Z</time>
      </trkpt>
      <trkpt lat="47.646215" lon="7.826493">
        <ele>387.175318</ele>
        <time>2021-11-13T16:08:41.397Z</time>
      </trkpt>
      <trkpt lat="47.645978" lon="7.826826">
        <ele>389.486396</ele>
        <time>2021-11-13T16:08:56.859Z</time>
      </trkpt>
      <trkpt lat="47.645896" lon="7.826954">
        <ele>390.430916</ele>
        <time>2021-11-13T16:09:03.162Z</time>
      </trkpt>
      <trkpt lat="47.645853" lon="7.827035">
        <ele>390.982369</ele>
        <time>2021-11-13T16:09:06.104Z</time>
      </trkpt>
      <trkpt lat="47.645800" lon="7.827164">
        <ele>391.790342</ele>
        <time>2021-11-13T16:09:11.449Z</time>
      </trkpt>
      <trkpt lat="47.645755" lon="7.827294">
        <ele>392.571902</ele>
        <time>2021-11-13T16:09:16.885Z</time>
      </trkpt>
      <trkpt lat="47.645695" lon="7.827443">
        <ele>393.500150</ele>
        <time>2021-11-13T16:09:22.435Z</time>
      </trkpt>
      <trkpt lat="47.645563" lon="7.827696">
        <ele>395.211315</ele>
        <time>2021-11-13T16:09:32.875Z</time>
      </trkpt>
      <trkpt lat="47.645462" lon="7.827823">
        <ele>396.261975</ele>
        <time>2021-11-13T16:09:39.724Z</time>
      </trkpt>
      <trkpt lat="47.645177" lon="7.828073">
        <ele>398.889608</ele>
        <time>2021-11-13T16:09:55.878Z</time>
      </trkpt>
      <trkpt lat="47.645054" lon="7.828194">
        <ele>400.060850</ele>
        <time>2021-11-13T16:10:02.473Z</time>
      </trkpt>
      <trkpt lat="47.644970" lon="7.828283">
        <ele>400.880021</ele>
        <time>2021-11-13T16:10:07.139Z</time>
      </trkpt>
      <trkpt lat="47.644824" lon="7.828467">
        <ele>402.226489</ele>
        <time>2021-11-13T16:10:14.685Z</time>
      </trkpt>
      <trkpt lat="47.644685" lon="7.828760">
        <ele>403.476133</ele>
        <time>2021-11-13T16:10:24.487Z</time>
      </trkpt>
      <trkpt lat="47.644656" lon="7.828827">
        <ele>403.753839</ele>
        <time>2021-11-13T16:10:26.457Z</time>
      </trkpt>
      <trkpt lat="47.644594" lon="7.828980">
        <ele>404.376458</ele>
        <time>2021-11-13T16:10:30.939Z</time>
      </trkpt>
      <trkpt lat="47.644216" lon="7.830050">
        <ele>408.589643</ele>
        <time>2021-11-13T16:10:57.802Z</time>
      </trkpt>
      <trkpt lat="47.643976" lon="7.830478">
        <ele>410.531512</ele>
        <time>2021-11-13T16:11:09.264Z</time>
      </trkpt>
      <trkpt lat="47.643642" lon="7.830986">
        <ele>413.618744</ele>
        <time>2021-11-13T16:11:25.360Z</time>
      </trkpt>
      <trkpt lat="47.643346" lon="7.831476">
        <ele>416.695682</ele>
        <time>2021-11-13T16:11:42.741Z</time>
      </trkpt>
      <trkpt lat="47.643091" lon="7.831957">
        <ele>419.557271</ele>
        <time>2021-11-13T16:12:01.380Z</time>
      </trkpt>
      <trkpt lat="47.642807" lon="7.832692">
        <ele>423.518721</ele>
        <time>2021-11-13T16:12:29.538Z</time>
      </trkpt>
      <trkpt lat="47.642638" lon="7.833223">
        <ele>426.659425</ele>
        <time>2021-11-13T16:12:49.534Z</time>
      </trkpt>
      <trkpt lat="47.642385" lon="7.833924">
        <ele>430.948463</ele>
        <time>2021-11-13T16:13:16.474Z</time>
      </trkpt>
      <trkpt lat="47.641891" lon="7.835107">
        <ele>438.339653</ele>
        <time>2021-11-13T16:13:59.485Z</time>
      </trkpt>
      <trkpt lat="47.641165" lon="7.836543">
        <ele>444.961605</ele>
        <time>2021-11-13T16:14:44.244Z</time>
      </trkpt>
      <trkpt lat="47.640365" lon="7.837718">
        <ele>450.636736</ele>
        <time>2021-11-13T16:15:20.354Z</time>
      </trkpt>
      <trkpt lat="47.639834" lon="7.838208">
        <ele>453.537258</ele>
        <time>2021-11-13T16:15:41.562Z</time>
      </trkpt>
      <trkpt lat="47.639139" lon="7.838922">
        <ele>457.279524</ele>
        <time>2021-11-13T16:16:10.476Z</time>
      </trkpt>
      <trkpt lat="47.638684" lon="7.839572">
        <ele>459.764554</ele>
        <time>2021-11-13T16:16:31.391Z</time>
      </trkpt>
      <trkpt lat="47.638316" lon="7.840318">
        <ele>462.215857</ele>
        <time>2021-11-13T16:16:51.239Z</time>
      </trkpt>
      <trkpt lat="47.637571" lon="7.842262">
        <ele>465.083666</ele>
        <time>2021-11-13T16:17:24.430Z</time>
      </trkpt>
      <trkpt lat="47.637236" lon="7.842912">
        <ele>465.865845</ele>
        <time>2021-11-13T16:17:33.501Z</time>
      </trkpt>
      <trkpt lat="47.636455" lon="7.843722">
        <ele>466.089161</ele>
        <time>2021-11-13T16:17:47.987Z</time>
      </trkpt>
      <trkpt lat="47.635361" lon="7.844556">
        <ele>466.327641</ele>
        <time>2021-11-13T16:18:06.963Z</time>
      </trkpt>
      <trkpt lat="47.634649" lon="7.845085">
        <ele>466.479410</ele>
        <time>2021-11-13T16:18:20.058Z</time>
      </trkpt>
      <trkpt lat="47.633838" lon="7.846138">
        <ele>466.048129</ele>
        <time>2021-11-13T16:18:36.830Z</time>
      </trkpt>
      <trkpt lat="47.632763" lon="7.847936">
        <ele>463.434219</ele>
        <time>2021-11-13T16:18:55.129Z</time>
      </trkpt>
      <trkpt lat="47.631901" lon="7.849075">
        <ele>459.550046</ele>
        <time>2021-11-13T16:19:06.532Z</time>
      </trkpt>
      <trkpt lat="47.631225" lon="7.850277">
        <ele>455.843399</ele>
        <time>2021-11-13T16:19:16.841Z</time>
      </trkpt>
      <trkpt lat="47.630572" lon="7.851349">
        <ele>452.336037</ele>
        <time>2021-11-13T16:19:26.665Z</time>
      </trkpt>
      <trkpt lat="47.629944" lon="7.852149">
        <ele>448.923827</ele>
        <time>2021-11-13T16:19:34.873Z</time>
      </trkpt>
      <trkpt lat="47.629636" lon="7.852329">
        <ele>447.516403</ele>
        <time>2021-11-13T16:19:38.105Z</time>
      </trkpt>
      <trkpt lat="47.629450" lon="7.852437">
        <ele>446.667199</ele>
        <time>2021-11-13T16:19:39.981Z</time>
      </trkpt>
      <trkpt lat="47.628955" lon="7.852574">
        <ele>444.526318</ele>
        <time>2021-11-13T16:19:44.832Z</time>
      </trkpt>
      <trkpt lat="47.628091" lon="7.852385">
        <ele>440.639889</ele>
        <time>2021-11-13T16:19:52.983Z</time>
      </trkpt>
      <trkpt lat="47.626333" lon="7.851866">
        <ele>434.153451</ele>
        <time>2021-11-13T16:20:10.509Z</time>
      </trkpt>
      <trkpt lat="47.625550" lon="7.851952">
        <ele>432.213833</ele>
        <time>2021-11-13T16:20:19.393Z</time>
      </trkpt>
      <trkpt lat="47.625220" lon="7.852153">
        <ele>431.521270</ele>
        <time>2021-11-13T16:20:23.738Z</time>
      </trkpt>
      <trkpt lat="47.624847" lon="7.852475">
        <ele>431.199527</ele>
        <time>2021-11-13T16:20:29.521Z</time>
      </trkpt>
      <trkpt lat="47.624607" lon="7.852636">
        <ele>431.003151</ele>
        <time>2021-11-13T16:20:33.032Z</time>
      </trkpt>
      <trkpt lat="47.624152" lon="7.852848">
        <ele>430.647583</ele>
        <time>2021-11-13T16:20:39.527Z</time>
      </trkpt>
      <trkpt lat="47.623426" lon="7.853063">
        <ele>429.923414</ele>
        <time>2021-11-13T16:20:48.778Z</time>
      </trkpt>
      <trkpt lat="47.622726" lon="7.853422">
        <ele>428.799040</ele>
        <time>2021-11-13T16:20:57.170Z</time>
      </trkpt>
      <trkpt lat="47.621917" lon="7.853881">
        <ele>427.466965</ele>
        <time>2021-11-13T16:21:06.916Z</time>
      </trkpt>
      <trkpt lat="47.620941" lon="7.854385">
        <ele>425.326075</ele>
        <time>2021-11-13T16:21:18.445Z</time>
      </trkpt>
      <trkpt lat="47.620449" lon="7.854805">
        <ele>424.150147</ele>
        <time>2021-11-13T16:21:24.664Z</time>
      </trkpt>
      <trkpt lat="47.620117" lon="7.855176">
        <ele>422.603743</ele>
        <time>2021-11-13T16:21:29.005Z</time>
      </trkpt>
      <trkpt lat="47.619797" lon="7.855449">
        <ele>420.823463</ele>
        <time>2021-11-13T16:21:32.722Z</time>
      </trkpt>
      <trkpt lat="47.619340" lon="7.855676">
        <ele>418.499175</ele>
        <time>2021-11-13T16:21:37.347Z</time>
      </trkpt>
      <trkpt lat="47.618209" lon="7.856228">
        <ele>410.709026</ele>
        <time>2021-11-13T16:21:48.114Z</time>
      </trkpt>
      <trkpt lat="47.617871" lon="7.856385">
        <ele>407.527114</ele>
        <time>2021-11-13T16:21:51.193Z</time>
      </trkpt>
      <trkpt lat="47.616788" lon="7.856842">
        <ele>397.984008</ele>
        <time>2021-11-13T16:22:00.832Z</time>
      </trkpt>
      <trkpt lat="47.616206" lon="7.856813">
        <ele>394.671722</ele>
        <time>2021-11-13T16:22:05.900Z</time>
      </trkpt>
      <trkpt lat="47.616000" lon="7.856839">
        <ele>393.495759</ele>
        <time>2021-11-13T16:22:07.821Z</time>
      </trkpt>
      <trkpt lat="47.615844" lon="7.856900">
        <ele>392.578122</ele>
        <time>2021-11-13T16:22:09.304Z</time>
      </trkpt>
      <trkpt lat="47.615591" lon="7.856559">
        <ele>390.633786</ele>
        <time>2021-11-13T16:22:14.121Z</time>
      </trkpt>
      <trkpt lat="47.615230" lon="7.856082">
        <ele>389.429822</ele>
        <time>2021-11-13T16:22:22.290Z</time>
      </trkpt>
      <trkpt lat="47.615482" lon="7.855744">
        <ele>390.982473</ele>
        <time>2021-11-13T16:22:32.619Z</time>
      </trkpt>
      <trkpt lat="47.615886" lon="7.855415">
        <ele>393.088750</ele>
        <time>2021-11-13T16:22:51.445Z</time>
      </trkpt>
      <trkpt lat="47.615940" lon="7.855213">
        <ele>393.758213</ele>
        <time>2021-11-13T16:22:57.418Z</time>
      </trkpt>
      <trkpt lat="47.615853" lon="7.854674">
        <ele>395.465687</ele>
        <time>2021-11-13T16:23:16.283Z</time>
      </trkpt>
      <trkpt lat="47.615860" lon="7.854339">
        <ele>396.498240</ele>
        <time>2021-11-13T16:23:28.361Z</time>
      </trkpt>
      <trkpt lat="47.615857" lon="7.854262">
        <ele>396.735856</ele>
        <time>2021-11-13T16:23:30.812Z</time>
      </trkpt>
      <trkpt lat="47.615794" lon="7.854262">
        <ele>397.062604</ele>
        <time>2021-11-13T16:23:33.703Z</time>
      </trkpt>
      <trkpt lat="47.615213" lon="7.854374">
        <ele>401.404178</ele>
        <time>2021-11-13T16:24:03.711Z</time>
      </trkpt>
      <trkpt lat="47.614801" lon="7.854465">
        <ele>404.490870</ele>
        <time>2021-11-13T16:24:23.025Z</time>
      </trkpt>
      <trkpt lat="47.614629" lon="7.854431">
        <ele>405.776706</ele>
        <time>2021-11-13T16:24:32.971Z</time>
      </trkpt>
      <trkpt lat="47.614301" lon="7.854162">
        <ele>408.554002</ele>
        <time>2021-11-13T16:24:51.493Z</time>
      </trkpt>
      <trkpt lat="47.614100" lon="7.854196">
        <ele>410.053121</ele>
        <time>2021-11-13T16:24:59.003Z</time>
      </trkpt>
      <trkpt lat="47.613988" lon="7.854392">
        <ele>411.508777</ele>
        <time>2021-11-13T16:25:08.855Z</time>
      </trkpt>
      <trkpt lat="47.613792" lon="7.854776">
        <ele>414.310431</ele>
        <time>2021-11-13T16:25:26.519Z</time>
      </trkpt>
      <trkpt lat="47.613659" lon="7.854700">
        <ele>415.540237</ele>
        <time>2021-11-13T16:25:34.059Z</time>
      </trkpt>
      <trkpt lat="47.613607" lon="7.854572">
        <ele>416.409529</ele>
        <time>2021-11-13T16:25:38.748Z</time>
      </trkpt>
      <trkpt lat="47.613564" lon="7.854464">
        <ele>417.139126</ele>
        <time>2021-11-13T16:25:44.967Z</time>
      </trkpt>
      <trkpt lat="47.613558" lon="7.853788">
        <ele>421.071607</ele>
        <time>2021-11-13T16:26:11.962Z</time>
      </trkpt>
      <trkpt lat="47.613350" lon="7.853629">
        <ele>423.090642</ele>
        <time>2021-11-13T16:26:25.470Z</time>
      </trkpt>
      <trkpt lat="47.613147" lon="7.853586">
        <ele>424.860015</ele>
        <time>2021-11-13T16:26:36.969Z</time>
      </trkpt>
      <trkpt lat="47.612894" lon="7.853499">
        <ele>426.616000</ele>
        <time>2021-11-13T16:26:51.317Z</time>
      </trkpt>
      <trkpt lat="47.612473" lon="7.853153">
        <ele>429.209458</ele>
        <time>2021-11-13T16:27:14.532Z</time>
      </trkpt>
      <trkpt lat="47.612366" lon="7.853056">
        <ele>429.885171</ele>
        <time>2021-11-13T16:27:19.937Z</time>
      </trkpt>
      <trkpt lat="47.612224" lon="7.852925">
        <ele>430.786241</ele>
        <time>2021-11-13T16:27:27.080Z</time>
      </trkpt>
      <trkpt lat="47.611909" lon="7.852604">
        <ele>432.845557</ele>
        <time>2021-11-13T16:27:42.664Z</time>
      </trkpt>
      <trkpt lat="47.611487" lon="7.852197">
        <ele>435.520992</ele>
        <time>2021-11-13T16:27:59.276Z</time>
      </trkpt>
      <trkpt lat="47.611373" lon="7.852022">
        <ele>435.827038</ele>
        <time>2021-11-13T16:28:03.388Z</time>
      </trkpt>
      <trkpt lat="47.611197" lon="7.851511">
        <ele>436.548700</ele>
        <time>2021-11-13T16:28:12.819Z</time>
      </trkpt>
      <trkpt lat="47.610866" lon="7.850970">
        <ele>437.467502</ele>
        <time>2021-11-13T16:28:23.970Z</time>
      </trkpt>
      <trkpt lat="47.610164" lon="7.850132">
        <ele>439.436729</ele>
        <time>2021-11-13T16:28:50.273Z</time>
      </trkpt>
      <trkpt lat="47.609900" lon="7.849721">
        <ele>440.856221</ele>
        <time>2021-11-13T16:29:02.973Z</time>
      </trkpt>
      <trkpt lat="47.609671" lon="7.849581">
        <ele>441.774893</ele>
        <time>2021-11-13T16:29:11.687Z</time>
      </trkpt>
      <trkpt lat="47.609180" lon="7.849407">
        <ele>443.647260</ele>
        <time>2021-11-13T16:29:31.713Z</time>
      </trkpt>
      <trkpt lat="47.608958" lon="7.849213">
        <ele>444.602931</ele>
        <time>2021-11-13T16:29:41.099Z</time>
      </trkpt>
      <trkpt lat="47.608933" lon="7.849177">
        <ele>444.732165</ele>
        <time>2021-11-13T16:29:42.705Z</time>
      </trkpt>
      <trkpt lat="47.608720" lon="7.848859">
        <ele>445.704866</ele>
        <time>2021-11-13T16:29:53.478Z</time>
      </trkpt>
      <trkpt lat="47.608647" lon="7.848750">
        <ele>445.913923</ele>
        <time>2021-11-13T16:29:57.453Z</time>
      </trkpt>
      <trkpt lat="47.608499" lon="7.848767">
        <ele>446.213522</ele>
        <time>2021-11-13T16:30:02.365Z</time>
      </trkpt>
      <trkpt lat="47.608193" lon="7.849027">
        <ele>446.925266</ele>
        <time>2021-11-13T16:30:13.480Z</time>
      </trkpt>
      <trkpt lat="47.607779" lon="7.849458">
        <ele>447.946105</ele>
        <time>2021-11-13T16:30:27.617Z</time>
      </trkpt>
      <trkpt lat="47.607512" lon="7.849734">
        <ele>448.602942</ele>
        <time>2021-11-13T16:30:35.854Z</time>
      </trkpt>
      <trkpt lat="47.607206" lon="7.849906">
        <ele>449.059634</ele>
        <time>2021-11-13T16:30:43.387Z</time>
      </trkpt>
      <trkpt lat="47.606841" lon="7.850541">
        <ele>447.997861</ele>
        <time>2021-11-13T16:30:53.302Z</time>
      </trkpt>
      <trkpt lat="47.606642" lon="7.850761">
        <ele>447.529445</ele>
        <time>2021-11-13T16:30:57.214Z</time>
      </trkpt>
      <trkpt lat="47.606432" lon="7.850826">
        <ele>447.124580</ele>
        <time>2021-11-13T16:31:00.550Z</time>
      </trkpt>
      <trkpt lat="47.606259" lon="7.850845">
        <ele>446.797188</ele>
        <time>2021-11-13T16:31:03.271Z</time>
      </trkpt>
      <trkpt lat="47.605922" lon="7.850724">
        <ele>446.142807</ele>
        <time>2021-11-13T16:31:08.381Z</time>
      </trkpt>
      <trkpt lat="47.605584" lon="7.850507">
        <ele>444.823925</ele>
        <time>2021-11-13T16:31:13.595Z</time>
      </trkpt>
      <trkpt lat="47.605181" lon="7.850167">
        <ele>442.220855</ele>
        <time>2021-11-13T16:31:19.956Z</time>
      </trkpt>
      <trkpt lat="47.605011" lon="7.850048">
        <ele>441.165435</ele>
        <time>2021-11-13T16:31:22.488Z</time>
      </trkpt>
      <trkpt lat="47.604823" lon="7.849877">
        <ele>439.927236</ele>
        <time>2021-11-13T16:31:25.432Z</time>
      </trkpt>
      <trkpt lat="47.604551" lon="7.849629">
        <ele>438.134617</ele>
        <time>2021-11-13T16:31:29.621Z</time>
      </trkpt>
      <trkpt lat="47.603736" lon="7.848907">
        <ele>430.602431</ele>
        <time>2021-11-13T16:31:41.683Z</time>
      </trkpt>
      <trkpt lat="47.602606" lon="7.848016">
        <ele>417.885271</ele>
        <time>2021-11-13T16:31:57.099Z</time>
      </trkpt>
      <trkpt lat="47.602486" lon="7.847821">
        <ele>416.015869</ele>
        <time>2021-11-13T16:31:59.245Z</time>
      </trkpt>
      <trkpt lat="47.602400" lon="7.847680">
        <ele>414.665549</ele>
        <time>2021-11-13T16:32:00.760Z</time>
      </trkpt>
      <trkpt lat="47.602282" lon="7.847374">
        <ele>412.161975</ele>
        <time>2021-11-13T16:32:03.678Z</time>
      </trkpt>
      <trkpt lat="47.602236" lon="7.847007">
        <ele>409.510824</ele>
        <time>2021-11-13T16:32:06.724Z</time>
      </trkpt>
      <trkpt lat="47.602243" lon="7.846717">
        <ele>407.449873</ele>
        <time>2021-11-13T16:32:09.042Z</time>
      </trkpt>
      <trkpt lat="47.602229" lon="7.845655">
        <ele>399.905915</ele>
        <time>2021-11-13T16:32:17.701Z</time>
      </trkpt>
      <trkpt lat="47.602253" lon="7.845252">
        <ele>397.495341</ele>
        <time>2021-11-13T16:32:21.161Z</time>
      </trkpt>
      <trkpt lat="47.602198" lon="7.844937">
        <ele>395.773845</ele>
        <time>2021-11-13T16:32:23.935Z</time>
      </trkpt>
      <trkpt lat="47.600807" lon="7.843916">
        <ele>383.815434</ele>
        <time>2021-11-13T16:32:43.595Z</time>
      </trkpt>
      <trkpt lat="47.600072" lon="7.843673">
        <ele>379.046007</ele>
        <time>2021-11-13T16:32:53.290Z</time>
      </trkpt>
      <trkpt lat="47.599763" lon="7.843535">
        <ele>377.002127</ele>
        <time>2021-11-13T16:32:57.501Z</time>
      </trkpt>
      <trkpt lat="47.599568" lon="7.843496">
        <ele>375.755906</ele>
        <time>2021-11-13T16:33:00.094Z</time>
      </trkpt>
      <trkpt lat="47.598937" lon="7.843561">
        <ele>372.225050</ele>
        <time>2021-11-13T16:33:08.571Z</time>
      </trkpt>
      <trkpt lat="47.598696" lon="7.843499">
        <ele>371.138207</ele>
        <time>2021-11-13T16:33:11.897Z</time>
      </trkpt>
      <trkpt lat="47.598536" lon="7.843376">
        <ele>370.337425</ele>
        <time>2021-11-13T16:33:14.389Z</time>
      </trkpt>
      <trkpt lat="47.598238" lon="7.842763">
        <ele>368.073183</ele>
        <time>2021-11-13T16:33:21.486Z</time>
      </trkpt>
      <trkpt lat="47.598058" lon="7.842175">
        <ele>366.138329</ele>
        <time>2021-11-13T16:33:27.589Z</time>
      </trkpt>
      <trkpt lat="47.597842" lon="7.841614">
        <ele>364.438007</ele>
        <time>2021-11-13T16:33:33.696Z</time>
      </trkpt>
      <trkpt lat="47.597727" lon="7.841333">
        <ele>363.655075</ele>
        <time>2021-11-13T16:33:36.805Z</time>
      </trkpt>
      <trkpt lat="47.597263" lon="7.840840">
        <ele>361.638864</ele>
        <time>2021-11-13T16:33:44.985Z</time>
      </trkpt>
      <trkpt lat="47.596993" lon="7.840544">
        <ele>360.452844</ele>
        <time>2021-11-13T16:33:49.832Z</time>
      </trkpt>
      <trkpt lat="47.596578" lon="7.839929">
        <ele>358.500940</ele>
        <time>2021-11-13T16:33:58.360Z</time>
      </trkpt>
      <trkpt lat="47.595964" lon="7.838747">
        <ele>355.641415</ele>
        <time>2021-11-13T16:34:13.589Z</time>
      </trkpt>
      <trkpt lat="47.595487" lon="7.838131">
        <ele>353.791244</ele>
        <time>2021-11-13T16:34:23.099Z</time>
      </trkpt>
      <trkpt lat="47.594966" lon="7.837645">
        <ele>349.823798</ele>
        <time>2021-11-13T16:34:31.920Z</time>
      </trkpt>
      <trkpt lat="47.594385" lon="7.837297">
        <ele>345.784837</ele>
        <time>2021-11-13T16:34:40.052Z</time>
      </trkpt>
      <trkpt lat="47.593826" lon="7.836849">
        <ele>341.009426</ele>
        <time>2021-11-13T16:34:47.925Z</time>
      </trkpt>
      <trkpt lat="47.593342" lon="7.836538">
        <ele>333.773612</ele>
        <time>2021-11-13T16:34:54.260Z</time>
      </trkpt>
      <trkpt lat="47.593173" lon="7.836468">
        <ele>331.366613</ele>
        <time>2021-11-13T16:34:56.253Z</time>
      </trkpt>
      <trkpt lat="47.592897" lon="7.836379">
        <ele>327.492098</ele>
        <time>2021-11-13T16:34:59.563Z</time>
      </trkpt>
      <trkpt lat="47.592250" lon="7.836371">
        <ele>318.616580</ele>
        <time>2021-11-13T16:35:07.158Z</time>
      </trkpt>
      <trkpt lat="47.592182" lon="7.836371">
        <ele>317.683792</ele>
        <time>2021-11-13T16:35:07.950Z</time>
      </trkpt>
      <trkpt lat="47.592110" lon="7.836372">
        <ele>316.868325</ele>
        <time>2021-11-13T16:35:08.780Z</time>
      </trkpt>
      <trkpt lat="47.591953" lon="7.836379">
        <ele>315.115952</ele>
        <time>2021-11-13T16:35:10.690Z</time>
      </trkpt>
      <trkpt lat="47.591704" lon="7.836354">
        <ele>312.331605</ele>
        <time>2021-11-13T16:35:13.563Z</time>
      </trkpt>
      <trkpt lat="47.590166" lon="7.836338">
        <ele>296.410516</ele>
        <time>2021-11-13T16:35:32.396Z</time>
      </trkpt>
      <trkpt lat="47.590263" lon="7.835856">
        <ele>294.595032</ele>
        <time>2021-11-13T16:35:35.647Z</time>
      </trkpt>
      <trkpt lat="47.589181" lon="7.835983">
        <ele>288.786428</ele>
        <time>2021-11-13T16:35:46.081Z</time>
      </trkpt>
      <trkpt lat="47.588272" lon="7.836090">
        <ele>285.411941</ele>
        <time>2021-11-13T16:35:55.047Z</time>
      </trkpt>
      <trkpt lat="47.587903" lon="7.836007">
        <ele>284.162625</ele>
        <time>2021-11-13T16:35:58.745Z</time>
      </trkpt>
      <trkpt lat="47.587628" lon="7.835942">
        <ele>283.230472</ele>
        <time>2021-11-13T16:36:01.560Z</time>
      </trkpt>
      <trkpt lat="47.587848" lon="7.834235">
        <ele>281.061898</ele>
        <time>2021-11-13T16:36:14.199Z</time>
      </trkpt>
      <trkpt lat="47.586496" lon="7.833050">
        <ele>280.821415</ele>
        <time>2021-11-13T16:36:36.512Z</time>
      </trkpt>
      <trkpt lat="47.586276" lon="7.833601">
        <ele>281.507118</ele>
        <time>2021-11-13T16:36:44.764Z</time>
      </trkpt>
      <trkpt lat="47.585278" lon="7.832688">
        <ele>284.205470</ele>
        <time>2021-11-13T16:37:16.218Z</time>
      </trkpt>
      <trkpt lat="47.585247" lon="7.832651">
        <ele>284.362642</ele>
        <time>2021-11-13T16:37:17.519Z</time>
      </trkpt>
      <trkpt lat="47.585195" lon="7.832588">
        <ele>284.627855</ele>
        <time>2021-11-13T16:37:19.714Z</time>
      </trkpt>
      <trkpt lat="47.585027" lon="7.832425">
        <ele>285.420787</ele>
        <time>2021-11-13T16:37:25.122Z</time>
      </trkpt>
      <trkpt lat="47.584717" lon="7.832264">
        <ele>286.718021</ele>
        <time>2021-11-13T16:37:34.787Z</time>
      </trkpt>
      <trkpt lat="47.584367" lon="7.832247">
        <ele>288.101026</ele>
        <time>2021-11-13T16:37:45.888Z</time>
      </trkpt>
      <trkpt lat="47.584156" lon="7.832334">
        <ele>288.965959</ele>
        <time>2021-11-13T16:37:53.595Z</time>
      </trkpt>
      <trkpt lat="47.584029" lon="7.832543">
        <ele>289.715312</ele>
        <time>2021-11-13T16:38:00.331Z</time>
      </trkpt>
      <trkpt lat="47.583849" lon="7.832883">
        <ele>290.773647</ele>
        <time>2021-11-13T16:38:10.806Z</time>
      </trkpt>
      <trkpt lat="47.583696" lon="7.833171">
        <ele>291.655234</ele>
        <time>2021-11-13T16:38:19.698Z</time>
      </trkpt>
      <trkpt lat="47.583523" lon="7.833509">
        <ele>292.675566</ele>
        <time>2021-11-13T16:38:28.302Z</time>
      </trkpt>
      <trkpt lat="47.583401" lon="7.833658">
        <ele>293.239101</ele>
        <time>2021-11-13T16:38:32.151Z</time>
      </trkpt>
      <trkpt lat="47.583327" lon="7.833750">
        <ele>293.583412</ele>
        <time>2021-11-13T16:38:35.296Z</time>
      </trkpt>
      <trkpt lat="47.583163" lon="7.833942">
        <ele>294.328428</ele>
        <time>2021-11-13T16:38:40.796Z</time>
      </trkpt>
      <trkpt lat="47.582828" lon="7.834117">
        <ele>295.594741</ele>
        <time>2021-11-13T16:38:49.266Z</time>
      </trkpt>
      <trkpt lat="47.582540" lon="7.834186">
        <ele>296.449103</ele>
        <time>2021-11-13T16:38:56.737Z</time>
      </trkpt>
      <trkpt lat="47.581931" lon="7.834332">
        <ele>297.339994</ele>
        <time>2021-11-13T16:39:11.941Z</time>
      </trkpt>
      <trkpt lat="47.580816" lon="7.834599">
        <ele>298.917780</ele>
        <time>2021-11-13T16:39:32.956Z</time>
      </trkpt>
      <trkpt lat="47.580667" lon="7.834627">
        <ele>298.907925</ele>
        <time>2021-11-13T16:39:35.260Z</time>
      </trkpt>
      <trkpt lat="47.579073" lon="7.834987">
        <ele>298.802132</ele>
        <time>2021-11-13T16:39:59.049Z</time>
      </trkpt>
      <trkpt lat="47.576219" lon="7.835650">
        <ele>295.435913</ele>
        <time>2021-11-13T16:40:32.709Z</time>
      </trkpt>
      <trkpt lat="47.575959" lon="7.835718">
        <ele>295.151751</ele>
        <time>2021-11-13T16:40:35.864Z</time>
      </trkpt>
      <trkpt lat="47.575033" lon="7.835907">
        <ele>294.690453</ele>
        <time>2021-11-13T16:40:48.318Z</time>
      </trkpt>
      <trkpt lat="47.574568" lon="7.836025">
        <ele>294.707689</ele>
        <time>2021-11-13T16:40:55.305Z</time>
      </trkpt>
      <trkpt lat="47.574158" lon="7.836106">
        <ele>294.722802</ele>
        <time>2021-11-13T16:41:01.977Z</time>
      </trkpt>
      <trkpt lat="47.573815" lon="7.836215">
        <ele>294.735619</ele>
        <time>2021-11-13T16:41:09.657Z</time>
      </trkpt>
      <trkpt lat="47.573348" lon="7.836386">
        <ele>294.943335</ele>
        <time>2021-11-13T16:41:20.509Z</time>
      </trkpt>
      <trkpt lat="47.572760" lon="7.836606">
        <ele>295.248040</ele>
        <time>2021-11-13T16:41:34.119Z</time>
      </trkpt>
      <trkpt lat="47.572296" lon="7.836777">
        <ele>295.488274</ele>
        <time>2021-11-13T16:41:44.545Z</time>
      </trkpt>
      <trkpt lat="47.572139" lon="7.836834">
        <ele>295.569490</ele>
        <time>2021-11-13T16:41:48.031Z</time>
      </trkpt>
      <trkpt lat="47.571871" lon="7.836932">
        <ele>295.777608</ele>
        <time>2021-11-13T16:41:54.068Z</time>
      </trkpt>
      <trkpt lat="47.571771" lon="7.836971">
        <ele>295.884067</ele>
        <time>2021-11-13T16:41:56.305Z</time>
      </trkpt>
      <trkpt lat="47.571254" lon="7.837161">
        <ele>296.432463</ele>
        <time>2021-11-13T16:42:08.755Z</time>
      </trkpt>
      <trkpt lat="47.570985" lon="7.837265">
        <ele>296.718679</ele>
        <time>2021-11-13T16:42:15.709Z</time>
      </trkpt>
      <trkpt lat="47.570872" lon="7.837307">
        <ele>296.838620</ele>
        <time>2021-11-13T16:42:18.725Z</time>
      </trkpt>
      <trkpt lat="47.570298" lon="7.837528">
        <ele>297.449196</ele>
        <time>2021-11-13T16:42:34.047Z</time>
      </trkpt>
      <trkpt lat="47.570038" lon="7.837643">
        <ele>297.810045</ele>
        <time>2021-11-13T16:42:41.170Z</time>
      </trkpt>
      <trkpt lat="47.569907" lon="7.837696">
        <ele>297.998390</ele>
        <time>2021-11-13T16:42:44.691Z</time>
      </trkpt>
      <trkpt lat="47.569814" lon="7.837733">
        <ele>298.131948</ele>
        <time>2021-11-13T16:42:47.253Z</time>
      </trkpt>
      <trkpt lat="47.569665" lon="7.837789">
        <ele>298.345152</ele>
        <time>2021-11-13T16:42:51.216Z</time>
      </trkpt>
      <trkpt lat="47.569522" lon="7.837844">
        <ele>298.550063</ele>
        <time>2021-11-13T16:42:55.071Z</time>
      </trkpt>
      <trkpt lat="47.569310" lon="7.837922">
        <ele>298.853033</ele>
        <time>2021-11-13T16:43:00.819Z</time>
      </trkpt>
      <trkpt lat="47.568988" lon="7.838054">
        <ele>299.316416</ele>
        <time>2021-11-13T16:43:09.596Z</time>
      </trkpt>
      <trkpt lat="47.568420" lon="7.838300">
        <ele>300.073373</ele>
        <time>2021-11-13T16:43:24.854Z</time>
      </trkpt>
      <trkpt lat="47.568160" lon="7.838415">
        <ele>300.288166</ele>
        <time>2021-11-13T16:43:31.266Z</time>
      </trkpt>
      <trkpt lat="47.568042" lon="7.838436">
        <ele>300.382249</ele>
        <time>2021-11-13T16:43:34.001Z</time>
      </trkpt>
      <trkpt lat="47.567936" lon="7.838380">
        <ele>300.471333</ele>
        <time>2021-11-13T16:43:36.534Z</time>
      </trkpt>
      <trkpt lat="47.567846" lon="7.838609">
        <ele>300.612885</ele>
        <time>2021-11-13T16:43:39.563Z</time>
      </trkpt>
      <trkpt lat="47.567823" lon="7.838648">
        <ele>300.640551</ele>
        <time>2021-11-13T16:43:40.219Z</time>
      </trkpt>
      <trkpt lat="47.567634" lon="7.839037">
        <ele>300.896590</ele>
        <time>2021-11-13T16:43:45.634Z</time>
      </trkpt>
      <trkpt lat="47.567626" lon="7.839064">
        <ele>300.912341</ele>
        <time>2021-11-13T16:43:46.047Z</time>
      </trkpt>
      <trkpt lat="47.567564" lon="7.839283">
        <ele>301.039194</ele>
        <time>2021-11-13T16:43:48.765Z</time>
      </trkpt>
      <trkpt lat="47.567530" lon="7.839459">
        <ele>301.136978</ele>
        <time>2021-11-13T16:43:50.954Z</time>
      </trkpt>
      <trkpt lat="47.567510" lon="7.839548">
        <ele>301.187083</ele>
        <time>2021-11-13T16:43:52.076Z</time>
      </trkpt>
      <trkpt lat="47.567481" lon="7.839664">
        <ele>301.253158</ele>
        <time>2021-11-13T16:43:53.417Z</time>
      </trkpt>
      <trkpt lat="47.567406" lon="7.839778">
        <ele>301.338203</ele>
        <time>2021-11-13T16:43:55.468Z</time>
      </trkpt>
      <trkpt lat="47.567111" lon="7.839998">
        <ele>301.639681</ele>
        <time>2021-11-13T16:44:01.448Z</time>
      </trkpt>
      <trkpt lat="47.566826" lon="7.840179">
        <ele>301.937637</ele>
        <time>2021-11-13T16:44:06.969Z</time>
      </trkpt>
      <trkpt lat="47.566592" lon="7.840279">
        <ele>302.171660</ele>
        <time>2021-11-13T16:44:11.599Z</time>
      </trkpt>
      <trkpt lat="47.566515" lon="7.840312">
        <ele>302.248685</ele>
        <time>2021-11-13T16:44:12.888Z</time>
      </trkpt>
      <trkpt lat="47.566450" lon="7.840326">
        <ele>302.311803</ele>
        <time>2021-11-13T16:44:14.126Z</time>
      </trkpt>
      <trkpt lat="47.566350" lon="7.840350">
        <ele>302.409150</ele>
        <time>2021-11-13T16:44:16.034Z</time>
      </trkpt>
      <trkpt lat="47.566221" lon="7.840340">
        <ele>302.533282</ele>
        <time>2021-11-13T16:44:18.368Z</time>
      </trkpt>
      <trkpt lat="47.566142" lon="7.840322">
        <ele>302.610088</ele>
        <time>2021-11-13T16:44:19.601Z</time>
      </trkpt>
      <trkpt lat="47.566081" lon="7.840309">
        <ele>302.669309</ele>
        <time>2021-11-13T16:44:20.813Z</time>
      </trkpt>
      <trkpt lat="47.565906" lon="7.840272">
        <ele>302.839178</ele>
        <time>2021-11-13T16:44:24.264Z</time>
      </trkpt>
      <trkpt lat="47.565343" lon="7.840185">
        <ele>303.440953</ele>
        <time>2021-11-13T16:44:35.584Z</time>
      </trkpt>
      <trkpt lat="47.565233" lon="7.840176">
        <ele>303.572081</ele>
        <time>2021-11-13T16:44:37.922Z</time>
      </trkpt>
      <trkpt lat="47.565168" lon="7.840179">
        <ele>303.649486</ele>
        <time>2021-11-13T16:44:39.298Z</time>
      </trkpt>
      <trkpt lat="47.565057" lon="7.840213">
        <ele>303.784397</ele>
        <time>2021-11-13T16:44:41.541Z</time>
      </trkpt>
      <trkpt lat="47.564936" lon="7.840261">
        <ele>303.933489</ele>
        <time>2021-11-13T16:44:44.257Z</time>
      </trkpt>
      <trkpt lat="47.564558" lon="7.840516">
        <ele>304.427826</ele>
        <time>2021-11-13T16:44:52.539Z</time>
      </trkpt>
      <trkpt lat="47.564534" lon="7.840532">
        <ele>304.459150</ele>
        <time>2021-11-13T16:44:53.036Z</time>
      </trkpt>
      <trkpt lat="47.564463" lon="7.840580">
        <ele>304.552036</ele>
        <time>2021-11-13T16:44:54.650Z</time>
      </trkpt>
      <trkpt lat="47.564094" lon="7.840838">
        <ele>305.037668</ele>
        <time>2021-11-13T16:45:02.311Z</time>
      </trkpt>
      <trkpt lat="47.563986" lon="7.840916">
        <ele>305.180668</ele>
        <time>2021-11-13T16:45:04.599Z</time>
      </trkpt>
      <trkpt lat="47.563941" lon="7.840948">
        <ele>305.240077</ele>
        <time>2021-11-13T16:45:05.524Z</time>
      </trkpt>
      <trkpt lat="47.563805" lon="7.841046">
        <ele>305.403700</ele>
        <time>2021-11-13T16:45:08.330Z</time>
      </trkpt>
      <trkpt lat="47.563659" lon="7.841150">
        <ele>305.573705</ele>
        <time>2021-11-13T16:45:11.222Z</time>
      </trkpt>
      <trkpt lat="47.563483" lon="7.841269">
        <ele>305.776729</ele>
        <time>2021-11-13T16:45:14.951Z</time>
      </trkpt>
      <trkpt lat="47.563300" lon="7.841391">
        <ele>305.987321</ele>
        <time>2021-11-13T16:45:18.511Z</time>
      </trkpt>
      <trkpt lat="47.563016" lon="7.841568">
        <ele>306.310657</ele>
        <time>2021-11-13T16:45:24.368Z</time>
      </trkpt>
      <trkpt lat="47.562965" lon="7.841597">
        <ele>306.367986</ele>
        <time>2021-11-13T16:45:25.346Z</time>
      </trkpt>
      <trkpt lat="47.562904" lon="7.841632">
        <ele>306.436634</ele>
        <time>2021-11-13T16:45:26.575Z</time>
      </trkpt>
      <trkpt lat="47.562574" lon="7.841873">
        <ele>306.822731</ele>
        <time>2021-11-13T16:45:33.541Z</time>
      </trkpt>
      <trkpt lat="47.562440" lon="7.842083">
        <ele>307.027410</ele>
        <time>2021-11-13T16:45:37.160Z</time>
      </trkpt>
      <trkpt lat="47.562385" lon="7.842183">
        <ele>307.118771</ele>
        <time>2021-11-13T16:45:38.727Z</time>
      </trkpt>
      <trkpt lat="47.562300" lon="7.842326">
        <ele>307.271074</ele>
        <time>2021-11-13T16:45:41.627Z</time>
      </trkpt>
      <trkpt lat="47.562179" lon="7.842500">
        <ele>307.484368</ele>
        <time>2021-11-13T16:45:45.105Z</time>
      </trkpt>
      <trkpt lat="47.561498" lon="7.843130">
        <ele>308.499963</ele>
        <time>2021-11-13T16:46:01.677Z</time>
      </trkpt>
      <trkpt lat="47.561434" lon="7.843181">
        <ele>308.591891</ele>
        <time>2021-11-13T16:46:03.489Z</time>
      </trkpt>
      <trkpt lat="47.561038" lon="7.843502">
        <ele>309.162906</ele>
        <time>2021-11-13T16:46:11.971Z</time>
      </trkpt>
      <trkpt lat="47.560934" lon="7.843550">
        <ele>309.300706</ele>
        <time>2021-11-13T16:46:13.820Z</time>
      </trkpt>
      <trkpt lat="47.560934" lon="7.843550">
        <ele>309.300706</ele>
        <time>2021-11-13T16:46:13.877Z</time>
      </trkpt>
      <trkpt lat="47.560812" lon="7.843560">
        <ele>309.452395</ele>
        <time>2021-11-13T16:46:16.147Z</time>
      </trkpt>
      <trkpt lat="47.560515" lon="7.843379">
        <ele>309.747998</ele>
        <time>2021-11-13T16:46:21.859Z</time>
      </trkpt>
      <trkpt lat="47.560430" lon="7.843341">
        <ele>309.829723</ele>
        <time>2021-11-13T16:46:23.769Z</time>
      </trkpt>
      <trkpt lat="47.560413" lon="7.843159">
        <ele>309.943853</ele>
        <time>2021-11-13T16:46:26.427Z</time>
      </trkpt>
      <trkpt lat="47.560307" lon="7.842813">
        <ele>310.179888</ele>
        <time>2021-11-13T16:46:33.037Z</time>
      </trkpt>
      <trkpt lat="47.560248" lon="7.842719">
        <ele>310.259630</ele>
        <time>2021-11-13T16:46:34.965Z</time>
      </trkpt>
      <trkpt lat="47.560158" lon="7.842633">
        <ele>310.358205</ele>
        <time>2021-11-13T16:46:37.835Z</time>
      </trkpt>
      <trkpt lat="47.560053" lon="7.842546">
        <ele>310.468939</ele>
        <time>2021-11-13T16:46:41.153Z</time>
      </trkpt>
      <trkpt lat="47.559955" lon="7.842474">
        <ele>310.569627</ele>
        <time>2021-11-13T16:46:43.572Z</time>
      </trkpt>
      <trkpt lat="47.559909" lon="7.842445">
        <ele>310.615642</ele>
        <time>2021-11-13T16:46:44.720Z</time>
      </trkpt>
      <trkpt lat="47.559814" lon="7.842380">
        <ele>310.711961</ele>
        <time>2021-11-13T16:46:47.343Z</time>
      </trkpt>
      <trkpt lat="47.559793" lon="7.842362">
        <ele>310.734292</ele>
        <time>2021-11-13T16:46:47.744Z</time>
      </trkpt>
      <trkpt lat="47.559738" lon="7.842322">
        <ele>310.790688</ele>
        <time>2021-11-13T16:46:49.097Z</time>
      </trkpt>
      <trkpt lat="47.559669" lon="7.842263">
        <ele>310.864017</ele>
        <time>2021-11-13T16:46:50.511Z</time>
      </trkpt>
      <trkpt lat="47.559559" lon="7.842133">
        <ele>310.993530</ele>
        <time>2021-11-13T16:46:52.530Z</time>
      </trkpt>
      <trkpt lat="47.559512" lon="7.842082">
        <ele>311.047152</ele>
        <time>2021-11-13T16:46:53.428Z</time>
      </trkpt>
      <trkpt lat="47.559372" lon="7.841862">
        <ele>311.255079</ele>
        <time>2021-11-13T16:46:56.967Z</time>
      </trkpt>
      <trkpt lat="47.559116" lon="7.841194">
        <ele>311.803462</ele>
        <time>2021-11-13T16:47:05.491Z</time>
      </trkpt>
      <trkpt lat="47.559091" lon="7.841128">
        <ele>311.857492</ele>
        <time>2021-11-13T16:47:06.351Z</time>
      </trkpt>
      <trkpt lat="47.559056" lon="7.841071">
        <ele>311.912505</ele>
        <time>2021-11-13T16:47:07.785Z</time>
      </trkpt>
      <trkpt lat="47.558998" lon="7.841160">
        <ele>312.000827</ele>
        <time>2021-11-13T16:47:09.095Z</time>
      </trkpt>
      <trkpt lat="47.558866" lon="7.841362">
        <ele>312.201553</ele>
        <time>2021-11-13T16:47:12.609Z</time>
      </trkpt>
      <trkpt lat="47.558828" lon="7.841419">
        <ele>312.258750</ele>
        <time>2021-11-13T16:47:13.790Z</time>
      </trkpt>
      <trkpt lat="47.558786" lon="7.841479">
        <ele>312.320462</ele>
        <time>2021-11-13T16:47:15.213Z</time>
      </trkpt>
      <trkpt lat="47.558630" lon="7.841744">
        <ele>312.571497</ele>
        <time>2021-11-13T16:47:19.848Z</time>
      </trkpt>
      <trkpt lat="47.558552" lon="7.841857">
        <ele>312.686888</ele>
        <time>2021-11-13T16:47:22.290Z</time>
      </trkpt>
      <trkpt lat="47.558490" lon="7.841946">
        <ele>312.778201</ele>
        <time>2021-11-13T16:47:23.959Z</time>
      </trkpt>
      <trkpt lat="47.558197" lon="7.842240">
        <ele>313.350921</ele>
        <time>2021-11-13T16:47:31.375Z</time>
      </trkpt>
      <trkpt lat="47.557745" lon="7.842642">
        <ele>314.648500</ele>
        <time>2021-11-13T16:47:43.044Z</time>
      </trkpt>
      <trkpt lat="47.557662" lon="7.842713">
        <ele>314.884397</ele>
        <time>2021-11-13T16:47:44.519Z</time>
      </trkpt>
      <trkpt lat="47.557551" lon="7.842810">
        <ele>315.201589</ele>
        <time>2021-11-13T16:47:47.747Z</time>
      </trkpt>
      <trkpt lat="47.557481" lon="7.842900">
        <ele>315.429706</ele>
        <time>2021-11-13T16:47:49.993Z</time>
      </trkpt>
      <trkpt lat="47.557362" lon="7.842995">
        <ele>315.762421</ele>
        <time>2021-11-13T16:47:53.331Z</time>
      </trkpt>
      <trkpt lat="47.557134" lon="7.843279">
        <ele>316.495570</ele>
        <time>2021-11-13T16:48:01.907Z</time>
      </trkpt>
      <trkpt lat="47.557087" lon="7.843406">
        <ele>316.736170</ele>
        <time>2021-11-13T16:48:04.354Z</time>
      </trkpt>
      <trkpt lat="47.556914" lon="7.843392">
        <ele>317.162634</ele>
        <time>2021-11-13T16:48:09.752Z</time>
      </trkpt>
      <trkpt lat="47.556372" lon="7.843758">
        <ele>318.968618</ele>
        <time>2021-11-13T16:48:27.080Z</time>
      </trkpt>
      <trkpt lat="47.556224" lon="7.843775">
        <ele>319.437624</ele>
        <time>2021-11-13T16:48:31.324Z</time>
      </trkpt>
      <trkpt lat="47.556133" lon="7.843776">
        <ele>319.725145</ele>
        <time>2021-11-13T16:48:34.219Z</time>
      </trkpt>
      <trkpt lat="47.556084" lon="7.843774">
        <ele>319.880018</ele>
        <time>2021-11-13T16:48:35.307Z</time>
      </trkpt>
      <trkpt lat="47.555933" lon="7.843754">
        <ele>320.359002</ele>
        <time>2021-11-13T16:48:39.964Z</time>
      </trkpt>
      <trkpt lat="47.555703" lon="7.843562">
        <ele>321.193068</ele>
        <time>2021-11-13T16:48:47.475Z</time>
      </trkpt>
      <trkpt lat="47.555295" lon="7.842901">
        <ele>323.103086</ele>
        <time>2021-11-13T16:49:03.589Z</time>
      </trkpt>
      <trkpt lat="47.555123" lon="7.842678">
        <ele>323.291451</ele>
        <time>2021-11-13T16:49:08.619Z</time>
      </trkpt>
      <trkpt lat="47.554952" lon="7.842565">
        <ele>323.439667</ele>
        <time>2021-11-13T16:49:13.010Z</time>
      </trkpt>
      <trkpt lat="47.554783" lon="7.842488">
        <ele>323.579631</ele>
        <time>2021-11-13T16:49:16.638Z</time>
      </trkpt>
      <trkpt lat="47.554476" lon="7.842450">
        <ele>323.823500</ele>
        <time>2021-11-13T16:49:21.975Z</time>
      </trkpt>
      <trkpt lat="47.554289" lon="7.842424">
        <ele>323.972181</ele>
        <time>2021-11-13T16:49:24.728Z</time>
      </trkpt>
      <trkpt lat="47.554019" lon="7.842386">
        <ele>324.186877</ele>
        <time>2021-11-13T16:49:28.800Z</time>
      </trkpt>
      <trkpt lat="47.553449" lon="7.842365">
        <ele>324.478835</ele>
        <time>2021-11-13T16:49:36.838Z</time>
      </trkpt>
      <trkpt lat="47.553273" lon="7.842406">
        <ele>324.398155</ele>
        <time>2021-11-13T16:49:40.287Z</time>
      </trkpt>
      <trkpt lat="47.553133" lon="7.842431">
        <ele>324.334298</ele>
        <time>2021-11-13T16:49:42.832Z</time>
      </trkpt>
      <trkpt lat="47.552833" lon="7.842495">
        <ele>324.197042</ele>
        <time>2021-11-13T16:49:48.288Z</time>
      </trkpt>
      <trkpt lat="47.552380" lon="7.842592">
        <ele>323.989771</ele>
        <time>2021-11-13T16:49:56.529Z</time>
      </trkpt>
      <trkpt lat="47.551922" lon="7.842704">
        <ele>323.779560</ele>
        <time>2021-11-13T16:50:05.288Z</time>
      </trkpt>
      <trkpt lat="47.551668" lon="7.842770">
        <ele>323.773621</ele>
        <time>2021-11-13T16:50:10.246Z</time>
      </trkpt>
      <trkpt lat="47.551454" lon="7.842815">
        <ele>323.857941</ele>
        <time>2021-11-13T16:50:14.425Z</time>
      </trkpt>
      <trkpt lat="47.551243" lon="7.842849">
        <ele>323.940739</ele>
        <time>2021-11-13T16:50:18.415Z</time>
      </trkpt>
      <trkpt lat="47.549927" lon="7.842747">
        <ele>324.576421</ele>
        <time>2021-11-13T16:50:48.122Z</time>
      </trkpt>
      <trkpt lat="47.549582" lon="7.842702">
        <ele>325.244382</ele>
        <time>2021-11-13T16:50:57.041Z</time>
      </trkpt>
      <trkpt lat="47.549188" lon="7.842622">
        <ele>326.011377</ele>
        <time>2021-11-13T16:51:08.473Z</time>
      </trkpt>
      <trkpt lat="47.548105" lon="7.842284">
        <ele>328.086604</ele>
        <time>2021-11-13T16:51:41.541Z</time>
      </trkpt>
      <trkpt lat="47.547674" lon="7.842266">
        <ele>328.723103</ele>
        <time>2021-11-13T16:51:53.832Z</time>
      </trkpt>
      <trkpt lat="47.547549" lon="7.842268">
        <ele>328.907639</ele>
        <time>2021-11-13T16:51:57.029Z</time>
      </trkpt>
      <trkpt lat="47.547448" lon="7.842262">
        <ele>329.056856</ele>
        <time>2021-11-13T16:51:59.614Z</time>
      </trkpt>
      <trkpt lat="47.547354" lon="7.842839">
        <ele>329.648294</ele>
        <time>2021-11-13T16:52:09.627Z</time>
      </trkpt>
      <trkpt lat="47.547313" lon="7.843735">
        <ele>330.543128</ele>
        <time>2021-11-13T16:52:24.723Z</time>
      </trkpt>
      <trkpt lat="47.547295" lon="7.844722">
        <ele>331.274644</ele>
        <time>2021-11-13T16:52:39.859Z</time>
      </trkpt>
      <trkpt lat="47.547274" lon="7.845536">
        <ele>331.877097</ele>
        <time>2021-11-13T16:52:52.447Z</time>
      </trkpt>
      <trkpt lat="47.547130" lon="7.848653">
        <ele>335.524976</ele>
        <time>2021-11-13T16:53:50.433Z</time>
      </trkpt>
      <trkpt lat="47.547124" lon="7.848795">
        <ele>335.714517</ele>
        <time>2021-11-13T16:53:54.003Z</time>
      </trkpt>
      <trkpt lat="47.547131" lon="7.849221">
        <ele>336.271468</ele>
        <time>2021-11-13T16:54:02.154Z</time>
      </trkpt>
      <trkpt lat="47.547143" lon="7.849985">
        <ele>337.238341</ele>
        <time>2021-11-13T16:54:17.593Z</time>
      </trkpt>
      <trkpt lat="47.547141" lon="7.850355">
        <ele>337.706480</ele>
        <time>2021-11-13T16:54:25.178Z</time>
      </trkpt>
      <trkpt lat="47.546945" lon="7.851719">
        <ele>339.448065</ele>
        <time>2021-11-13T16:54:50.680Z</time>
      </trkpt>
      <trkpt lat="47.546582" lon="7.856413">
        <ele>340.662637</ele>
        <time>2021-11-13T16:55:58.944Z</time>
      </trkpt>
      <trkpt lat="47.546537" lon="7.857497">
        <ele>340.869445</ele>
        <time>2021-11-13T16:56:14.252Z</time>
      </trkpt>
      <trkpt lat="47.546487" lon="7.859119">
        <ele>341.211934</ele>
        <time>2021-11-13T16:56:37.700Z</time>
      </trkpt>
      <trkpt lat="47.546526" lon="7.861665">
        <ele>341.374370</ele>
        <time>2021-11-13T16:57:14.874Z</time>
      </trkpt>
      <trkpt lat="47.546592" lon="7.863006">
        <ele>340.681766</ele>
        <time>2021-11-13T16:57:31.341Z</time>
      </trkpt>
      <trkpt lat="47.546877" lon="7.864345">
        <ele>339.242083</ele>
        <time>2021-11-13T16:57:46.510Z</time>
      </trkpt>
      <trkpt lat="47.546885" lon="7.864500">
        <ele>339.082680</ele>
        <time>2021-11-13T16:57:48.190Z</time>
      </trkpt>
      <trkpt lat="47.546894" lon="7.864837">
        <ele>338.736844</ele>
        <time>2021-11-13T16:57:51.669Z</time>
      </trkpt>
      <trkpt lat="47.546889" lon="7.865225">
        <ele>338.266678</ele>
        <time>2021-11-13T16:57:55.790Z</time>
      </trkpt>
      <trkpt lat="47.546819" lon="7.865489">
        <ele>337.909995</ele>
        <time>2021-11-13T16:57:58.868Z</time>
      </trkpt>
      <trkpt lat="47.546510" lon="7.865766">
        <ele>337.237132</ele>
        <time>2021-11-13T16:58:04.562Z</time>
      </trkpt>
      <trkpt lat="47.546327" lon="7.865959">
        <ele>336.818631</ele>
        <time>2021-11-13T16:58:07.894Z</time>
      </trkpt>
      <trkpt lat="47.546096" lon="7.866147">
        <ele>336.327606</ele>
        <time>2021-11-13T16:58:11.960Z</time>
      </trkpt>
      <trkpt lat="47.545240" lon="7.866887">
        <ele>335.479631</ele>
        <time>2021-11-13T16:58:28.633Z</time>
      </trkpt>
      <trkpt lat="47.545160" lon="7.866985">
        <ele>335.520039</ele>
        <time>2021-11-13T16:58:30.589Z</time>
      </trkpt>
      <trkpt lat="47.545003" lon="7.867278">
        <ele>335.618333</ele>
        <time>2021-11-13T16:58:36.257Z</time>
      </trkpt>
      <trkpt lat="47.544568" lon="7.867693">
        <ele>335.819733</ele>
        <time>2021-11-13T16:58:49.048Z</time>
      </trkpt>
      <trkpt lat="47.544469" lon="7.867776">
        <ele>335.864013</ele>
        <time>2021-11-13T16:58:51.910Z</time>
      </trkpt>
      <trkpt lat="47.544410" lon="7.867825">
        <ele>335.890342</ele>
        <time>2021-11-13T16:58:53.999Z</time>
      </trkpt>
      <trkpt lat="47.544246" lon="7.867967">
        <ele>335.964284</ele>
        <time>2021-11-13T16:58:58.682Z</time>
      </trkpt>
      <trkpt lat="47.544214" lon="7.867988">
        <ele>335.977908</ele>
        <time>2021-11-13T16:58:59.530Z</time>
      </trkpt>
      <trkpt lat="47.543801" lon="7.868269">
        <ele>336.556268</ele>
        <time>2021-11-13T16:59:11.133Z</time>
      </trkpt>
      <trkpt lat="47.543657" lon="7.868359">
        <ele>336.782567</ele>
        <time>2021-11-13T16:59:15.483Z</time>
      </trkpt>
      <trkpt lat="47.543201" lon="7.868657">
        <ele>337.504215</ele>
        <time>2021-11-13T16:59:25.683Z</time>
      </trkpt>
      <trkpt lat="47.543105" lon="7.868711">
        <ele>337.652900</ele>
        <time>2021-11-13T16:59:28.267Z</time>
      </trkpt>
      <trkpt lat="47.543049" lon="7.868759">
        <ele>337.746578</ele>
        <time>2021-11-13T16:59:29.644Z</time>
      </trkpt>
      <trkpt lat="47.542722" lon="7.869201">
        <ele>338.387527</ele>
        <time>2021-11-13T16:59:39.476Z</time>
      </trkpt>
      <trkpt lat="47.542696" lon="7.869257">
        <ele>338.453959</ele>
        <time>2021-11-13T16:59:40.306Z</time>
      </trkpt>
      <trkpt lat="47.542657" lon="7.869354">
        <ele>338.564311</ele>
        <time>2021-11-13T16:59:41.741Z</time>
      </trkpt>
      <trkpt lat="47.542372" lon="7.869746">
        <ele>338.611523</ele>
        <time>2021-11-13T16:59:48.946Z</time>
      </trkpt>
      <trkpt lat="47.542329" lon="7.869820">
        <ele>338.611523</ele>
        <time>2021-11-13T16:59:50.160Z</time>
      </trkpt>
      <trkpt lat="47.542348" lon="7.869983">
        <ele>338.611523</ele>
        <time>2021-11-13T16:59:51.728Z</time>
      </trkpt>
      <trkpt lat="47.542317" lon="7.870012">
        <ele>338.611523</ele>
        <time>2021-11-13T16:59:52.433Z</time>
      </trkpt>
      <trkpt lat="47.542181" lon="7.870131">
        <ele>338.611523</ele>
        <time>2021-11-13T16:59:55.049Z</time>
      </trkpt>
      <trkpt lat="47.542118" lon="7.870135">
        <ele>338.611523</ele>
        <time>2021-11-13T16:59:56.083Z</time>
      </trkpt>
      <trkpt lat="47.542014" lon="7.870126">
        <ele>338.611523</ele>
        <time>2021-11-13T16:59:57.459Z</time>
      </trkpt>
      <trkpt lat="47.541910" lon="7.870106">
        <ele>338.611523</ele>
        <time>2021-11-13T16:59:59.124Z</time>
      </trkpt>
      <trkpt lat="47.541606" lon="7.870424">
        <ele>338.611523</ele>
        <time>2021-11-13T17:00:04.496Z</time>
      </trkpt>
      <trkpt lat="47.541521" lon="7.870517">
        <ele>338.611523</ele>
        <time>2021-11-13T17:00:05.990Z</time>
      </trkpt>
      <trkpt lat="47.541550" lon="7.870601">
        <ele>338.611523</ele>
        <time>2021-11-13T17:00:06.865Z</time>
      </trkpt>
      <trkpt lat="47.541576" lon="7.870664">
        <ele>338.611523</ele>
        <time>2021-11-13T17:00:07.537Z</time>
      </trkpt>
      <trkpt lat="47.541410" lon="7.870791">
        <ele>338.611523</ele>
        <time>2021-11-13T17:00:10.734Z</time>
      </trkpt>
      <trkpt lat="47.541318" lon="7.870867">
        <ele>338.611523</ele>
        <time>2021-11-13T17:00:12.202Z</time>
      </trkpt>
    </trkseg>
  </trk>
</gpx>